[[{"header":{"parameterUnit":"m.s-1","parameterCategory":1,"la1":31.0,"la2":29.5877,"lo1":-88.7671,"lo2":-86.6584,"dy":0.0162,"dx":0.0185,"nx":115,"ny":88,"refTime":"2023-11-21T18:00:00:Z","depth":0,"parameterNumber":2,"parameterNumberName":"U-component_of_WINDS"},"data":[0.0,0.0,0.0,0.0,0.0,0.0,0.0,0.0,0.0,0.0,0.0,0.0,0.0,0.0,0.0,0.0,0.0,0.0,0.0,0.0,0.0,0.0,0.0,0.0,0.0,0.0,0.0,0.0,0.0,0.0,0.0,0.0,0.0,0.0,0.0,0.0,0.0,0.0,0.0,0.0,0.0,0.0,0.0,0.0,0.0,0.0,0.0,0.0,0.0,0.0,0.0,0.0,0.0,0.0,0.0,0.0,0.0,0.0,0.0,0.0,0.0,0.0,0.0,0.0,0.0,0.0,0.0,0.0,0.0,0.0,0.0,0.0,0.0,0.0,0.0,0.0,0.0,0.0,0.0,0.0,0.0,0.0,0.0,0.0,0.0,0.0,0.0,0.0,0.0,0.0,0.0,0.0,0.0,0.0,0.0,0.0,0.0,0.0,0.0,0.0,0.0,0.0,0.0,0.0,0.0,0.0,0.0,0.0,0.0,0.0,0.0,0.0,0.0,0.0,0.0,0.0,0.0,0.0,0.0,0.0,0.0,0.0,0.0,0.0,0.0,0.0,0.0,0.0,0.0,0.0,0.0,0.0,0.0,0.0,0.0,0.0,0.0,0.0,0.0,0.0,0.0,0.0,0.0,0.0,0.0,0.0,0.0,0.0,0.0,0.0,0.0,0.0,0.0,0.0,0.0,0.0,0.0,0.0,0.0,0.0,0.0,0.0,0.0,0.0,0.0,0.0,0.0,0.0,0.0,0.0,0.0,0.0,0.0,0.0,0.0,0.0,0.0,0.0,0.0,0.0,0.0,0.0,0.0,0.0,0.0,0.0,0.0,0.0,0.0,0.0,0.0,0.0,0.0,0.0,0.0,0.0,0.0,0.0,0.0,0.0,0.0,0.0,0.0,0.0,0.0,0.0,0.0,0.0,0.0,0.0,0.0,0.0,0.0,0.0,0.0,0.0,0.0,0.0,0.0,0.0,0.0,0.0,0.0,0.0,0.0,0.0,0.0,0.0,0.0,0.0,0.0,0.0,0.0,0.0,0.0,0.0,0.0,0.0,0.0,0.0,0.0,0.0,0.0,0.0,0.0,0.0,0.0,0.0,0.0,0.0,0.0,0.0,0.0,0.0,0.0,0.0,0.0,0.0,0.0,0.0,0.0,0.0,0.0,0.0,0.0,0.0,0.0,0.0,0.0,0.0,0.0,0.0,0.0,0.0,0.0,0.0,0.0,0.0,0.0,0.0,0.0,0.0,0.0,0.0,0.0,0.0,0.0,0.0,0.0,0.0,0.0,0.0,0.0,0.0,0.0,0.0,0.0,0.0,0.0,0.0,0.0,0.0,0.0,0.0,0.0,0.0,0.0,0.0,0.0,0.0,0.0,0.0,0.0,0.0,0.0,0.0,0.0,0.0,0.0,0.0,0.0,0.0,0.0,0.0,0.0,0.0,0.0,0.0,0.0,0.0,0.0,0.0,0.0,0.0,0.0,0.0,0.0,0.0,0.0,0.0,0.0,0.0,0.0,0.0,0.0,0.0,0.0,0.0,0.0,0.0,0.0,0.0,0.0,0.0,0.0,0.0,0.0,0.0,0.0,0.0,0.0,0.0,0.0,0.0,0.0,0.0,0.0,0.0,0.0,0.0,0.0,0.0,0.0,0.0,0.0,0.0,0.0,0.0,0.0,0.0,0.0,0.0,0.0,0.0,0.0,0.0,0.0,0.0,0.0,0.0,0.0,0.0,0.0,0.0,0.0,0.0,0.0,0.0,0.0,0.0,0.0,0.0,0.0,0.0,0.0,0.0,0.0,0.0,0.0,0.0,0.0,0.0,0.0,0.0,0.0,0.0,0.0,0.0,0.0,0.0,0.0,0.0,0.0,0.0,0.0,0.0,0.0,0.0,0.0,0.0,0.0,0.0,0.0,0.0,0.0,0.0,0.0,0.0,0.0,0.0,0.0,0.0,0.0,0.0,0.0,0.0,0.0,0.0,0.0,0.0,0.0,0.0,0.0,0.0,0.0,0.0,0.0,0.0,0.0,0.0,0.0,0.0,0.0,0.0,0.0,0.0,0.0,0.0,0.0,0.0,0.0,0.0,0.0,0.0,0.0,0.0,0.0,0.0,0.0,0.0,0.0,0.0,0.0,0.0,0.0,0.0,0.0,0.0,0.0,0.0,0.0,0.0,0.0,0.0,0.0,0.0,0.0,0.0,0.0,0.0,0.0,0.0,0.0,0.0,0.0,0.0,0.0,0.0,0.0,0.0,0.0,0.0,0.0,0.0,0.0,0.0,0.0,0.0,0.0,0.0,0.0,0.0,0.0,0.0,0.0,0.0,0.0,0.0,0.0,0.0,0.0,0.0,0.0,0.0,0.0,0.0,0.0,0.0,0.0,0.0,0.0,0.0,0.0,0.0,0.0,0.0,0.0,0.0,0.0,0.0,0.0,0.0,0.0,0.0,0.0,0.0,0.0,0.0,0.0,0.0,0.0,0.0,0.0,0.0,0.0,0.0,0.0,0.0,0.0,0.0,0.0,0.0,0.0,0.0,0.0,0.0,0.0,0.0,0.0,0.0,0.0,0.0,0.0,0.0,0.0,0.0,0.0,0.0,0.0,0.0,0.0,0.0,0.0,0.0,0.0,0.0,0.0,0.0,0.0,0.0,0.0,0.0,0.0,0.0,0.0,0.0,0.0,0.0,0.0,0.0,0.0,0.0,0.0,0.0,0.0,0.0,0.0,0.0,0.0,0.0,0.0,0.0,0.0,0.0,0.0,0.0,0.0,0.0,0.0,0.0,0.0,0.0,0.0,0.0,0.0,0.0,0.0,0.0,0.0,0.0,0.0,0.0,0.0,0.0,0.0,0.0,0.0,0.0,0.0,0.0,0.0,0.0,0.0,0.0,0.0,0.0,0.0,0.0,0.0,0.0,0.0,0.0,0.0,0.0,0.0,0.0,0.0,0.0,0.0,0.0,0.0,0.0,0.0,0.0,0.0,0.0,0.0,0.0,0.0,0.0,0.0,0.0,0.0,0.0,0.0,0.0,0.0,0.0,0.0,0.0,0.0,0.0,0.0,0.0,0.0,0.0,0.0,0.0,0.0,0.0,0.0,0.0,0.0,0.0,0.0,0.0,0.0,0.0,0.0,0.0,0.0,0.0,0.0,0.0,0.0,0.0,0.0,0.0,0.0,0.0,0.0,0.0,0.0,0.0,0.0,0.0,0.0,0.0,0.0,0.0,0.0,0.0,0.0,0.0,0.0,0.0,0.0,0.0,0.0,0.0,0.0,0.0,0.0,0.0,0.0,0.0,0.0,0.0,0.0,0.0,0.0,0.0,0.0,0.0,0.0,0.0,0.0,0.0,0.0,0.0,0.0,0.0,0.0,0.0,0.0,0.0,0.0,0.0,0.0,0.0,0.0,0.0,0.0,0.0,0.0,0.0,0.0,0.0,0.0,0.0,0.0,0.0,0.0,0.0,0.0,0.0,0.0,0.0,0.0,0.0,0.0,0.0,0.0,0.0,0.0,0.0,0.0,0.0,0.0,0.0,0.0,0.0,0.0,0.0,0.0,0.0,0.0,0.0,0.0,0.0,0.0,0.0,0.0,0.0,0.0,0.0,0.0,0.0,0.0,0.0,0.0,0.0,0.0,0.0,0.0,0.0,0.0,0.0,0.0,0.0,0.0,0.0,0.0,0.0,0.0,0.0,0.0,0.0,0.0,0.0,0.0,0.0,0.0,0.0,0.0,0.0,0.0,0.0,0.0,0.0,0.0,0.0,0.0,0.0,0.0,0.0,0.0,0.0,0.0,0.0,0.0,0.0,0.0,0.0,0.0,0.0,0.0,0.0,0.0,0.0,0.0,0.0,0.0,0.0,0.0,0.0,0.0,0.0,0.0,0.0,0.0,0.0,0.0,0.0,0.0,0.0,0.0,0.0,0.0,0.0,0.0,0.0,0.0,0.0,0.0,0.0,0.0,0.0,0.0,0.0,0.0,0.0,0.0,0.0,0.0,0.0,0.0,0.0,0.0,0.0,0.0,0.0,0.0,0.0,0.0,0.0,0.0,0.0,0.0,0.0,0.0,0.0,0.0,0.0,0.0,0.0,0.0,0.0,0.0,0.0,0.0,0.0,0.0,0.0,0.0,0.0,0.0,0.0,0.0,0.0,0.0,0.0,0.0,0.0,0.0,0.0,0.0,0.0,0.0,0.0,0.0,0.0,0.0,0.0,0.0,0.0,0.0,0.0,0.0,0.0,0.0,0.0,0.0,0.0,0.0,0.0,3.119,0.0,0.0,0.0,0.0,0.0,0.0,0.0,0.0,0.0,0.0,0.0,0.0,0.0,0.0,0.0,0.0,0.0,0.0,0.0,0.0,0.0,0.0,0.0,0.0,0.0,0.0,0.0,0.0,0.0,0.0,0.0,0.0,0.0,0.0,0.0,0.0,0.0,0.0,0.0,0.0,0.0,0.0,0.0,0.0,0.0,0.0,0.0,0.0,0.0,0.0,0.0,0.0,0.0,0.0,0.0,0.0,0.0,0.0,0.0,0.0,0.0,0.0,0.0,0.0,0.0,0.0,0.0,0.0,0.0,0.0,0.0,0.0,0.0,0.0,0.0,0.0,0.0,0.0,0.0,0.0,0.0,0.0,0.0,0.0,0.0,0.0,0.0,0.0,0.0,0.0,0.0,0.0,0.0,0.0,0.0,0.0,0.0,0.0,0.0,0.0,0.0,0.0,0.0,0.0,0.0,0.0,0.0,0.0,0.0,0.0,3.2754,3.2273,3.1562,3.119,3.119,0.0,0.0,0.0,0.0,0.0,0.0,0.0,0.0,0.0,0.0,0.0,0.0,0.0,0.0,0.0,0.0,0.0,0.0,0.0,0.0,0.0,0.0,0.0,0.0,0.0,0.0,0.0,0.0,0.0,0.0,0.0,0.0,0.0,0.0,0.0,0.0,0.0,0.0,0.0,0.0,0.0,0.0,0.0,0.0,0.0,0.0,0.0,0.0,0.0,0.0,0.0,0.0,0.0,0.0,0.0,0.0,0.0,0.0,0.0,0.0,0.0,0.0,0.0,0.0,0.0,0.0,0.0,0.0,0.0,0.0,0.0,0.0,0.0,0.0,0.0,0.0,0.0,0.0,0.0,0.0,0.0,0.0,0.0,0.0,0.0,0.0,0.0,0.0,0.0,0.0,0.0,0.0,0.0,0.0,0.0,0.0,0.0,0.0,0.0,0.0,0.0,0.0,0.0,0.0,0.0,0.0,0.0,0.0,0.0,0.0,0.0,0.0,3.2043,3.1501,3.1501,0.0,0.0,0.0,0.0,0.0,0.0,0.0,0.0,0.0,0.0,0.0,0.0,0.0,0.0,0.0,0.0,0.0,0.0,0.0,0.0,0.0,0.0,0.0,0.0,0.0,0.0,0.0,0.0,0.0,0.0,0.0,0.0,0.0,0.0,0.0,0.0,0.0,0.0,0.0,0.0,0.0,0.0,0.0,0.0,0.0,0.0,0.0,0.0,0.0,0.0,0.0,0.0,0.0,0.0,0.0,0.0,0.0,0.0,0.0,0.0,0.0,0.0,0.0,0.0,0.0,0.0,0.0,0.0,0.0,0.0,0.0,0.0,0.0,0.0,0.0,0.0,0.0,0.0,0.0,0.0,0.0,0.0,0.0,0.0,0.0,0.0,0.0,0.0,0.0,0.0,0.0,0.0,0.0,0.0,0.0,0.0,0.0,0.0,0.0,0.0,0.0,0.0,0.0,0.0,0.0,0.0,0.0,0.0,0.0,0.0,3.4075,3.5382,3.3454,0.0,3.2366,0.0,0.0,0.0,0.0,0.0,0.0,0.0,0.0,0.0,0.0,0.0,0.0,0.0,0.0,0.0,0.0,0.0,0.0,0.0,0.0,0.0,0.0,0.0,0.0,0.0,0.0,0.0,0.0,0.0,0.0,0.0,0.0,0.0,0.0,0.0,0.0,0.0,0.0,0.0,0.0,0.0,0.0,0.0,0.0,0.0,0.0,0.0,0.0,0.0,0.0,0.0,0.0,0.0,0.0,0.0,0.0,0.0,0.0,0.0,0.0,0.0,0.0,0.0,0.0,0.0,0.0,0.0,0.0,0.0,0.0,0.0,0.0,0.0,0.0,0.0,0.0,0.0,0.0,0.0,0.0,0.0,0.0,0.0,0.0,0.0,0.0,0.0,0.0,0.0,0.0,0.0,0.0,0.0,0.0,0.0,0.0,0.0,0.0,0.0,0.0,0.0,0.0,0.0,0.0,0.0,0.0,0.0,0.0,0.0,0.0,3.4891,3.5543,3.382,3.2705,0.0,0.0,0.0,0.0,0.0,0.0,0.0,0.0,0.0,0.0,0.0,0.0,0.0,0.0,0.0,0.0,0.0,0.0,0.0,0.0,0.0,0.0,0.0,0.0,0.0,0.0,0.0,0.0,0.0,0.0,0.0,0.0,0.0,0.0,0.0,0.0,0.0,0.0,0.0,0.0,0.0,0.0,0.0,0.0,0.0,0.0,0.0,0.0,0.0,0.0,0.0,0.0,0.0,0.0,0.0,0.0,0.0,0.0,0.0,0.0,0.0,0.0,0.0,0.0,0.0,0.0,0.0,0.0,0.0,0.0,0.0,0.0,0.0,0.0,0.0,0.0,0.0,0.0,0.0,0.0,0.0,0.0,0.0,0.0,0.0,0.0,0.0,0.0,0.0,0.0,0.0,0.0,0.0,0.0,0.0,0.0,0.0,0.0,0.0,0.0,0.0,0.0,0.0,0.0,0.0,0.0,0.0,0.0,0.0,0.0,3.5597,3.5441,3.5419,3.4442,3.3474,3.2562,0.0,0.0,0.0,0.0,0.0,0.0,0.0,0.0,0.0,0.0,0.0,0.0,0.0,0.0,0.0,0.0,0.0,0.0,0.0,0.0,0.0,0.0,0.0,0.0,0.0,0.0,0.0,0.0,0.0,0.0,0.0,0.0,0.0,0.0,0.0,0.0,0.0,0.0,0.0,0.0,0.0,0.0,0.0,0.0,0.0,0.0,0.0,0.0,0.0,0.0,0.0,0.0,0.0,0.0,0.0,0.0,0.0,0.0,0.0,0.0,0.0,0.0,0.0,0.0,0.0,0.0,0.0,0.0,0.0,0.0,0.0,0.0,0.0,0.0,0.0,0.0,0.0,0.0,0.0,0.0,0.0,0.0,0.0,0.0,0.0,0.0,0.0,0.0,0.0,0.0,0.0,0.0,0.0,0.0,0.0,0.0,0.0,0.0,0.0,0.0,0.0,0.0,0.0,0.0,0.0,0.0,0.0,0.0,3.7282,3.6088,3.5487,3.5611,3.5677,3.5009,0.0,0.0,0.0,0.0,0.0,0.0,0.0,0.0,0.0,0.0,0.0,0.0,0.0,0.0,0.0,0.0,0.0,0.0,0.0,0.0,0.0,0.0,0.0,0.0,0.0,0.0,0.0,0.0,0.0,0.0,0.0,0.0,0.0,0.0,0.0,0.0,0.0,0.0,0.0,0.0,0.0,0.0,0.0,0.0,0.0,0.0,0.0,0.0,0.0,0.0,0.0,0.0,0.0,0.0,0.0,0.0,0.0,0.0,0.0,0.0,0.0,0.0,0.0,0.0,0.0,0.0,0.0,0.0,0.0,0.0,0.0,0.0,0.0,0.0,0.0,0.0,0.0,0.0,0.0,0.0,0.0,0.0,0.0,0.0,0.0,0.0,0.0,0.0,0.0,0.0,0.0,0.0,0.0,0.0,0.0,0.0,0.0,0.0,0.0,0.0,0.0,0.0,0.0,0.0,0.0,0.0,0.0,0.0,0.0,3.5933,3.59,3.6148,3.663,3.59,3.5217,0.0,0.0,0.0,0.0,0.0,0.0,0.0,0.0,0.0,0.0,0.0,0.0,0.0,0.0,0.0,0.0,0.0,0.0,0.0,0.0,0.0,0.0,0.0,0.0,0.0,0.0,0.0,0.0,0.0,0.0,0.0,0.0,0.0,0.0,0.0,0.0,0.0,0.0,0.0,0.0,0.0,0.0,0.0,0.0,0.0,0.0,0.0,0.0,0.0,0.0,0.0,0.0,0.0,0.0,0.0,0.0,0.0,0.0,0.0,0.0,0.0,0.0,0.0,0.0,0.0,0.0,0.0,0.0,0.0,0.0,0.0,0.0,0.0,0.0,0.0,0.0,0.0,0.0,0.0,0.0,0.0,0.0,0.0,0.0,0.0,0.0,0.0,0.0,0.0,0.0,0.0,0.0,0.0,0.0,0.0,0.0,0.0,0.0,0.0,0.0,0.0,0.0,0.0,0.0,0.0,0.0,0.0,0.0,0.0,3.5804,0.0,3.7135,0.0,3.631,3.553,0.0,0.0,0.0,0.0,0.0,0.0,0.0,0.0,0.0,0.0,0.0,0.0,0.0,0.0,0.0,0.0,0.0,0.0,0.0,0.0,0.0,0.0,0.0,0.0,0.0,0.0,0.0,0.0,0.0,0.0,0.0,0.0,0.0,0.0,0.0,0.0,0.0,0.0,0.0,0.0,0.0,0.0,0.0,0.0,0.0,0.0,0.0,0.0,0.0,0.0,0.0,0.0,0.0,0.0,0.0,0.0,0.0,0.0,0.0,0.0,0.0,0.0,0.0,0.0,0.0,0.0,0.0,0.0,0.0,0.0,0.0,0.0,0.0,0.0,0.0,0.0,0.0,0.0,0.0,0.0,0.0,0.0,0.0,0.0,0.0,0.0,0.0,0.0,0.0,0.0,0.0,0.0,0.0,0.0,0.0,0.0,0.0,0.0,0.0,0.0,0.0,0.0,0.0,0.0,0.0,0.0,0.0,0.0,3.6047,3.727,3.8254,3.8405,3.7601,3.7071,3.6096,0.0,0.0,0.0,0.0,0.0,0.0,0.0,0.0,0.0,0.0,0.0,0.0,0.0,0.0,0.0,0.0,0.0,0.0,0.0,0.0,0.0,0.0,0.0,0.0,0.0,0.0,0.0,0.0,0.0,0.0,0.0,0.0,0.0,0.0,0.0,0.0,0.0,0.0,0.0,0.0,0.0,0.0,0.0,0.0,0.0,0.0,0.0,0.0,0.0,0.0,0.0,0.0,0.0,0.0,0.0,0.0,0.0,0.0,0.0,0.0,0.0,0.0,0.0,0.0,0.0,0.0,0.0,0.0,0.0,0.0,0.0,0.0,0.0,0.0,0.0,0.0,0.0,0.0,0.0,0.0,0.0,0.0,0.0,0.0,0.0,0.0,0.0,0.0,0.0,0.0,0.0,0.0,0.0,0.0,0.0,0.0,0.0,0.0,0.0,0.0,0.0,0.0,0.0,0.0,0.0,0.0,0.0,0.0,0.0,3.8069,3.8974,3.958,3.9833,3.8317,3.7455,0.0,0.0,0.0,0.0,0.0,0.0,0.0,0.0,0.0,0.0,0.0,0.0,0.0,0.0,0.0,0.0,0.0,0.0,0.0,0.0,0.0,0.0,0.0,0.0,0.0,0.0,0.0,0.0,0.0,0.0,0.0,0.0,0.0,0.0,0.0,0.0,0.0,0.0,0.0,0.0,0.0,0.0,0.0,0.0,0.0,0.0,0.0,0.0,0.0,0.0,0.0,0.0,0.0,0.0,0.0,0.0,0.0,0.0,0.0,0.0,0.0,0.0,0.0,0.0,0.0,0.0,0.0,0.0,0.0,0.0,0.0,0.0,0.0,0.0,0.0,0.0,0.0,0.0,0.0,0.0,0.0,0.0,0.0,0.0,0.0,0.0,0.0,0.0,0.0,0.0,0.0,0.0,0.0,0.0,0.0,0.0,0.0,0.0,0.0,0.0,0.0,0.0,0.0,0.0,0.0,0.0,0.0,0.0,0.0,4.131,4.1297,4.1439,4.1802,4.0187,3.8958,3.8159,0.0,0.0,0.0,0.0,0.0,0.0,0.0,0.0,0.0,0.0,0.0,0.0,0.0,0.0,0.0,0.0,0.0,0.0,0.0,0.0,0.0,0.0,0.0,0.0,0.0,0.0,0.0,0.0,0.0,0.0,0.0,0.0,0.0,0.0,0.0,0.0,0.0,0.0,0.0,0.0,0.0,0.0,0.0,0.0,0.0,0.0,0.0,0.0,0.0,0.0,0.0,0.0,0.0,0.0,0.0,0.0,0.0,0.0,0.0,0.0,0.0,0.0,0.0,0.0,0.0,0.0,0.0,0.0,0.0,0.0,0.0,0.0,0.0,0.0,0.0,0.0,0.0,0.0,0.0,0.0,0.0,0.0,0.0,0.0,0.0,0.0,0.0,0.0,0.0,0.0,0.0,0.0,0.0,0.0,0.0,0.0,0.0,0.0,0.0,0.0,0.0,0.0,0.0,0.0,0.0,0.0,0.0,0.0,4.6401,4.5236,4.4289,4.3676,4.2745,4.0609,0.0,0.0,0.0,0.0,0.0,0.0,0.0,0.0,0.0,0.0,0.0,0.0,0.0,0.0,0.0,0.0,0.0,0.0,0.0,0.0,0.0,0.0,0.0,0.0,0.0,0.0,0.0,0.0,0.0,0.0,0.0,0.0,0.0,0.0,0.0,0.0,0.0,0.0,0.0,0.0,0.0,0.0,0.0,0.0,0.0,0.0,0.0,0.0,0.0,0.0,0.0,0.0,0.0,0.0,0.0,0.0,0.0,0.0,0.0,0.0,0.0,0.0,0.0,0.0,0.0,0.0,0.0,0.0,0.0,0.0,0.0,0.0,0.0,0.0,0.0,0.0,0.0,0.0,0.0,0.0,0.0,0.0,0.0,0.0,0.0,0.0,0.0,0.0,0.0,0.0,0.0,0.0,0.0,0.0,0.0,0.0,0.0,0.0,0.0,0.0,0.0,0.0,0.0,0.0,0.0,0.0,0.0,0.0,0.0,4.8158,5.0452,5.0584,4.8348,4.6065,4.3647,0.0,0.0,0.0,0.0,0.0,0.0,0.0,0.0,0.0,0.0,0.0,0.0,0.0,0.0,0.0,0.0,0.0,0.0,0.0,0.0,0.0,0.0,0.0,0.0,0.0,0.0,0.0,0.0,0.0,0.0,0.0,0.0,0.0,0.0,0.0,0.0,0.0,0.0,0.0,0.0,0.0,0.0,0.0,0.0,0.0,0.0,0.0,0.0,0.0,0.0,0.0,0.0,0.0,0.0,0.0,0.0,0.0,0.0,0.0,0.0,0.0,0.0,0.0,0.0,0.0,0.0,0.0,0.0,0.0,0.0,0.0,0.0,0.0,0.0,0.0,0.0,0.0,0.0,0.0,0.0,0.0,0.0,0.0,0.0,0.0,0.0,0.0,0.0,0.0,0.0,0.0,0.0,0.0,0.0,0.0,0.0,0.0,0.0,0.0,0.0,0.0,0.0,0.0,0.0,0.0,0.0,0.0,0.0,4.7603,5.0683,5.4262,5.5484,5.4125,5.0527,4.669,0.0,0.0,0.0,0.0,0.0,0.0,0.0,0.0,0.0,0.0,0.0,0.0,0.0,0.0,0.0,0.0,0.0,0.0,0.0,0.0,0.0,0.0,0.0,0.0,0.0,0.0,0.0,0.0,0.0,0.0,0.0,0.0,0.0,0.0,0.0,0.0,0.0,0.0,0.0,0.0,0.0,0.0,0.0,0.0,0.0,0.0,0.0,0.0,0.0,0.0,0.0,0.0,0.0,0.0,0.0,0.0,0.0,0.0,0.0,0.0,0.0,0.0,0.0,0.0,0.0,0.0,0.0,0.0,0.0,0.0,0.0,0.0,0.0,0.0,0.0,0.0,0.0,0.0,0.0,0.0,0.0,0.0,0.0,0.0,0.0,0.0,0.0,0.0,0.0,0.0,0.0,0.0,0.0,0.0,0.0,0.0,0.0,0.0,0.0,0.0,0.0,0.0,0.0,0.0,0.0,0.0,0.0,0.0,4.9614,5.3483,5.6949,5.9071,5.9724,5.5179,4.9644,0.0,0.0,0.0,0.0,0.0,0.0,0.0,0.0,0.0,0.0,0.0,0.0,0.0,0.0,0.0,0.0,0.0,0.0,0.0,0.0,0.0,0.0,0.0,0.0,0.0,0.0,0.0,0.0,0.0,0.0,0.0,0.0,0.0,0.0,0.0,0.0,0.0,0.0,0.0,0.0,0.0,0.0,0.0,0.0,0.0,0.0,0.0,0.0,0.0,0.0,0.0,0.0,0.0,0.0,0.0,0.0,0.0,0.0,0.0,0.0,0.0,0.0,0.0,0.0,0.0,0.0,0.0,0.0,0.0,0.0,0.0,0.0,0.0,0.0,0.0,0.0,0.0,0.0,0.0,0.0,0.0,0.0,0.0,0.0,0.0,0.0,0.0,0.0,0.0,0.0,0.0,0.0,0.0,0.0,0.0,0.0,0.0,0.0,0.0,0.0,0.0,0.0,0.0,0.0,0.0,0.0,0.0,0.0,5.1061,5.5177,5.8409,6.0608,6.18,5.6576,5.1629,0.0,0.0,0.0,0.0,0.0,0.0,0.0,0.0,0.0,0.0,0.0,0.0,0.0,0.0,0.0,0.0,0.0,0.0,0.0,0.0,0.0,0.0,0.0,0.0,0.0,0.0,0.0,0.0,0.0,0.0,0.0,0.0,0.0,0.0,0.0,0.0,0.0,0.0,0.0,0.0,0.0,0.0,0.0,0.0,0.0,0.0,0.0,0.0,3.832,0.0,0.0,0.0,0.0,0.0,0.0,0.0,0.0,0.0,0.0,0.0,0.0,0.0,0.0,0.0,0.0,0.0,0.0,0.0,0.0,0.0,0.0,0.0,0.0,0.0,0.0,0.0,0.0,0.0,0.0,0.0,0.0,0.0,0.0,0.0,0.0,0.0,0.0,0.0,0.0,0.0,0.0,0.0,0.0,0.0,0.0,0.0,0.0,0.0,0.0,0.0,0.0,0.0,0.0,0.0,0.0,0.0,0.0,0.0,5.2168,5.6701,5.9525,6.1599,6.2806,5.8978,5.4487,0.0,0.0,0.0,0.0,0.0,0.0,0.0,0.0,0.0,0.0,0.0,0.0,0.0,0.0,0.0,0.0,0.0,0.0,0.0,0.0,0.0,0.0,0.0,0.0,0.0,0.0,0.0,0.0,0.0,0.0,0.0,0.0,0.0,0.0,0.0,0.0,0.0,0.0,0.0,0.0,0.0,0.0,0.0,0.0,0.0,0.0,0.0,0.0,0.0,0.0,0.0,0.0,0.0,0.0,0.0,0.0,0.0,0.0,0.0,0.0,0.0,0.0,0.0,0.0,0.0,0.0,0.0,0.0,0.0,0.0,0.0,0.0,0.0,0.0,0.0,0.0,0.0,0.0,0.0,0.0,0.0,0.0,0.0,0.0,0.0,0.0,0.0,0.0,0.0,0.0,0.0,0.0,0.0,0.0,0.0,0.0,0.0,0.0,0.0,0.0,0.0,0.0,0.0,0.0,0.0,0.0,0.0,4.9892,5.3442,5.8327,6.0578,6.2275,6.3703,6.1387,5.7329,5.1473,0.0,0.0,0.0,0.0,0.0,0.0,0.0,0.0,0.0,0.0,0.0,0.0,0.0,0.0,0.0,0.0,0.0,0.0,0.0,0.0,0.0,0.0,0.0,0.0,0.0,0.0,0.0,0.0,0.0,0.0,0.0,0.0,0.0,0.0,0.0,0.0,0.0,0.0,3.5994,3.7274,0.0,0.0,0.0,0.0,0.0,0.0,0.0,0.0,3.8851,0.0,0.0,0.0,0.0,0.0,0.0,0.0,0.0,0.0,0.0,0.0,0.0,0.0,0.0,0.0,0.0,0.0,0.0,0.0,0.0,0.0,0.0,0.0,0.0,0.0,0.0,0.0,0.0,0.0,0.0,0.0,0.0,0.0,0.0,0.0,0.0,0.0,0.0,0.0,0.0,0.0,0.0,0.0,0.0,0.0,0.0,0.0,0.0,0.0,0.0,0.0,0.0,0.0,0.0,0.0,0.0,5.1413,5.269,5.5655,6.052,6.1714,6.2983,6.4353,6.2178,5.8599,5.3699,0.0,0.0,0.0,0.0,0.0,0.0,0.0,0.0,0.0,0.0,0.0,0.0,0.0,0.0,0.0,0.0,0.0,0.0,0.0,0.0,0.0,0.0,0.0,0.0,0.0,0.0,0.0,0.0,0.0,0.0,0.0,0.0,0.0,0.0,0.0,0.0,0.0,0.0,0.0,4.0193,4.0689,0.0,0.0,0.0,0.0,0.0,0.0,0.0,0.0,4.0121,0.0,0.0,0.0,0.0,0.0,0.0,0.0,0.0,0.0,0.0,0.0,0.0,0.0,0.0,0.0,0.0,0.0,0.0,0.0,0.0,0.0,0.0,0.0,0.0,0.0,0.0,0.0,0.0,0.0,0.0,0.0,0.0,0.0,0.0,0.0,0.0,0.0,0.0,0.0,0.0,0.0,0.0,0.0,0.0,0.0,0.0,0.0,0.0,0.0,0.0,0.0,0.0,0.0,0.0,0.0,5.1545,5.3379,5.6612,6.1603,6.255,6.3767,6.5186,6.1834,5.7947,0.0,0.0,0.0,0.0,0.0,0.0,0.0,0.0,0.0,0.0,0.0,0.0,0.0,0.0,0.0,0.0,0.0,0.0,0.0,0.0,0.0,0.0,0.0,0.0,0.0,0.0,0.0,0.0,0.0,0.0,0.0,0.0,0.0,0.0,0.0,0.0,0.0,0.0,0.0,0.0,4.1358,4.2098,4.3436,0.0,0.0,0.0,0.0,0.0,0.0,4.1304,4.1609,0.0,0.0,0.0,0.0,0.0,0.0,0.0,0.0,0.0,0.0,0.0,0.0,0.0,0.0,0.0,0.0,0.0,0.0,0.0,0.0,0.0,0.0,0.0,0.0,0.0,0.0,0.0,0.0,0.0,0.0,0.0,0.0,0.0,0.0,0.0,0.0,0.0,0.0,0.0,0.0,0.0,0.0,0.0,0.0,0.0,0.0,0.0,0.0,0.0,0.0,0.0,0.0,0.0,0.0,0.0,5.1413,5.4409,5.8093,6.2415,6.3679,6.4824,6.6014,6.1697,5.7466,0.0,0.0,0.0,0.0,0.0,0.0,0.0,0.0,0.0,0.0,0.0,0.0,0.0,0.0,0.0,0.0,0.0,0.0,0.0,0.0,0.0,0.0,0.0,0.0,0.0,0.0,0.0,0.0,0.0,0.0,0.0,0.0,0.0,0.0,0.0,0.0,0.0,0.0,0.0,0.0,0.0,4.3687,4.5102,4.4669,0.0,0.0,0.0,0.0,4.1576,4.3093,0.0,0.0,0.0,0.0,0.0,0.0,0.0,0.0,0.0,0.0,0.0,0.0,0.0,0.0,0.0,0.0,0.0,0.0,0.0,0.0,0.0,0.0,0.0,0.0,0.0,0.0,0.0,0.0,0.0,0.0,0.0,0.0,0.0,0.0,0.0,0.0,0.0,0.0,0.0,0.0,0.0,0.0,0.0,0.0,0.0,0.0,0.0,0.0,0.0,0.0,0.0,0.0,0.0,0.0,0.0,0.0,5.2345,5.7842,6.1559,6.3328,6.5603,6.6826,6.6842,6.2787,5.8836,0.0,0.0,0.0,0.0,0.0,0.0,0.0,0.0,0.0,0.0,0.0,0.0,0.0,0.0,0.0,0.0,0.0,0.0,0.0,0.0,0.0,0.0,0.0,0.0,0.0,0.0,0.0,0.0,0.0,0.0,0.0,0.0,0.0,0.0,0.0,0.0,0.0,0.0,0.0,0.0,0.0,4.6343,4.6551,4.6587,4.5854,0.0,0.0,4.4799,4.4139,4.6712,0.0,0.0,0.0,0.0,0.0,0.0,0.0,0.0,0.0,0.0,0.0,0.0,0.0,0.0,0.0,0.0,0.0,0.0,0.0,0.0,0.0,0.0,0.0,0.0,0.0,0.0,0.0,0.0,0.0,0.0,0.0,0.0,0.0,0.0,0.0,0.0,0.0,0.0,0.0,0.0,0.0,0.0,0.0,0.0,0.0,0.0,0.0,0.0,0.0,0.0,0.0,0.0,0.0,0.0,0.0,4.9824,5.2511,5.7582,6.1492,6.4038,6.6113,6.7544,6.829,6.2238,5.8015,0.0,0.0,0.0,0.0,0.0,0.0,0.0,0.0,0.0,0.0,0.0,0.0,0.0,0.0,0.0,0.0,0.0,0.0,0.0,0.0,0.0,0.0,0.0,0.0,0.0,0.0,0.0,0.0,0.0,0.0,0.0,0.0,0.0,0.0,0.0,0.0,0.0,0.0,0.0,0.0,0.0,0.0,4.8258,4.8711,0.0,0.0,0.0,4.7632,4.6905,0.0,0.0,0.0,0.0,0.0,0.0,0.0,0.0,0.0,0.0,0.0,0.0,0.0,0.0,0.0,0.0,0.0,0.0,0.0,0.0,0.0,0.0,0.0,0.0,0.0,0.0,0.0,0.0,0.0,0.0,0.0,0.0,0.0,0.0,0.0,0.0,0.0,0.0,0.0,0.0,0.0,0.0,0.0,0.0,0.0,0.0,0.0,0.0,0.0,0.0,0.0,0.0,0.0,0.0,0.0,0.0,0.0,5.2782,5.742,6.1635,6.5135,6.6942,6.8412,6.9428,6.3068,0.0,0.0,0.0,0.0,0.0,0.0,0.0,0.0,0.0,0.0,0.0,0.0,0.0,0.0,0.0,0.0,0.0,0.0,0.0,0.0,0.0,0.0,0.0,0.0,0.0,0.0,0.0,3.2288,0.0,0.0,0.0,0.0,0.0,0.0,0.0,0.0,0.0,0.0,0.0,0.0,0.0,0.0,4.9323,4.9955,5.0962,5.1486,0.0,0.0,5.0453,4.9995,5.1811,5.2197,0.0,0.0,0.0,0.0,0.0,0.0,0.0,0.0,0.0,0.0,0.0,0.0,0.0,0.0,0.0,0.0,0.0,0.0,0.0,0.0,0.0,0.0,0.0,0.0,0.0,0.0,0.0,0.0,0.0,0.0,0.0,0.0,0.0,0.0,0.0,0.0,0.0,0.0,0.0,0.0,0.0,0.0,0.0,0.0,0.0,0.0,0.0,0.0,0.0,0.0,0.0,0.0,0.0,0.0,0.0,5.3975,5.8964,6.3309,6.6908,6.8724,6.9879,7.0256,6.6927,6.2959,0.0,0.0,0.0,0.0,0.0,0.0,0.0,0.0,0.0,0.0,0.0,0.0,0.0,0.0,0.0,0.0,0.0,0.0,0.0,0.0,0.0,0.0,0.0,0.0,0.0,0.0,0.0,0.0,0.0,0.0,0.0,0.0,0.0,0.0,0.0,0.0,0.0,0.0,0.0,0.0,0.0,5.1486,5.1486,5.3345,5.4919,0.0,0.0,5.3133,5.3478,5.613,5.6454,5.1173,0.0,0.0,0.0,0.0,0.0,0.0,0.0,0.0,0.0,0.0,0.0,0.0,0.0,0.0,0.0,0.0,0.0,0.0,0.0,0.0,0.0,0.0,0.0,0.0,0.0,0.0,0.0,0.0,0.0,0.0,0.0,0.0,0.0,0.0,0.0,0.0,0.0,0.0,0.0,0.0,0.0,0.0,0.0,0.0,0.0,0.0,0.0,0.0,0.0,0.0,0.0,0.0,0.0,5.1497,5.4186,5.9448,6.3882,6.7291,6.9111,7.0354,7.105,6.7546,6.3611,0.0,0.0,0.0,0.0,0.0,0.0,0.0,0.0,0.0,0.0,0.0,0.0,0.0,0.0,0.0,0.0,0.0,0.0,0.0,0.0,0.0,0.0,0.0,0.0,0.0,0.0,0.0,0.0,3.4658,3.4831,3.555,0.0,0.0,0.0,0.0,0.0,0.0,0.0,0.0,0.0,0.0,5.2971,5.4055,5.5777,0.0,0.0,5.6799,5.6227,5.547,5.6545,5.6224,5.2442,5.0068,0.0,0.0,0.0,0.0,0.0,0.0,0.0,0.0,0.0,0.0,0.0,0.0,0.0,0.0,0.0,0.0,0.0,0.0,0.0,0.0,0.0,0.0,0.0,0.0,0.0,0.0,0.0,0.0,0.0,0.0,0.0,0.0,0.0,0.0,0.0,0.0,0.0,0.0,0.0,0.0,0.0,0.0,0.0,0.0,0.0,0.0,0.0,0.0,0.0,0.0,0.0,0.0,5.2102,5.4732,5.981,6.4245,6.809,6.9433,7.0712,7.1739,6.8969,6.5405,0.0,0.0,0.0,0.0,0.0,0.0,0.0,0.0,0.0,0.0,0.0,0.0,0.0,0.0,0.0,0.0,0.0,0.0,0.0,0.0,0.0,0.0,0.0,0.0,0.0,0.0,0.0,0.0,3.567,3.5734,3.6416,0.0,0.0,0.0,0.0,0.0,0.0,0.0,0.0,0.0,0.0,5.4582,5.5543,5.7011,5.8033,5.8033,5.7671,5.7114,5.6567,5.6814,5.6187,5.3564,0.0,0.0,0.0,0.0,0.0,0.0,0.0,0.0,0.0,0.0,0.0,0.0,0.0,0.0,0.0,0.0,0.0,0.0,0.0,0.0,0.0,0.0,0.0,0.0,0.0,0.0,0.0,0.0,0.0,0.0,4.3188,0.0,0.0,0.0,0.0,0.0,0.0,0.0,0.0,0.0,0.0,0.0,0.0,0.0,0.0,0.0,0.0,0.0,0.0,0.0,0.0,0.0,0.0,5.2505,5.5683,6.019,6.4835,6.9525,6.9982,7.0953,7.2533,7.1774,6.9141,6.4408,0.0,0.0,0.0,0.0,0.0,0.0,0.0,0.0,0.0,0.0,0.0,0.0,0.0,0.0,0.0,0.0,0.0,0.0,0.0,0.0,0.0,0.0,0.0,0.0,0.0,0.0,3.4495,3.4955,3.5758,0.0,0.0,0.0,0.0,0.0,0.0,0.0,0.0,0.0,0.0,5.3212,5.6517,5.5459,5.6711,5.7851,5.7851,5.6023,5.5155,5.6857,5.7397,5.6868,0.0,0.0,0.0,0.0,0.0,0.0,0.0,0.0,0.0,0.0,0.0,0.0,0.0,0.0,0.0,0.0,0.0,0.0,0.0,0.0,0.0,0.0,0.0,0.0,0.0,0.0,0.0,4.6023,4.6023,0.0,0.0,0.0,0.0,0.0,0.0,0.0,0.0,0.0,0.0,0.0,5.1596,5.2193,0.0,0.0,0.0,0.0,0.0,0.0,0.0,0.0,0.0,0.0,0.0,0.0,5.3347,5.6028,6.1593,6.6337,6.9879,7.0712,7.1518,7.2636,7.1912,6.9038,6.3893,0.0,0.0,0.0,0.0,0.0,0.0,0.0,0.0,0.0,0.0,0.0,0.0,0.0,0.0,0.0,0.0,0.0,0.0,0.0,0.0,0.0,0.0,0.0,0.0,0.0,3.818,0.0,0.0,0.0,0.0,0.0,0.0,0.0,0.0,0.0,0.0,0.0,4.7108,4.9643,5.2467,5.4536,5.5332,5.6892,5.8386,0.0,0.0,0.0,0.0,0.0,0.0,0.0,0.0,0.0,0.0,0.0,0.0,0.0,0.0,5.1528,4.8027,4.8061,4.8598,4.8598,0.0,0.0,0.0,0.0,0.0,0.0,0.0,0.0,0.0,0.0,0.0,0.0,0.0,0.0,4.8312,0.0,4.847,0.0,0.0,0.0,0.0,0.0,0.0,0.0,0.0,5.1787,5.3759,5.5174,5.562,5.586,0.0,5.4737,5.2397,0.0,0.0,0.0,0.0,0.0,0.0,0.0,0.0,5.3717,5.6166,6.2255,6.701,6.9928,7.1036,7.1877,7.2636,7.167,6.9256,6.5138,6.0389,5.64,0.0,0.0,0.0,0.0,0.0,0.0,0.0,0.0,0.0,0.0,0.0,0.0,0.0,0.0,0.0,0.0,0.0,0.0,0.0,0.0,0.0,0.0,0.0,3.9721,0.0,0.0,0.0,0.0,0.0,0.0,0.0,0.0,0.0,4.5939,4.73,4.9221,5.1771,5.3822,5.5062,5.4933,0.0,0.0,0.0,0.0,0.0,0.0,0.0,5.6577,5.5836,5.5328,5.5437,5.6878,5.7263,5.7113,5.6201,0.0,0.0,5.1287,5.1045,5.1637,5.1545,5.1419,5.1617,5.2666,5.2857,5.2902,0.0,0.0,0.0,0.0,0.0,0.0,0.0,0.0,4.9375,5.0432,0.0,5.0726,0.0,0.0,0.0,0.0,0.0,5.1095,0.0,0.0,5.6131,5.7755,5.7462,5.7355,5.7552,5.8017,5.7484,5.6738,5.5683,5.1555,0.0,0.0,0.0,0.0,0.0,0.0,5.3686,5.6336,6.2351,6.6919,6.9962,7.107,7.1912,7.2602,7.1222,6.9704,6.8083,6.4531,6.1256,5.8183,5.3645,0.0,0.0,0.0,0.0,0.0,0.0,0.0,0.0,0.0,0.0,0.0,0.0,0.0,0.0,0.0,0.0,0.0,0.0,0.0,0.0,4.0516,0.0,0.0,0.0,0.0,0.0,0.0,0.0,0.0,0.0,0.0,4.8486,4.9853,5.1771,5.402,0.0,0.0,0.0,0.0,5.8482,5.5837,5.5609,5.6234,5.7007,5.8686,5.9905,5.9858,0.0,0.0,6.1839,5.9869,5.8304,5.7298,5.861,5.8625,5.5663,5.4914,5.4705,5.4589,5.4604,5.4538,5.4645,5.5023,5.4811,5.9659,0.0,0.0,0.0,0.0,5.2172,5.2943,5.3547,5.4647,5.5056,5.5081,5.4552,0.0,0.0,0.0,0.0,0.0,0.0,5.4686,5.6577,5.8825,6.0476,6.1757,6.2188,6.2212,6.1873,6.1206,6.0766,6.0385,5.8084,5.4938,5.1082,0.0,0.0,0.0,0.0,5.6508,5.9332,6.453,6.8189,7.0031,7.1587,7.2429,7.2671,7.1705,7.0463,6.898,6.7184,6.4343,6.06,5.7794,0.0,0.0,0.0,0.0,0.0,0.0,0.0,0.0,0.0,0.0,0.0,0.0,0.0,0.0,0.0,0.0,0.0,0.0,0.0,4.3235,4.2694,4.2154,0.0,0.0,0.0,0.0,0.0,0.0,0.0,0.0,0.0,5.3892,5.2415,5.1882,0.0,0.0,5.4105,5.361,5.6641,5.9362,6.0218,6.153,0.0,6.4427,6.3676,6.3137,6.3605,6.5189,6.6002,6.4936,6.4986,6.4896,6.3971,6.3925,6.3456,6.1969,6.0124,5.9075,5.8914,5.895,5.9511,6.086,6.1235,6.1523,6.465,6.0289,5.8932,5.73,5.5686,5.6482,5.7288,5.7877,5.8562,5.8871,5.9078,5.8416,5.7328,5.5878,5.4948,0.0,0.0,0.0,5.7636,6.0007,6.1537,6.3114,6.4783,6.529,6.5256,6.4783,6.4038,6.3565,6.326,6.1738,5.9438,5.6292,0.0,0.0,5.3078,5.603,5.8726,6.1183,6.5945,6.8991,7.023,7.1794,7.2671,7.2671,7.2222,7.1394,7.0187,6.8942,6.6872,6.385,6.1086,5.8175,0.0,0.0,0.0,0.0,0.0,0.0,0.0,0.0,0.0,0.0,0.0,4.2003,4.1739,0.0,0.0,0.0,4.432,4.4629,4.4629,4.4044,0.0,0.0,0.0,0.0,0.0,0.0,0.0,4.8553,5.143,5.4499,5.7208,5.5994,5.5453,5.7202,5.7149,5.6962,5.701,0.0,6.244,6.3851,6.5039,6.6266,6.7575,6.7149,6.6865,6.7781,6.8261,6.8378,6.7851,6.8136,6.8211,6.78,6.7135,6.6613,6.6431,6.4887,6.3418,6.2783,6.2891,6.361,6.519,6.5455,6.5887,6.8739,6.7049,6.3892,6.1813,6.0599,6.0563,6.128,6.2221,6.1605,6.2158,6.3289,6.2217,6.1211,6.0392,5.8323,0.0,5.9074,5.9579,6.0891,6.2854,6.4174,6.5561,6.6981,6.7015,6.6981,6.6981,6.6305,6.5628,6.4952,6.3599,6.3001,6.29,5.9478,5.7277,5.6427,5.8647,6.0671,6.2392,6.6793,6.9611,7.0567,7.1946,7.2671,7.2671,7.2671,7.2291,7.1498,7.0187,6.8818,6.7315,6.3703,6.0942,5.9323,0.0,0.0,0.0,0.0,0.0,0.0,0.0,0.0,0.0,0.0,0.0,0.0,0.0,0.0,0.0,4.5768,0.0,4.5768,4.5042,0.0,0.0,0.0,4.8785,5.0558,5.2298,5.3392,5.3484,0.0,0.0,5.9311,6.0199,6.1418,6.3463,6.3931,6.3801,6.2833,6.5035,6.6901,6.6772,6.7085,6.7575,6.8851,6.9845,7.0873,7.1684,7.1502,7.0913,7.031,6.9616,6.9245,6.9249,6.8633,6.8331,6.9213,6.85,6.7728,6.6089,6.6247,6.6933,6.7692,6.7786,6.7914,7.1808,7.036,6.9543,6.729,6.4339,6.4889,6.5181,6.5402,6.5778,6.5733,6.5369,6.4911,6.3916,6.2459,6.1951,6.2188,6.3148,6.2775,6.4017,6.6508,6.6373,6.7083,6.8538,6.8538,6.8538,6.8538,6.8368,6.8199,6.803,6.7828,6.7709,6.7641,6.6412,6.4166,6.1265,6.2522,6.4324,6.6347,6.8819,7.0774,7.2084,7.2498,7.2671,7.2671,7.2671,7.2291,7.1532,7.1317,7.0257,6.8258,6.6844,6.452,6.119,5.8423,0.0,0.0,0.0,0.0,0.0,0.0,0.0,0.0,0.0,4.4096,4.468,0.0,4.782,0.0,4.885,4.8907,4.8907,4.8678,0.0,0.0,5.0633,5.1789,5.2855,5.5129,5.6606,5.6641,5.8193,6.0423,6.3548,6.4539,6.6159,6.9094,6.627,6.389,6.4245,6.7262,6.9631,7.0202,7.2011,7.3649,7.3651,7.4187,7.4293,7.4003,7.3888,7.3447,7.2142,7.1368,7.0707,7.0191,6.9552,6.9153,6.9237,6.9624,6.9806,6.9285,6.8862,6.879,6.955,6.973,6.9885,7.3809,7.3015,7.3015,7.1725,6.9645,6.8751,6.8464,6.8692,6.876,6.8473,6.7851,6.718,6.6321,6.5294,6.4956,6.5309,6.6,6.5745,6.6709,6.854,6.8591,6.9118,6.9934,7.0274,7.0153,6.9727,6.9848,6.9678,6.9252,6.9476,6.9561,6.9561,6.937,6.8138,6.6075,6.6313,6.725,6.8795,7.0209,7.1463,7.2636,7.2671,7.2671,7.2671,7.2671,7.2464,7.205,7.1753,7.1075,6.9831,6.8492,6.6699,6.4092,6.15,5.8839,0.0,0.0,0.0,0.0,0.0,0.0,0.0,0.0,0.0,0.0,0.0,5.1064,5.1787,5.2165,5.2372,5.2372,5.2344,5.2922,5.4391,5.5444,5.6709,5.8298,5.9943,6.1114,6.1436,6.2788,6.4711,6.722,6.835,6.9732,7.2081,7.0445,6.9029,6.9138,7.0909,7.2508,7.3261,7.4725,7.5798,7.5798,7.5798,7.551,7.4893,7.4676,7.4348,7.329,7.2452,7.1865,7.1458,7.0604,7.0072,7.0314,7.0738,7.1174,7.1475,7.1448,7.1205,7.0915,7.0879,7.0961,7.5085,7.5085,7.4981,7.4981,7.4878,7.2119,7.1325,7.1877,7.1256,7.0898,7.0614,6.9543,6.8795,6.8387,6.7658,6.7692,6.8199,6.8354,6.888,6.9662,7.0533,7.0926,7.1063,7.1678,7.1591,7.0871,7.1079,7.0806,7.0054,7.0345,7.0362,7.0259,7.0427,7.0526,7.0423,6.9804,6.9804,7.0457,7.1243,7.1981,7.2636,7.2671,7.2671,7.2671,7.2671,7.2671,7.2671,7.2015,7.1567,7.1429,6.9601,6.8083,6.7152,6.4531,6.2013,0.0,5.7327,0.0,0.0,0.0,0.0,0.0,0.0,0.0,0.0,5.3253,5.4598,5.5322,5.5847,5.6159,5.6159,5.6129,5.7329,6.022,6.1085,6.2266,6.4566,6.5409,6.6039,6.6919,6.7798,6.8996,7.0345,7.1618,7.2541,7.3221,7.4364,7.4757,7.4616,7.4614,7.5079,7.587,7.594,7.5937,7.5868,7.5868,7.5685,7.5137,7.4961,7.4636,7.4145,7.3392,7.2821,7.2698,7.1765,7.1137,7.1791,7.1863,7.2045,7.2517,7.308,7.3233,7.2219,7.1893,7.1693,7.5966,7.6071,7.5448,7.5552,7.6002,7.486,7.4325,7.4292,7.4119,7.3912,7.3738,7.3071,7.2144,7.0968,7.0622,7.0195,6.9722,6.9372,6.99,7.1158,7.1011,7.1234,7.178,7.1917,7.2224,7.2546,7.2668,7.2942,7.3386,7.3563,7.3342,7.2793,7.2983,7.2758,7.2257,0.0,0.0,0.0,7.2395,7.2533,7.2671,7.2671,7.2671,7.2671,7.2671,0.0,7.2671,7.2533,7.2153,7.1532,7.1084,0.0,0.0,0.0,0.0,0.0,0.0,0.0,0.0,0.0,0.0,0.0,5.7288,5.646,5.5012,5.7288,5.9219,5.9944,6.0151,6.015,6.015,6.077,6.1597,6.2841,6.4749,6.6456,6.7572,6.8948,7.0182,7.107,7.1211,7.1544,7.2578,7.3404,7.3902,7.4081,7.515,7.5862,7.5685,7.6223,7.6692,7.6872,7.6541,7.6212,7.6208,7.6176,7.6104,7.6027,7.5991,7.5665,7.4977,7.4688,7.4326,7.3812,7.2907,7.2355,7.2536,7.2572,7.2463,7.192,7.2943,7.3812,7.3523,7.332,7.329,7.7544,0.0,7.6834,7.6643,0.0,7.6608,7.6468,7.6568,7.5135,7.4738,7.5097,7.4556,7.3741,7.2969,7.2846,7.2348,7.16,7.1488,7.1814,7.2498,7.2416,7.2708,7.3429,7.3429,7.3548,7.3837,7.3925,7.4131,7.4419,7.4684,7.4566,7.4222,7.4274,7.4154,7.3809,7.3809,7.3429,7.2671,7.305,7.3222,7.3222,7.3602,7.3809,7.3774,0.0,0.0,0.0,0.0,0.0,0.0,0.0,0.0,0.0,6.8704,0.0,6.5393,6.3841,6.2496,6.1358,6.0909,6.1185,6.2324,6.3117,6.2565,6.0289,6.191,6.3462,6.4531,6.4669,6.4807,6.5221,6.5676,6.627,6.7065,6.8794,7.0027,7.048,7.1613,7.2469,7.2626,7.297,7.3275,7.339,7.4368,7.5046,7.5082,7.6043,7.6718,7.6755,7.708,7.7369,7.7333,7.7112,7.6746,7.6384,7.6275,7.6275,7.6275,7.6275,7.613,7.5768,7.537,7.4971,7.4537,7.3913,7.3434,7.347,7.3724,7.3905,7.3652,7.4312,7.5044,7.5044,7.4398,7.3826,7.9074,7.9304,7.8449,7.8101,7.7875,7.7875,7.8079,7.8258,0.0,0.0,0.0,7.5372,7.4816,7.4535,7.4535,7.4035,7.3318,7.3582,7.3704,7.3669,7.3895,7.4326,7.4912,7.4912,7.4929,7.4891,7.5032,7.5135,7.5097,7.5239,7.5257,7.5154,7.5154,7.5085,7.4947,7.4912,7.4326,7.3153,7.3671,7.3981,7.4016,7.4602,7.4912,7.4912,7.4912,7.4636,7.4016,7.3981,7.3705,7.3119,7.2464,7.1981,7.167,7.0532,6.9187,6.7704,6.6911,6.5911,6.4703,6.5152,6.5911,6.6807,6.8335,6.8231,6.5876,6.629,6.729,6.8773,6.8911,6.9222,7.0096,7.0188,7.0545,7.1492,7.2474,7.3053,7.3263,7.4087,7.4447,7.3869,7.4463,7.4699,7.4066,7.5012,7.5798,7.594,7.6541,7.747,7.7615,7.7579,7.7434,7.7253,7.7072,7.6963,7.6492,7.6492,7.6456,7.6311,7.642,7.6456,7.6239,7.5768,7.537,7.5334,7.4813,7.4405,7.4369,7.4805,7.5241,7.5132,7.5792,7.6239,7.6022,7.5189,7.4362,8.0105,8.0282,8.0177,7.9758,7.9164,7.8937,7.8831,7.8632,7.8072,7.7913,7.7982,7.6918,7.6141,7.5434,7.5287,7.4821,7.4193,7.4371,7.4425,0.0,7.4688,7.4843,7.4912,7.4912,7.5292,7.5824,7.5947,7.6292,7.6755,7.6878,7.6568,7.6016,7.5947,7.5637,7.4981,7.4912,7.4843,7.4636,7.4705,7.4774,7.4774,7.4878,7.4912,7.4912,7.4947,7.4878,7.4774,7.4774,7.4705,7.4602,7.4499,7.3878,7.2602,7.2291,7.1498,7.0049,6.9222,6.8704,6.8497,6.8566,6.9222,7.0636,7.2368,7.2299,6.9842,6.9704,7.0394,7.1843,7.2133,7.2444,7.3351,7.2901,7.3122,7.4573,7.5004,7.5436,7.5994,7.681,7.6999,7.6362,7.6373,7.6066,7.5565,7.5693,7.5868,7.5971,7.6429,7.6963,7.7905,7.7905,7.7253,7.6637,7.6456,7.642,7.6456,7.6927,7.7036,7.6384,7.6891,7.7072,7.6601,7.6311,7.613,7.613,7.5515,7.508,7.5037,7.5008,7.4971,7.4638,7.5406,7.6058,7.5623,7.5587,7.5841,8.1558,8.1314,8.0841,8.0369,8.002,7.9703,7.9436,7.9311,7.8659,7.8465,7.843,7.7478,7.7078,7.7112,7.6609,7.5935,7.5337,7.5392,7.5392,7.5392,7.548,7.5775,7.6154,7.6154,7.6726,7.7733,7.7036,7.7175,7.792,7.752,7.7051,7.674,7.6706,7.6533,7.6189,7.6189,7.6189,7.6154,7.5775,7.5568,7.5568,7.5982,7.6189,7.6154,7.6189,7.5982,7.5602,7.5568,7.5395,7.4947,7.4912,7.4602,7.3947,7.3878,7.3395,7.2291,7.1912,7.1822,7.1987,7.2832,7.3851,7.4926,7.5775,7.5948,7.5204,7.4336,7.4371,7.5447,7.5585,7.5516,7.5651,7.5387,7.5401,7.5764,7.6231,7.6698,7.7083,7.7951,7.7999,7.7029,7.6905,7.6589,7.5644,7.5729,7.5868,7.6039,7.6465,7.7144,7.747,7.7869,7.805,7.7688,7.7579,7.7398,7.7108,7.7615,7.7905,7.7615,7.7507,7.7543,7.7434,7.7289,7.7,7.6927,7.6601,7.6239,7.5877,7.5701,7.5417,7.5442,7.5593,7.5923,7.581,7.5991,7.6104,8.2785,8.2015,8.1419,8.1086,8.0824,8.0469,8.0185,7.9796,7.8888,7.8728,7.8879,7.7775,7.7672,7.8292,7.7568,7.7016,7.6637,7.643,7.6464,7.6637,7.6637,7.7016,7.7706,7.7741,7.8245,7.9103,7.8266,7.8197,7.8702,7.8162,7.7637,7.7499,7.7327,7.7223,7.7223,7.7223,7.7223,7.7189,7.6637,7.6361,7.6395,7.6947,7.7223,7.7223,7.7223,7.6947,7.6395,7.6361,7.6085,7.5499,7.543,7.543,7.5517,7.5517,7.5275,7.4809,7.474,7.4895,7.5308,7.6485,7.7701,7.8467,7.8711,7.9025,7.9478,7.8833,7.8275,7.8467,7.8207,7.8049,7.7666,7.7418,7.7188,7.6922,7.7333,7.7744,7.7814,7.8436,7.8458,7.7302,7.7114,7.6747,7.5905,7.5693,7.5868,7.618,7.6931,7.7217,7.7072,7.7977,7.8666,7.8919,7.8847,7.8412,7.7905,7.8448,7.881,7.8774,7.8412,7.834,7.8484,7.8086,7.7688,7.7507,7.7434,7.7036,7.6456,7.6104,7.6,7.5995,7.6,7.6036,7.6172,7.6036,7.5971,8.3454,8.2261,8.2717,8.24,8.1593,8.1558,8.0907,7.9921,7.9034,7.9303,8.0051,7.8189,7.7706,7.8223,7.7603,7.7568,7.8051,7.743,7.7499,7.812,7.8189,7.8568,7.9189,7.9258,7.9362,7.9523,7.9567,7.9407,7.9488,7.9567,7.9186,7.8292,7.7568,7.7258,7.7258,7.7223,7.7223,7.7223,7.7154,7.712,7.712,7.7189,7.7223,7.7223,7.7223,7.7189,7.7085,7.712,7.7085,7.7016,7.6982,7.7071,7.7336,7.7336,7.7424,7.7615,7.7615,7.7893,7.8555,7.8763,7.9269,7.9912,8.084,8.1313,8.1453,8.2085,8.1786,8.0438,7.939,7.9426,8.0054,7.9006,7.8462,7.896,7.8811,7.8764,7.8764,7.8998,7.8877,7.8335,7.7666,7.7112,7.6697,7.6194,7.6009,7.6353,7.7253,7.7869,7.8195,7.8666,7.91,7.9462,7.9245,7.8774,7.8629,7.9281,7.9462,7.8992,7.9245,7.9318,7.9028,7.8774,7.8412,7.7912,7.7579,7.7326,7.6606,7.614,7.6003,7.6039,7.6003,7.6072,7.6208,7.6039,7.5868,8.4437,8.3454,8.3279,8.2944,8.2505,8.1996,8.1434,8.0907,7.9872,7.9727,7.9994,7.9039,7.9017,7.9638,7.8465,7.8327,7.8982,7.8258,7.8327,7.9017,7.9086,7.9327,7.9868,7.9603,8.0006,8.0974,8.019,7.9891,8.0202,7.9891,7.9453,7.9017,7.8292,7.7913,7.7879,7.7465,7.7223,7.7223,7.7223,7.7223,7.7223,7.7223,7.7223,7.7223,7.7223,7.7223,7.7223,7.7223,7.7485,7.7989,7.8059,7.841,7.9128,7.9162,7.9162,7.9285,7.988,8.0316,8.0666,8.1173,8.1646,8.1961,8.2365,8.254,8.254,8.2944,8.2804,8.2066,8.1296,8.0876,8.0683,7.9858,7.9276,7.9268,7.8999,7.8952,7.9069,7.9311,7.9187,7.852,7.8248,7.7723,7.702,7.6661,7.6761,7.7112,7.805,7.8847,7.881,7.9499,8.0006,7.9933,7.9969,7.968,7.91,7.9825,8.0078,7.9716,7.968,7.9752,7.9936,7.9502,7.907,7.8638,7.8275,7.7697,7.6836,7.6259,7.5901,7.5937,7.5971,7.6003,7.6072,7.6039,7.5901,8.4929,8.4086,8.3454,8.3208,8.3138,8.2435,8.2101,8.1907,8.0852,8.0463,8.0546,8.0098,8.0317,8.0731,7.9362,7.912,7.9672,7.9051,7.912,7.9776,7.981,8.0086,8.0558,8.0258,8.0859,8.1736,8.0824,8.0582,8.1147,8.0248,7.981,7.9707,7.9051,7.8706,7.8637,7.7913,7.7534,7.7534,7.7361,7.7223,7.7258,7.743,7.743,7.7258,7.7223,7.7292,7.7589,7.7623,7.8024,7.9019,7.9054,7.958,8.0523,8.0593,8.0752,8.0996,8.1698,8.2101,8.2101,8.2804,8.3208,8.3208,8.3208,8.3208,8.3208,8.3208,8.3208,8.3103,8.2331,8.1418,8.0961,8.0134,7.9374,7.8976,7.8987,7.915,7.9311,7.9507,7.9487,7.8882,7.8752,7.8262,7.7341,7.7272,7.7625,7.7803,7.8886,7.9752,7.9354,8.0151,8.0839,8.0332,8.0766,8.0585,7.968,8.0223,8.0694,8.0513,8.0295,8.0405,8.0731,8.019,7.9648,7.9143,7.8819,7.8422,7.763,7.6839,7.623,7.6087,7.6121,7.6153,7.6007,7.5901,7.5832,8.4613,8.3349,8.3208,8.3208,8.3173,8.3138,8.2961,8.2676,8.1977,8.1868,8.2139,8.1309,8.1355,8.1816,8.0248,7.9879,8.0396,7.981,7.9844,8.0534,8.0569,8.0983,8.1707,8.1707,8.1707,8.1836,8.1792,8.1816,8.1886,8.1042,8.0569,8.0534,7.981,7.9465,7.9362,7.8706,7.8361,7.8292,7.7706,7.7292,7.7396,7.8017,7.8017,7.743,7.7292,7.7727,7.8514,7.8618,7.9054,8.0086,8.0121,8.0558,8.1523,8.1628,8.2031,8.2839,8.3068,8.3138,8.3103,8.3173,8.3208,8.3208,8.3208,8.3208,8.3208,8.3208,8.3208,8.3208,8.1945,8.1102,8.0786,7.9796,7.9082,7.8987,7.9347,7.9507,7.9621,7.9743,7.9822,7.9685,7.9114,7.8477,7.7804,7.8063,7.8242,7.8528,7.9249,7.9897,8.0006,8.0621,8.0984,8.102,8.102,8.1056,8.0984,8.0876,8.0948,8.0731,8.0478,8.0912,8.0804,8.0622,8.0116,7.9683,7.9285,7.8818,7.8459,7.7847,7.7271,7.6911,7.6733,7.659,7.6193,7.5728,7.5621,8.4613,8.3208,8.3208,8.3208,8.3208,8.3208,8.312,8.2996,8.2661,8.2606,8.26,8.2209,8.206,8.2083,8.147,8.118,8.1293,8.0569,8.0638,8.1328,8.1397,8.1535,8.1741,8.1776,8.1776,8.181,8.1905,8.1871,8.1836,8.15,8.1362,8.1259,8.0603,8.0224,8.0086,7.95,7.912,7.9086,7.881,7.8763,7.8944,7.9221,7.9221,7.8979,7.8944,7.9172,7.9649,7.9684,8.0121,8.1155,8.1189,8.1628,8.2505,8.2699,8.2804,8.3173,8.3208,8.3208,8.3208,8.3208,8.3208,8.3208,8.3208,8.3208,8.3208,8.3208,8.3208,8.2998,8.247,8.1696,8.0887,7.9739,7.9069,7.9311,7.9507,7.97,7.9743,7.9822,7.9899,7.9792,7.9186,7.8655,7.8595,7.8386,7.8495,7.9107,7.9575,8.0114,8.0585,8.0984,8.1092,8.1092,8.1092,8.1021,8.0876,8.0876,8.0804,8.0479,8.0298,8.0623,8.073,8.0508,8.0035,7.9892,7.953,7.9171,7.8707,7.8311,7.7766,7.748,7.7265,7.709,7.6482,7.6231,7.5908,8.4402,8.3314,8.3208,8.3208,8.3208,8.3208,8.3208,8.3208,8.3066,8.2976,8.2976,8.2761,8.2488,8.2303,8.2303,8.2118,8.2024,8.1412,8.1353,8.1836,8.1965,8.1965,8.1871,8.1871,8.1871,8.181,8.1776,8.1776,8.1776,8.1776,8.1776,8.1741,8.1224,8.0983,8.0879,8.0224,7.9844,7.9937,7.973,7.9649,7.99,8.0108,8.0212,8.0247,8.0454,8.0546,8.0483,8.0573,8.11,8.1942,8.2136,8.247,8.3138,8.3208,8.3208,8.3208,8.3208,8.3208,8.3208,8.3208,8.3208,8.3208,8.3208,8.3208,8.3208,8.3208,8.3208,8.3033,8.2681,8.2079,8.1317,8.02,7.9514,7.9578,7.9665,7.9743,7.9899,7.9899,7.9899,7.9864,7.9471,7.9227,7.9272,7.8992,7.925,7.9901,8.0153,8.0478,8.0984,8.1092,8.1092,8.1092,8.1092,8.0985,8.0803,8.073,8.073,8.0404,8.026,8.0474,8.0508,8.0358,8.0171,8.0023,7.9732,7.941,7.8977,7.8619,7.8334,7.7972,7.7905,7.7801,7.7267,7.6768,7.6373,8.3981,8.3244,8.3208,8.3208,8.3208,8.3314,8.3244,8.3314,8.3314,8.326,8.3295,8.2976,8.2886,8.2796,8.2614,8.2488,8.2361,8.2107,8.2048,8.2118,8.2303,8.2303,8.2059,8.2024,8.1965,8.1776,8.1776,8.1776,8.1776,8.1776,8.181,8.1776,8.1776,8.1638,8.1776,8.1076,8.0697,8.087,8.042,8.0039,7.9969,8.0662,8.0974,8.1043,8.1598,8.1633,8.1009,8.1283,8.1778,8.2676,8.2961,8.3208,8.3208,8.3208,8.3208,8.3208,8.3208,8.3208,8.3208,8.3208,8.3208,8.3208,8.3208,8.3208,8.3208,8.3208,8.3208,8.3191,8.2838,8.2234,8.1709,8.1059,8.0403,7.9764,7.9743,7.9822,7.9899,7.9899,7.9899,7.9899,7.9792,7.9941,8.0095,7.9849,7.9927,8.0404,8.0478,8.0587,8.0912,8.1021,8.1092,8.1092,8.1021,8.0948,8.073,8.0508,8.0508,8.0472,8.0361,8.0433,8.0358,8.0207,8.013,7.9982,7.9905,7.962,7.962,7.9298,7.9191,7.8941,7.8798,7.8512,7.7905,7.7372,7.6762,8.3946,8.3244,8.3208,8.3208,8.3279,8.3805,8.4051,8.4016,8.4051,8.4051,8.3946,8.3365,8.3031,8.2886,8.2796,8.267,8.2488,8.2614,8.2614,8.2396,8.2488,8.2396,8.2118,8.2118,8.1965,8.1776,8.1776,8.1776,8.1776,8.1776,8.1871,8.1965,8.1905,8.1965,8.2211,8.1875,8.1771,8.1921,8.1621,8.1517,8.17,8.1725,8.1771,8.1806,8.2014,8.192,8.1619,8.1956,8.2244,8.2579,8.267,8.2761,8.2976,8.312,8.3208,8.3208,8.3208,8.3208,8.3208,8.3208,8.3208,8.3208,8.3208,8.3208,8.3208,8.3208,8.3297,8.342,8.3399,8.3054,8.2052,8.18,8.1132,8.0,7.9822,7.9899,7.9899,7.9899,7.9899,7.9899,7.9899,7.9899,7.9905,7.9732,7.9741,8.0215,8.0113,8.008,8.0512,8.0803,8.0876,8.0876,8.0948,8.0876,8.0582,8.0433,8.0358,8.0283,8.0207,8.0283,8.0207,8.013,8.0054,7.9977,7.9977,7.9899,7.9899,7.9828,7.9727,7.9691,7.9435,7.9007,7.8472,7.7937,7.7437,8.3946,8.3244,8.3208,8.3384,8.37,8.4227,8.4437,8.4437,8.4437,8.4262,8.3876,8.3454,8.312,8.3031,8.3031,8.2941,8.2761,8.2941,8.2941,8.2761,8.267,8.2488,8.2245,8.2059,8.1965,8.181,8.1776,8.1776,8.1776,8.1776,8.1871,8.2059,8.1965,8.2152,8.2488,8.2303,8.2396,8.2579,8.2361,8.2303,8.2396,8.2211,8.2059,8.1965,8.1965,8.1965,8.1776,8.2059,8.2303,8.2396,8.2488,8.267,8.2886,8.312,8.3208,8.3208,8.3208,8.3208,8.3208,8.3208,8.3208,8.3208,8.3208,8.3208,8.3208,8.3297,8.342,8.3595,8.3819,8.3577,8.2643,8.2201,8.1648,8.0506,8.0078,7.9935,7.9899,7.9899,7.9899,7.9899,7.9899,7.9899,7.9834,7.9655,7.9634,8.0103,7.9927,7.9751,8.04,8.0582,8.0656,8.073,8.073,8.0656,8.0433,8.0283,8.0207,8.013,7.9977,8.0054,8.0054,8.0054,7.9977,7.9977,7.9899,7.9899,7.9899,7.9899,7.9828,7.9899,7.9899,7.9578,7.9079,7.8686,7.8186,8.4016,8.3314,8.3279,8.3665,8.4227,8.4367,8.4437,8.4437,8.4437,8.4051,8.3489,8.3279,8.3208,8.3208,8.312,8.312,8.3208,8.312,8.312,8.312,8.2976,8.2705,8.2396,8.2059,8.1776,8.1776,8.1776,8.1776,8.1776,8.1776,8.1871,8.2118,8.2118,8.2303,8.2488,8.2579,8.2579,8.2796,8.2579,8.2488,8.2396,8.2211,8.1965,8.1776,8.1776,8.181,8.181,8.1871,8.1965,8.2118,8.2522,8.2796,8.2886,8.3066,8.312,8.3208,8.3208,8.3208,8.3208,8.3208,8.3208,8.3208,8.3208,8.3208,8.3297,8.342,8.3595,8.3682,8.4025,8.3958,8.3187,8.2486,8.1826,8.1077,8.0256,7.9935,7.9899,7.9899,7.9899,7.9899,7.9899,7.9977,8.0054,7.9905,8.0059,8.0247,8.0211,8.0211,8.0322,8.0433,8.0433,8.0508,8.0582,8.0508,8.0358,8.0283,8.0207,8.0054,7.9899,7.9899,7.9977,7.9899,7.9899,7.9899,7.9899,7.9899,7.9899,7.9899,7.9899,7.9899,7.9899,7.9899,7.9685,7.9221,7.8829,8.4642,8.4121,8.4086,8.3876,8.3665,8.4156,8.4437,8.4437,8.4437,8.4297,8.3981,8.3454,8.3244,8.3208,8.3208,8.3208,8.3208,8.3208,8.3208,8.312,8.2976,8.2796,8.2396,8.2059,8.1776,8.1776,8.1776,8.1776,8.1776,8.1776,8.1999,8.2396,8.228,8.243,8.2941,8.2956,8.2796,8.2886,8.2705,8.243,8.2245,8.2059,8.1905,8.1776,8.1776,8.1776,8.1776,8.1776,8.1776,8.1905,8.2152,8.2396,8.2579,8.2886,8.3031,8.3208,8.3208,8.3208,8.3208,8.3208,8.3208,8.3208,8.3208,8.3297,8.3508,8.3508,8.3768,8.4025,8.4278,8.4041,8.3422,8.2683,8.1684,8.047,8.0042,7.9899,7.9899,7.9899,7.9899,7.9899,7.9899,7.9899,7.9977,8.0012,7.9977,8.0054,8.0054,7.9977,8.013,8.0207,8.0283,8.0358,8.0358,8.0358,8.0283,8.0207,8.013,7.9977,7.9899,7.9899,7.9899,7.9899,7.9899,7.9899,7.9899,7.9899,7.9899,7.9899,7.9899,7.9899,7.9822,7.9822,7.9899,7.965,7.918,8.5189,8.4859,8.4859,8.4788,8.4683,8.4823,8.4859,8.4859,8.4859,8.4472,8.3981,8.384,8.3524,8.3244,8.3208,8.3208,8.3208,8.3155,8.312,8.312,8.2851,8.2579,8.2303,8.1965,8.1776,8.1776,8.181,8.1776,8.1776,8.1776,8.2232,8.2882,8.279,8.3206,8.4137,8.4102,8.4012,8.3886,8.3368,8.2882,8.2824,8.2138,8.181,8.1776,8.1776,8.1776,8.1776,8.1776,8.1776,8.1871,8.1965,8.2211,8.2488,8.2796,8.2976,8.3208,8.3208,8.3208,8.3208,8.3208,8.3208,8.3208,8.3208,8.3332,8.3508,8.3682,8.3939,8.4194,8.4361,8.4195,8.386,8.2897,8.1719,8.0684,8.0113,7.9935,7.9899,7.9899,7.9899,7.9899,7.9899,7.9899,7.9899,7.9899,7.9899,7.9899,7.9899,7.9899,7.9899,7.9977,8.0054,8.013,8.013,8.013,8.013,8.0054,8.0054,7.9899,7.9899,7.9899,7.9899,7.9899,7.9899,7.9899,7.9899,7.9899,7.9899,7.9899,7.9899,7.9899,7.9822,7.9822,7.9822,7.9822,7.9387,8.5701,8.5631,8.5631,8.5982,8.6298,8.5701,8.5315,8.5455,8.528,8.4648,8.3946,8.4262,8.4192,8.3454,8.356,8.3349,8.3384,8.3136,8.3171,8.3241,8.311,8.2848,8.279,8.2069,8.181,8.1905,8.1845,8.1983,8.2086,8.2052,8.2716,8.3543,8.3775,8.4367,8.5014,8.535,8.542,8.4852,8.3996,8.3427,8.3033,8.2241,8.181,8.181,8.2017,8.1914,8.1879,8.1914,8.1914,8.1776,8.1965,8.2211,8.2488,8.2761,8.2941,8.312,8.3208,8.3208,8.3208,8.3208,8.3208,8.3208,8.3208,8.3385,8.3595,8.3819,8.4109,8.4361,8.4527,8.442,8.4075,8.304,8.1933,8.1041,8.0363,7.9971,7.9899,7.9899,7.9899,7.9899,7.9899,7.9899,7.9899,7.9899,7.9899,7.9899,7.9899,7.9899,7.9899,7.9899,7.9977,7.9977,7.9977,7.9899,7.9899,7.9899,7.9899,7.9899,7.9899,7.9899,7.9899,7.9899,7.9899,7.9899,7.9899,7.9899,7.9899,7.9899,7.9822,7.9743,7.9665,7.9665,7.9743,7.9665,7.9451,8.6814,8.6439,8.6439,8.6158,8.5701,8.4999,8.4999,8.5455,8.4929,8.4859,8.4964,8.5175,8.5139,8.4929,8.4367,8.4156,8.4051,8.3576,8.3435,8.4137,8.4275,8.4449,8.3984,8.2845,8.1974,8.2172,8.2527,8.2638,8.2742,8.3252,8.3893,8.4506,8.467,8.4926,8.547,8.5701,8.5084,8.4446,8.3996,8.3439,8.28,8.2241,8.1879,8.1914,8.2362,8.2328,8.2052,8.2362,8.2397,8.1983,8.194,8.2232,8.243,8.2579,8.2761,8.312,8.3208,8.3208,8.3208,8.3208,8.3208,8.3208,8.342,8.3595,8.3819,8.3989,8.4278,8.4445,8.461,8.436,8.3825,8.2826,8.204,8.1327,8.0542,7.9971,7.9935,7.9935,7.9899,7.9899,7.9899,7.9899,7.9899,7.9899,7.9899,7.9899,7.9899,7.9899,7.9899,7.9899,7.9899,7.9899,7.9899,7.9899,7.9899,7.9899,7.9899,7.9899,7.9899,7.9899,7.9899,7.9822,7.9822,7.9822,7.9899,7.9899,7.9899,7.9743,7.9665,7.9586,7.9507,7.9507,7.9391,7.9507,7.9507,8.7539,8.7246,8.7246,8.7,8.6544,8.5842,8.5701,8.5947,8.5666,8.5491,8.5596,8.5877,8.5877,8.5491,8.5104,8.4929,8.4859,8.4362,8.4271,8.4599,8.4704,8.4972,8.4996,8.3995,8.3226,8.3261,8.3573,8.3685,8.3728,8.4135,8.47,8.5496,8.5496,8.5962,8.6579,8.6544,8.6509,8.5938,8.5077,8.4412,8.3936,8.2924,8.2518,8.2553,8.2933,8.2906,8.2949,8.319,8.319,8.2949,8.2811,8.2622,8.2315,8.2303,8.2579,8.2941,8.3066,8.312,8.312,8.3208,8.3208,8.3244,8.3332,8.3559,8.3819,8.4074,8.4278,8.4527,8.4574,8.4396,8.3967,8.3254,8.2576,8.2112,8.1148,8.0506,8.0399,8.0149,7.9899,7.9899,7.9899,7.9899,7.9899,7.9971,7.9935,7.9935,7.9899,7.9899,7.9899,7.9899,7.9899,7.9899,7.9899,7.9899,7.9899,7.9899,7.9899,7.9899,7.9899,7.9899,7.9899,7.9822,7.9743,7.9822,7.9822,7.9899,7.9822,7.9665,7.9586,7.9507,7.9427,7.9231,7.915,7.9311,7.9311,8.7878,8.7878,8.7878,8.7843,8.7738,8.7,8.6719,8.686,8.6719,8.6333,8.6179,8.6706,8.6671,8.6109,8.5862,8.5757,8.5434,8.5426,8.5333,8.5275,8.5401,8.56,8.5718,8.5426,8.5133,8.4943,8.4899,8.4769,8.4769,8.5038,8.569,8.6323,8.6487,8.6826,8.7574,8.7843,8.7492,8.6954,8.6089,8.5455,8.5116,8.3989,8.3443,8.3409,8.3685,8.3728,8.3811,8.4018,8.4121,8.4018,8.4018,8.3424,8.2786,8.2326,8.2373,8.2956,8.3026,8.3346,8.3506,8.3595,8.37,8.356,8.3508,8.3684,8.4031,8.4237,8.442,8.448,8.4574,8.4574,8.4538,8.3753,8.3397,8.304,8.204,8.1327,8.1006,8.047,8.0221,7.9935,8.0149,8.0292,8.0149,8.0113,8.0006,7.9935,7.9935,7.9899,7.9899,7.9899,7.9899,7.9899,7.9899,7.9899,7.9899,7.9899,7.9899,7.9899,7.9899,7.9822,7.9822,7.9665,7.9586,7.9743,7.9822,7.9822,7.9743,7.9586,7.9427,7.9427,7.9266,7.8987,7.8987,7.915,7.915,8.7878,8.7878,8.7878,8.7878,8.7738,8.7035,8.7106,8.7492,8.7,8.7128,8.7699,8.784,8.7804,8.7558,8.703,8.6375,8.5947,8.5951,8.6231,8.6336,8.6532,8.6812,8.7024,8.6896,8.6846,8.6716,8.6298,8.5724,8.5803,8.6386,8.6621,8.6995,8.7126,8.7491,8.762,8.7749,8.7469,8.6966,8.6368,8.5733,8.5055,8.4412,8.3942,8.4108,8.4585,8.4627,8.4391,8.4639,8.4708,8.4087,8.4018,8.388,8.3632,8.3374,8.3137,8.3124,8.3376,8.3641,8.4102,8.4683,8.4999,8.4964,8.4616,8.4476,8.4738,8.4925,8.4704,8.467,8.461,8.461,8.4574,8.3967,8.3504,8.3182,8.2647,8.1826,8.1362,8.0934,8.0649,8.0363,8.0542,8.0577,8.0328,8.0221,8.0256,8.0185,8.0149,8.0006,7.9899,7.9899,7.9899,7.9899,7.9899,7.9899,7.9899,7.9899,7.9899,7.9822,7.9822,7.9665,7.9586,7.9391,7.9391,7.9507,7.9586,7.9586,7.9507,7.9427,7.9231,7.915,7.8906,7.8657,7.8823,7.8906,7.8987,8.7878,8.7878,8.7878,8.7878,8.7808,8.7492,8.7527,8.7773,8.755,8.7923,8.8403,8.8517,8.8552,8.8531,8.8002,8.7311,8.693,8.6791,8.7095,8.7363,8.7326,8.7501,8.7878,8.7784,8.769,8.7585,8.7176,8.6777,8.6751,8.7256,8.7466,8.7561,8.769,8.769,8.7749,8.7843,8.7539,8.6941,8.6586,8.6255,8.5548,8.5042,8.48,8.4938,8.5243,8.5318,8.5363,8.5466,8.5604,8.5294,8.5225,8.4984,8.4639,8.4357,8.4127,8.3752,8.3485,8.3808,8.4537,8.5014,8.4999,8.535,8.4914,8.4793,8.488,8.4769,8.4704,8.467,8.461,8.461,8.461,8.4182,8.4075,8.3896,8.3289,8.2718,8.2219,8.1577,8.1184,8.0863,8.0577,8.0435,8.0221,8.0221,8.047,8.047,8.0363,8.0256,8.0078,8.0042,8.0078,8.0185,8.0221,8.0071,8.0071,8.0113,7.9971,7.9822,7.9665,7.9586,7.9427,7.9231,7.915,7.915,7.9266,7.9427,7.9311,7.9231,7.9069,7.887,7.8741,7.8657,7.8657,7.8741,7.8823,8.7878,8.7878,8.7878,8.7948,8.8089,8.8089,8.8089,8.8217,8.8544,8.8826,8.9143,8.8997,8.9088,8.9117,8.8601,8.8051,8.7936,8.762,8.7679,8.7808,8.7655,8.769,8.7878,8.7878,8.7878,8.7843,8.7808,8.7784,8.7585,8.7749,8.7878,8.7784,8.7784,8.7784,8.7655,8.769,8.7596,8.737,8.7082,8.6887,8.6518,8.6102,8.5658,8.5693,8.5658,8.597,8.6053,8.6156,8.6225,8.6156,8.6122,8.5984,8.5501,8.5259,8.5082,8.4654,8.3727,8.4182,8.4879,8.5575,8.5771,8.6158,8.5175,8.5022,8.5021,8.4854,8.4349,8.467,8.4646,8.461,8.461,8.4574,8.4574,8.4431,8.4003,8.3468,8.304,8.2504,8.2005,8.147,8.0756,8.047,8.0506,8.0827,8.1148,8.0791,8.0684,8.097,8.0791,8.0435,8.0435,8.0577,8.0613,8.0428,8.0356,8.0399,8.0185,7.9935,7.9665,7.9427,7.9266,7.915,7.8987,7.8906,7.915,7.9231,7.915,7.915,7.8952,7.8823,7.8657,7.8657,7.8657,7.8657,7.8741,8.7878,8.7878,8.7878,8.8229,8.8826,8.8861,8.8861,8.8896,8.9706,8.9964,8.9597,8.975,8.9714,8.9427,8.8623,8.8213,8.8121,8.7901,8.7936,8.8029,8.7749,8.769,8.7878,8.7878,8.7878,8.7878,8.7878,8.7878,8.7878,8.7878,8.7784,8.769,8.7784,8.769,8.7501,8.7596,8.7275,8.6887,8.6789,8.6593,8.6359,8.6454,8.6286,8.6286,8.6286,8.642,8.6294,8.6294,8.6294,8.6294,8.6294,8.626,8.6087,8.5535,8.5639,8.5802,8.5784,8.568,8.6207,8.6534,8.7,8.693,8.6158,8.5832,8.5622,8.5309,8.5027,8.5526,8.5109,8.4753,8.4753,8.4646,8.461,8.4574,8.4431,8.3967,8.3539,8.3111,8.2647,8.229,8.1648,8.1291,8.1148,8.1541,8.1826,8.1362,8.1113,8.1434,8.1505,8.1148,8.0927,8.1141,8.1255,8.1069,8.0962,8.0891,8.0613,8.0221,7.9843,7.9453,7.9231,7.9069,7.8823,7.8741,7.8987,7.8987,7.8906,7.8823,7.8823,7.8741,7.8657,7.8574,7.8574,7.8657,7.8657,8.9177,8.9177,8.9177,8.9388,8.9669,8.9669,8.9388,8.9237,8.9636,9.0034,8.9951,8.9572,8.9343,8.9182,8.8738,8.8577,8.8396,8.8086,8.8086,8.8121,8.7843,8.7784,8.7878,8.7878,8.7878,8.7878,8.7878,8.7878,8.7878,8.7878,8.7784,8.7784,8.7878,8.7878,8.7501,8.7655,8.737,8.6985,8.6691,8.6394,8.6394,8.6394,8.6394,8.6294,8.6394,8.6394,8.6294,8.6294,8.6294,8.6294,8.6294,8.6294,8.626,8.6018,8.6018,8.6156,8.6281,8.6463,8.6786,8.6906,8.7398,8.7597,8.6917,8.6235,8.6153,8.602,8.593,8.6358,8.5716,8.5324,8.5109,8.486,8.4681,8.461,8.461,8.4467,8.4039,8.3611,8.3182,8.2861,8.2611,8.229,8.1969,8.2076,8.229,8.2076,8.1933,8.2219,8.2148,8.1826,8.1747,8.1809,8.1889,8.1854,8.1747,8.164,8.1327,8.0934,8.0412,7.9959,7.9337,7.8987,7.8881,7.8679,7.8811,7.8811,7.8609,7.8657,7.8823,7.8741,7.8574,7.8574,7.8574,7.8574,7.8609,9.0581,9.0722,9.0371,9.0301,9.0476,9.0476,9.0055,8.9353,8.9847,9.0082,8.9964,8.9482,8.9059,8.8934,8.8934,8.8721,8.8613,8.8396,8.8305,8.8121,8.8029,8.7878,8.7878,8.7878,8.7878,8.7878,8.7878,8.7878,8.7878,8.7878,8.7878,8.7878,8.7878,8.7878,8.7784,8.769,8.7501,8.6985,8.6593,8.6394,8.6294,8.6294,8.6294,8.6294,8.6294,8.6294,8.6294,8.6294,8.6294,8.6294,8.6294,8.6294,8.6294,8.626,8.6225,8.6294,8.639,8.6685,8.6873,8.7021,8.7106,8.7386,8.7325,8.6627,8.6311,8.6639,8.6894,8.6787,8.6144,8.5823,8.5645,8.5074,8.4717,8.461,8.461,8.461,8.4538,8.411,8.3825,8.3682,8.3432,8.3254,8.2968,8.2718,8.2683,8.2611,8.2754,8.3004,8.2861,8.2576,8.2745,8.2842,8.2959,8.2933,8.2495,8.2317,8.2005,8.1568,8.1088,8.0714,8.0116,7.9623,7.9409,7.9185,7.8995,7.9066,7.9311,7.9092,7.8823,7.8657,7.8574,7.8574,7.8574,7.8574,7.8525,9.167,9.2232,9.0827,9.0652,9.1213,9.1213,9.0792,9.016,9.1045,9.054,8.9611,8.9513,8.9414,8.9041,8.8899,8.881,8.8613,8.8577,8.8396,8.8213,8.8029,8.7878,8.7878,8.7878,8.7878,8.7878,8.7878,8.7878,8.7878,8.7878,8.7878,8.7878,8.7878,8.7749,8.769,8.7596,8.737,8.6887,8.6691,8.6494,8.6394,8.6294,8.6294,8.6294,8.6294,8.6294,8.6294,8.6294,8.6294,8.6394,8.6394,8.6294,8.6294,8.6294,8.6294,8.6294,8.6294,8.6593,8.688,8.717,8.7526,8.769,8.7579,8.7214,8.6736,8.6817,8.6965,8.7108,8.668,8.6109,8.5716,8.5181,8.486,8.461,8.4646,8.4788,8.4753,8.461,8.436,8.4396,8.4217,8.3896,8.3789,8.3539,8.3397,8.3361,8.3361,8.3575,8.3718,8.3575,8.3967,8.41,8.4171,8.4003,8.3432,8.3111,8.2897,8.2236,8.1648,8.1413,8.1178,8.0682,8.0007,8.0134,8.0084,8.0014,7.9803,7.9396,7.9009,7.8763,7.8574,7.8574,7.849,7.8525,7.8441,9.2232,9.2442,9.1845,9.1677,9.1824,9.1923,9.1502,9.0703,9.0844,9.0269,8.9163,8.9823,8.977,8.9288,8.911,8.9023,8.8846,8.8667,8.8396,8.8121,8.7843,8.769,8.769,8.769,8.769,8.769,8.7784,8.7878,8.7878,8.7878,8.7878,8.7878,8.7878,8.7843,8.7784,8.7596,8.7275,8.6985,8.6789,8.6593,8.6394,8.6294,8.6294,8.6294,8.6294,8.6394,8.6494,8.6494,8.6494,8.6494,8.6494,8.6394,8.6294,8.6294,8.6294,8.6294,8.6294,8.6593,8.6985,8.7178,8.7405,8.7843,8.8023,8.7975,8.7515,8.8062,8.8306,8.8178,8.7572,8.6929,8.643,8.5823,8.5252,8.4824,8.4717,8.4931,8.5038,8.4967,8.4967,8.5002,8.4681,8.4324,8.4324,8.4289,8.4217,8.4146,8.4146,8.411,8.4182,8.4217,8.4467,8.461,8.461,8.461,8.4039,8.3896,8.3707,8.3056,8.2287,8.2005,8.1803,8.1246,8.0831,8.0942,8.0961,8.0646,8.0224,7.9662,7.9241,7.8925,7.8715,7.8574,7.849,7.8511,7.8307,9.2512,9.2512,9.2512,9.2379,9.228,9.2133,9.1572,9.0703,9.0316,8.9725,8.897,8.968,8.9946,8.9641,8.9269,8.9236,8.8969,8.8719,8.834,8.7936,8.769,8.7501,8.7405,8.7405,8.7405,8.7501,8.769,8.7784,8.7878,8.7878,8.7878,8.7878,8.7878,8.7878,8.7878,8.769,8.7501,8.7213,8.702,8.6691,8.6494,8.6394,8.6294,8.6394,8.6394,8.6494,8.6691,8.6691,8.6789,8.6691,8.6691,8.6494,8.6394,8.6294,8.6294,8.6294,8.6429,8.6528,8.6922,8.7309,8.7466,8.7843,8.8213,8.8452,8.8703,8.8934,8.8897,8.907,8.85,8.7857,8.7143,8.6358,8.5645,8.5216,8.5145,8.5324,8.5538,8.5609,8.5609,8.5609,8.5216,8.4895,8.4503,8.4503,8.4467,8.4396,8.4396,8.436,8.4431,8.4467,8.4538,8.461,8.461,8.461,8.4574,8.4278,8.3982,8.3768,8.3105,8.2594,8.2284,8.1761,8.1711,8.1996,8.1804,8.1242,8.0821,8.047,7.9803,7.9136,7.9171,7.9262,7.8897,7.8796,7.8345,9.2512,9.2512,9.2512,9.2512,9.2407,9.1635,9.0968,9.0371,8.9777,8.93,8.897,8.9129,8.9573,8.9911,8.9324,8.9219,8.9199,8.8608,8.8029,8.7655,8.7501,8.7309,8.7178,8.7082,8.7178,8.7405,8.7596,8.769,8.7878,8.7878,8.7878,8.7878,8.7878,8.7878,8.7878,8.7878,8.7749,8.7466,8.737,8.7082,8.6789,8.6593,8.6494,8.6494,8.6494,8.6593,8.6887,8.6887,8.6887,8.6887,8.6789,8.6593,8.6394,8.6294,8.6294,8.6294,8.6294,8.6593,8.6985,8.7561,8.7749,8.7878,8.8121,8.8305,8.8577,8.8846,8.911,8.9162,8.8678,8.8214,8.7536,8.6858,8.6251,8.5823,8.5787,8.5966,8.6216,8.6216,8.618,8.6251,8.593,8.5502,8.4931,8.461,8.4574,8.4574,8.461,8.461,8.461,8.461,8.461,8.4527,8.4527,8.4527,8.4445,8.4361,8.4136,8.3993,8.3732,8.3267,8.287,8.2643,8.2646,8.2892,8.2647,8.212,8.1734,8.1383,8.0665,8.0139,8.0071,8.002,7.9583,7.9042,7.8642,9.2512,9.2512,9.2512,9.2512,9.2372,9.1635,9.1011,9.0625,8.9976,8.9376,8.9005,8.911,8.9305,8.9447,8.9447,8.9112,8.8896,8.877,8.8157,8.7501,8.7309,8.7082,8.6887,8.6887,8.6887,8.7082,8.7275,8.7501,8.7596,8.7784,8.7878,8.7878,8.7878,8.7878,8.7878,8.7878,8.7784,8.7466,8.7275,8.6985,8.6691,8.6593,8.6494,8.6593,8.6494,8.6691,8.7082,8.7213,8.7178,8.7117,8.7117,8.6859,8.6627,8.6429,8.6363,8.6329,8.6329,8.6528,8.7117,8.7596,8.7878,8.7971,8.8029,8.8305,8.8577,8.881,8.9023,8.9198,8.9035,8.8607,8.8,8.775,8.7251,8.668,8.6608,8.6965,8.7143,8.6858,8.6751,8.6894,8.6751,8.5787,8.5074,8.4895,8.486,8.4634,8.4634,8.4563,8.4527,8.4527,8.4527,8.4445,8.4361,8.4361,8.4361,8.4194,8.4109,8.3968,8.3847,8.3642,8.3313,8.312,8.3051,8.3068,8.3068,8.2963,8.2138,8.1542,8.1489,8.1226,8.091,8.0507,8.0019,7.9443,7.8815,9.2512,9.2512,9.2512,9.2512,9.2337,9.1354,9.0555,8.9985,8.947,8.9092,8.897,8.9198,8.9412,8.9519,8.9253,8.9219,8.8841,8.8502,8.8157,8.7501,8.7178,8.6985,8.6789,8.6593,8.6691,8.6789,8.6985,8.7275,8.7501,8.769,8.7784,8.7878,8.7878,8.7878,8.7878,8.7878,8.7878,8.769,8.7501,8.7275,8.7082,8.6887,8.6789,8.6789,8.6887,8.6985,8.7309,8.7405,8.7405,8.7475,8.7484,8.7228,8.6864,8.6736,8.6639,8.6674,8.6908,8.7102,8.7379,8.7596,8.7878,8.7878,8.8029,8.8213,8.8487,8.8667,8.8934,8.911,8.932,8.9035,8.8607,8.8428,8.7929,8.7322,8.7215,8.7536,8.775,8.7465,8.7429,8.7536,8.7393,8.6323,8.5431,8.5252,8.5181,8.492,8.4658,8.4551,8.4516,8.4551,8.448,8.4278,8.4229,8.4229,8.4145,8.3939,8.3904,8.3904,8.3733,8.3559,8.3472,8.3191,8.3173,8.3155,8.2996,8.2661,8.2015,8.1506,8.1558,8.1504,8.122,8.0782,8.033,7.9684,7.9004,9.2512,9.2512,9.2477,9.2407,9.2196,9.0862,8.9518,8.8354,8.8558,8.8738,8.897,8.9182,8.9466,8.9787,8.9254,8.8986,8.9011,8.846,8.8042,8.7596,8.7178,8.6985,8.6691,8.6494,8.6494,8.6593,8.6789,8.7082,8.7405,8.7596,8.769,8.7878,8.7971,8.7971,8.7971,8.7971,8.7878,8.7878,8.769,8.7501,8.7275,8.7309,8.7178,8.7178,8.7213,8.7275,8.7631,8.7701,8.7736,8.785,8.8042,8.7576,8.728,8.7154,8.726,8.7464,8.7865,8.7778,8.7685,8.796,8.7843,8.7878,8.7936,8.8157,8.8396,8.8667,8.8846,8.9146,8.932,8.932,8.9178,8.8714,8.8164,8.7772,8.7451,8.77,8.8021,8.8143,8.8143,8.8143,8.8036,8.7322,8.6417,8.606,8.5335,8.5037,8.474,8.4478,8.4442,8.4633,8.4442,8.4025,8.3975,8.401,8.3889,8.3682,8.3768,8.3733,8.3472,8.3297,8.3332,8.3244,8.3066,8.2851,8.267,8.2391,8.1993,8.1783,8.1728,8.1513,8.104,8.1053,8.0511,7.9734,7.9074,9.2512,9.2442,9.188,9.1635,9.1494,9.0616,8.9412,8.817,8.8431,8.886,8.9265,8.9059,8.9343,8.9695,8.9022,8.8734,8.8481,8.8262,8.7913,8.7596,8.7283,8.702,8.6726,8.6528,8.6394,8.6494,8.6593,8.6789,8.6985,8.7275,8.769,8.7878,8.8135,8.8099,8.7971,8.8064,8.8006,8.7878,8.7784,8.769,8.7501,8.7405,8.7309,8.737,8.7309,8.7501,8.783,8.8216,8.8356,8.8601,8.8844,8.8787,8.8758,8.7942,8.7398,8.77,8.7999,8.8189,8.8235,8.8065,8.7878,8.7878,8.7878,8.8157,8.8431,8.8667,8.8881,8.9146,8.932,8.932,8.9198,8.8877,8.854,8.8362,8.7991,8.7975,8.8311,8.8275,8.8398,8.8556,8.8449,8.7899,8.7116,8.6105,8.5451,8.5067,8.4769,8.4471,8.4294,8.4364,8.4648,8.4227,8.3858,8.3893,8.3665,8.3543,8.3595,8.3595,8.3297,8.312,8.3031,8.2976,8.2761,8.267,8.2488,8.2383,8.2265,8.2,8.17,8.088,8.0442,8.0732,8.0709,7.9761,7.9332,9.2512,9.2442,9.1986,9.16,9.1248,9.0827,8.9879,8.8991,8.9258,8.954,8.9787,8.9391,8.9376,8.9442,8.8876,8.8431,8.8157,8.8157,8.8029,8.7725,8.7588,8.7291,8.6963,8.677,8.657,8.6567,8.6528,8.6593,8.6824,8.7213,8.7596,8.7819,8.824,8.8275,8.824,8.8346,8.831,8.8077,8.7784,8.769,8.7596,8.7501,8.7596,8.7596,8.7536,8.7701,8.824,8.8706,8.9012,8.9398,8.9808,8.9821,8.9583,8.8693,8.8385,8.8619,8.8851,8.8802,8.8776,8.8486,8.8229,8.7948,8.7878,8.8157,8.8431,8.8577,8.8881,8.9146,8.9233,8.932,8.9198,8.911,8.8987,8.8863,8.8633,8.8313,8.8366,8.8331,8.8614,8.8845,8.8631,8.824,8.7406,8.636,8.5635,8.5391,8.4863,8.4282,8.407,8.3964,8.4564,8.474,8.4159,8.3842,8.3701,8.3473,8.342,8.3385,8.3155,8.3066,8.2886,8.2705,8.2396,8.2303,8.2303,8.213,8.1852,8.1887,8.1552,8.0732,8.0363,8.0893,8.0651,7.9428,7.9186,9.2512,9.2477,9.2407,9.181,9.1248,9.1178,9.0862,9.0336,9.0587,9.0681,9.047,8.9986,8.9739,8.9729,8.9223,8.8742,8.8486,8.8416,8.8346,8.8018,8.8069,8.7813,8.7576,8.7389,8.7427,8.6877,8.667,8.7047,8.6998,8.7387,8.7745,8.7666,8.8733,8.8896,8.8486,8.9108,8.9143,8.8709,8.8405,8.8299,8.7948,8.7878,8.7878,8.7983,8.8054,8.8194,8.8861,8.9247,8.9458,9.0134,9.0598,9.0577,8.996,8.9826,8.9757,8.978,8.978,8.973,8.9433,8.9107,8.858,8.8323,8.8006,8.8157,8.8396,8.8577,8.8846,8.9146,8.932,8.9233,8.911,8.8934,8.881,8.8596,8.8275,8.8275,8.831,8.8329,8.8473,8.8792,8.8704,8.8349,8.8083,8.7072,8.6259,8.587,8.5322,8.4475,8.4229,8.4142,8.437,8.5054,8.4527,8.4035,8.4,8.37,8.3314,8.312,8.3066,8.2886,8.2761,8.2396,8.2059,8.2059,8.2024,8.1574,8.1332,8.1367,8.1228,8.0744,8.0617,8.1318,8.0766,7.9545,7.9372,9.2512,9.2442,9.181,9.1143,9.0581,9.1073,9.1213,9.1108,9.1802,9.1626,9.1125,9.0587,9.054,9.0597,8.9964,8.9518,8.9483,8.8991,8.885,8.8696,8.8689,8.8565,8.8356,8.8485,8.8358,8.8326,8.8187,8.7672,8.7523,8.7715,8.7929,8.7854,8.8768,8.9072,8.8967,8.9729,8.9847,8.9317,8.9317,8.8826,8.8194,8.8054,8.8054,8.8299,8.8475,8.8791,8.9423,8.9949,9.0371,9.1003,9.148,9.1212,9.0419,9.0872,9.0937,9.0752,9.064,9.0555,9.0467,8.9894,8.9131,8.8873,8.8522,8.839,8.8396,8.8487,8.8792,8.9146,8.9233,8.9198,8.9023,8.8846,8.8542,8.829,8.8037,8.8108,8.8305,8.8381,8.8454,8.8525,8.8632,8.8561,8.8365,8.785,8.7015,8.6305,8.5722,8.5265,8.516,8.4984,8.4632,8.4964,8.4613,8.4262,8.4137,8.3786,8.3206,8.2941,8.2851,8.267,8.2579,8.2211,8.1871,8.1905,8.1802,8.1456,8.1145,8.0904,8.0697,8.0558,8.0593,8.1121,8.1052,8.0075,8.0075,9.2512,9.2442,9.2021,9.16,9.1354,9.167,9.181,9.1916,9.2302,9.2232,9.1775,9.117,9.0994,9.1178,9.0546,9.0301,9.0195,8.9774,8.9563,8.9468,8.9547,8.9388,8.9402,8.9483,8.9114,8.9117,8.8775,8.8259,8.7873,8.783,8.7847,8.7771,8.8545,8.9319,8.9425,8.9988,9.0386,9.016,9.0301,8.9739,8.8896,8.8931,8.9037,8.9282,8.9388,8.9669,9.016,9.0722,9.1143,9.1635,9.2133,9.2069,9.1515,9.1544,9.1649,9.1404,9.1186,9.1029,9.1115,9.0622,8.9812,8.9565,8.9495,8.9505,8.9123,8.9179,8.9076,8.9395,8.9356,8.9233,8.9023,8.8721,8.8487,8.8234,8.8051,8.7994,8.8029,8.8086,8.8199,8.8325,8.8396,8.8305,8.8058,8.7544,8.6868,8.6671,8.6087,8.5736,8.5701,8.5842,8.5399,8.5014,8.4677,8.4236,8.3935,8.3515,8.2956,8.2761,8.267,8.2396,8.2245,8.1965,8.1776,8.181,8.1776,8.1543,8.1233,8.0923,8.0957,8.1121,8.0983,8.0948,8.0741,8.0707,8.0716,9.2512,9.2512,9.2477,9.2477,9.2477,9.2477,9.2477,9.2477,9.2512,9.2512,9.2372,9.1705,9.1494,9.1213,9.0862,9.0616,9.0476,9.0406,9.0371,9.038,9.0668,9.0325,9.0297,9.0414,9.0214,8.9807,8.9465,8.8671,8.8012,8.8142,8.8196,8.7693,8.8226,8.9072,8.9447,9.007,9.0668,9.0722,9.0827,9.0652,9.0441,9.0301,9.0195,9.023,9.0301,9.0652,9.1143,9.1424,9.1775,9.2126,9.2442,9.2407,9.2365,9.2216,9.2251,9.2145,9.1749,9.1669,9.1693,9.127,9.0917,9.074,9.0705,9.0352,8.9937,8.9837,8.9733,8.9609,8.9483,8.9146,8.897,8.8757,8.8487,8.8213,8.8029,8.7878,8.7878,8.7971,8.8029,8.8213,8.8121,8.8064,8.7783,8.7233,8.7093,8.686,8.6649,8.6263,8.6087,8.6333,8.6241,8.5531,8.5019,8.4542,8.3903,8.3241,8.274,8.2579,8.2488,8.2152,8.1871,8.1776,8.1776,8.1776,8.1646,8.1543,8.1413,8.1173,8.131,8.1405,8.1371,8.1164,8.1362,8.1267,8.1345,9.2512,9.2512,9.2512,9.2512,9.2512,9.2512,9.2512,9.2512,9.2512,9.2512,9.2442,9.2407,9.2267,9.2267,9.2196,9.1951,9.16,9.1354,9.1108,9.1178,9.1256,9.1116,9.1088,9.1311,9.146,9.1154,9.0638,9.0152,8.8975,8.9031,8.8767,8.7935,8.8426,8.9377,9.021,9.0773,9.131,9.1494,9.1775,9.1775,9.1494,9.1213,9.0722,9.0616,9.0511,9.1213,9.1705,9.1564,9.188,9.2329,9.2673,9.2806,9.2832,9.2848,9.2883,9.2777,9.2318,9.2578,9.2472,9.2011,9.1728,9.1892,9.1622,9.1033,9.0737,9.0758,9.0605,9.0267,8.9946,8.9272,8.8952,8.8703,8.8487,8.8121,8.7878,8.7878,8.7878,8.7971,8.7936,8.8029,8.8029,8.8029,8.8086,8.7748,8.7562,8.7457,8.7457,8.7106,8.6684,8.6895,8.6978,8.6231,8.545,8.46,8.3949,8.3091,8.2662,8.25,8.2303,8.2059,8.1871,8.1776,8.1776,8.1776,8.1612,8.1474,8.1345,8.1187,8.1016,8.0981,8.1318,8.1386,8.1585,8.1585,8.1393]},{"header":{"parameterUnit":"m.s-1","parameterCategory":1,"la1":31.0,"la2":29.5877,"lo1":-88.7671,"lo2":-86.6584,"dy":0.0162,"dx":0.0185,"nx":115,"ny":88,"refTime":"2023-11-21T18:00:00:Z","depth":0,"parameterNumber":3,"parameterNumberName":"V-component_of_WINDS"},"data":[0.0,0.0,0.0,0.0,0.0,0.0,0.0,0.0,0.0,0.0,0.0,0.0,0.0,0.0,0.0,0.0,0.0,0.0,0.0,0.0,0.0,0.0,0.0,0.0,0.0,0.0,0.0,0.0,0.0,0.0,0.0,0.0,0.0,0.0,0.0,0.0,0.0,0.0,0.0,0.0,0.0,0.0,0.0,0.0,0.0,0.0,0.0,0.0,0.0,0.0,0.0,0.0,0.0,0.0,0.0,0.0,0.0,0.0,0.0,0.0,0.0,0.0,0.0,0.0,0.0,0.0,0.0,0.0,0.0,0.0,0.0,0.0,0.0,0.0,0.0,0.0,0.0,0.0,0.0,0.0,0.0,0.0,0.0,0.0,0.0,0.0,0.0,0.0,0.0,0.0,0.0,0.0,0.0,0.0,0.0,0.0,0.0,0.0,0.0,0.0,0.0,0.0,0.0,0.0,0.0,0.0,0.0,0.0,0.0,0.0,0.0,0.0,0.0,0.0,0.0,0.0,0.0,0.0,0.0,0.0,0.0,0.0,0.0,0.0,0.0,0.0,0.0,0.0,0.0,0.0,0.0,0.0,0.0,0.0,0.0,0.0,0.0,0.0,0.0,0.0,0.0,0.0,0.0,0.0,0.0,0.0,0.0,0.0,0.0,0.0,0.0,0.0,0.0,0.0,0.0,0.0,0.0,0.0,0.0,0.0,0.0,0.0,0.0,0.0,0.0,0.0,0.0,0.0,0.0,0.0,0.0,0.0,0.0,0.0,0.0,0.0,0.0,0.0,0.0,0.0,0.0,0.0,0.0,0.0,0.0,0.0,0.0,0.0,0.0,0.0,0.0,0.0,0.0,0.0,0.0,0.0,0.0,0.0,0.0,0.0,0.0,0.0,0.0,0.0,0.0,0.0,0.0,0.0,0.0,0.0,0.0,0.0,0.0,0.0,0.0,0.0,0.0,0.0,0.0,0.0,0.0,0.0,0.0,0.0,0.0,0.0,0.0,0.0,0.0,0.0,0.0,0.0,0.0,0.0,0.0,0.0,0.0,0.0,0.0,0.0,0.0,0.0,0.0,0.0,0.0,0.0,0.0,0.0,0.0,0.0,0.0,0.0,0.0,0.0,0.0,0.0,0.0,0.0,0.0,0.0,0.0,0.0,0.0,0.0,0.0,0.0,0.0,0.0,0.0,0.0,0.0,0.0,0.0,0.0,0.0,0.0,0.0,0.0,0.0,0.0,0.0,0.0,0.0,0.0,0.0,0.0,0.0,0.0,0.0,0.0,0.0,0.0,0.0,0.0,0.0,0.0,0.0,0.0,0.0,0.0,0.0,0.0,0.0,0.0,0.0,0.0,0.0,0.0,0.0,0.0,0.0,0.0,0.0,0.0,0.0,0.0,0.0,0.0,0.0,0.0,0.0,0.0,0.0,0.0,0.0,0.0,0.0,0.0,0.0,0.0,0.0,0.0,0.0,0.0,0.0,0.0,0.0,0.0,0.0,0.0,0.0,0.0,0.0,0.0,0.0,0.0,0.0,0.0,0.0,0.0,0.0,0.0,0.0,0.0,0.0,0.0,0.0,0.0,0.0,0.0,0.0,0.0,0.0,0.0,0.0,0.0,0.0,0.0,0.0,0.0,0.0,0.0,0.0,0.0,0.0,0.0,0.0,0.0,0.0,0.0,0.0,0.0,0.0,0.0,0.0,0.0,0.0,0.0,0.0,0.0,0.0,0.0,0.0,0.0,0.0,0.0,0.0,0.0,0.0,0.0,0.0,0.0,0.0,0.0,0.0,0.0,0.0,0.0,0.0,0.0,0.0,0.0,0.0,0.0,0.0,0.0,0.0,0.0,0.0,0.0,0.0,0.0,0.0,0.0,0.0,0.0,0.0,0.0,0.0,0.0,0.0,0.0,0.0,0.0,0.0,0.0,0.0,0.0,0.0,0.0,0.0,0.0,0.0,0.0,0.0,0.0,0.0,0.0,0.0,0.0,0.0,0.0,0.0,0.0,0.0,0.0,0.0,0.0,0.0,0.0,0.0,0.0,0.0,0.0,0.0,0.0,0.0,0.0,0.0,0.0,0.0,0.0,0.0,0.0,0.0,0.0,0.0,0.0,0.0,0.0,0.0,0.0,0.0,0.0,0.0,0.0,0.0,0.0,0.0,0.0,0.0,0.0,0.0,0.0,0.0,0.0,0.0,0.0,0.0,0.0,0.0,0.0,0.0,0.0,0.0,0.0,0.0,0.0,0.0,0.0,0.0,0.0,0.0,0.0,0.0,0.0,0.0,0.0,0.0,0.0,0.0,0.0,0.0,0.0,0.0,0.0,0.0,0.0,0.0,0.0,0.0,0.0,0.0,0.0,0.0,0.0,0.0,0.0,0.0,0.0,0.0,0.0,0.0,0.0,0.0,0.0,0.0,0.0,0.0,0.0,0.0,0.0,0.0,0.0,0.0,0.0,0.0,0.0,0.0,0.0,0.0,0.0,0.0,0.0,0.0,0.0,0.0,0.0,0.0,0.0,0.0,0.0,0.0,0.0,0.0,0.0,0.0,0.0,0.0,0.0,0.0,0.0,0.0,0.0,0.0,0.0,0.0,0.0,0.0,0.0,0.0,0.0,0.0,0.0,0.0,0.0,0.0,0.0,0.0,0.0,0.0,0.0,0.0,0.0,0.0,0.0,0.0,0.0,0.0,0.0,0.0,0.0,0.0,0.0,0.0,0.0,0.0,0.0,0.0,0.0,0.0,0.0,0.0,0.0,0.0,0.0,0.0,0.0,0.0,0.0,0.0,0.0,0.0,0.0,0.0,0.0,0.0,0.0,0.0,0.0,0.0,0.0,0.0,0.0,0.0,0.0,0.0,0.0,0.0,0.0,0.0,0.0,0.0,0.0,0.0,0.0,0.0,0.0,0.0,0.0,0.0,0.0,0.0,0.0,0.0,0.0,0.0,0.0,0.0,0.0,0.0,0.0,0.0,0.0,0.0,0.0,0.0,0.0,0.0,0.0,0.0,0.0,0.0,0.0,0.0,0.0,0.0,0.0,0.0,0.0,0.0,0.0,0.0,0.0,0.0,0.0,0.0,0.0,0.0,0.0,0.0,0.0,0.0,0.0,0.0,0.0,0.0,0.0,0.0,0.0,0.0,0.0,0.0,0.0,0.0,0.0,0.0,0.0,0.0,0.0,0.0,0.0,0.0,0.0,0.0,0.0,0.0,0.0,0.0,0.0,0.0,0.0,0.0,0.0,0.0,0.0,0.0,0.0,0.0,0.0,0.0,0.0,0.0,0.0,0.0,0.0,0.0,0.0,0.0,0.0,0.0,0.0,0.0,0.0,0.0,0.0,0.0,0.0,0.0,0.0,0.0,0.0,0.0,0.0,0.0,0.0,0.0,0.0,0.0,0.0,0.0,0.0,0.0,0.0,0.0,0.0,0.0,0.0,0.0,0.0,0.0,0.0,0.0,0.0,0.0,0.0,0.0,0.0,0.0,0.0,0.0,0.0,0.0,0.0,0.0,0.0,0.0,0.0,0.0,0.0,0.0,0.0,0.0,0.0,0.0,0.0,0.0,0.0,0.0,0.0,0.0,0.0,0.0,0.0,0.0,0.0,0.0,0.0,0.0,0.0,0.0,0.0,0.0,0.0,0.0,0.0,0.0,0.0,0.0,0.0,0.0,0.0,0.0,0.0,0.0,0.0,0.0,0.0,0.0,0.0,0.0,0.0,0.0,0.0,0.0,0.0,0.0,0.0,0.0,0.0,0.0,0.0,0.0,0.0,0.0,0.0,0.0,0.0,0.0,0.0,0.0,0.0,0.0,0.0,0.0,0.0,0.0,0.0,0.0,0.0,0.0,0.0,0.0,0.0,0.0,0.0,0.0,0.0,0.0,0.0,0.0,0.0,0.0,0.0,0.0,0.0,0.0,0.0,0.0,0.0,0.0,0.0,0.0,0.0,0.0,0.0,0.0,0.0,0.0,0.0,0.0,0.0,0.0,0.0,0.0,0.0,0.0,0.0,0.0,0.0,0.0,0.0,0.0,0.0,0.0,0.0,0.0,0.0,0.0,0.0,0.0,0.0,0.0,0.0,0.0,0.0,0.0,0.0,0.0,0.0,0.0,0.0,0.0,0.0,0.0,0.0,0.0,0.0,0.0,0.0,0.0,0.0,0.0,0.0,0.0,0.0,0.0,0.0,0.0,0.0,0.0,0.0,0.0,0.0,0.0,0.0,0.0,0.0,0.0,0.0,0.0,0.0,0.0,0.0,0.0,0.0,-1.8008,0.0,0.0,0.0,0.0,0.0,0.0,0.0,0.0,0.0,0.0,0.0,0.0,0.0,0.0,0.0,0.0,0.0,0.0,0.0,0.0,0.0,0.0,0.0,0.0,0.0,0.0,0.0,0.0,0.0,0.0,0.0,0.0,0.0,0.0,0.0,0.0,0.0,0.0,0.0,0.0,0.0,0.0,0.0,0.0,0.0,0.0,0.0,0.0,0.0,0.0,0.0,0.0,0.0,0.0,0.0,0.0,0.0,0.0,0.0,0.0,0.0,0.0,0.0,0.0,0.0,0.0,0.0,0.0,0.0,0.0,0.0,0.0,0.0,0.0,0.0,0.0,0.0,0.0,0.0,0.0,0.0,0.0,0.0,0.0,0.0,0.0,0.0,0.0,0.0,0.0,0.0,0.0,0.0,0.0,0.0,0.0,0.0,0.0,0.0,0.0,0.0,0.0,0.0,0.0,0.0,0.0,0.0,0.0,0.0,0.0,-1.8815,-1.8633,-1.8223,-1.8008,-1.8008,0.0,0.0,0.0,0.0,0.0,0.0,0.0,0.0,0.0,0.0,0.0,0.0,0.0,0.0,0.0,0.0,0.0,0.0,0.0,0.0,0.0,0.0,0.0,0.0,0.0,0.0,0.0,0.0,0.0,0.0,0.0,0.0,0.0,0.0,0.0,0.0,0.0,0.0,0.0,0.0,0.0,0.0,0.0,0.0,0.0,0.0,0.0,0.0,0.0,0.0,0.0,0.0,0.0,0.0,0.0,0.0,0.0,0.0,0.0,0.0,0.0,0.0,0.0,0.0,0.0,0.0,0.0,0.0,0.0,0.0,0.0,0.0,0.0,0.0,0.0,0.0,0.0,0.0,0.0,0.0,0.0,0.0,0.0,0.0,0.0,0.0,0.0,0.0,0.0,0.0,0.0,0.0,0.0,0.0,0.0,0.0,0.0,0.0,0.0,0.0,0.0,0.0,0.0,0.0,0.0,0.0,0.0,0.0,0.0,0.0,0.0,0.0,-1.8407,-1.8095,-1.8095,0.0,0.0,0.0,0.0,0.0,0.0,0.0,0.0,0.0,0.0,0.0,0.0,0.0,0.0,0.0,0.0,0.0,0.0,0.0,0.0,0.0,0.0,0.0,0.0,0.0,0.0,0.0,0.0,0.0,0.0,0.0,0.0,0.0,0.0,0.0,0.0,0.0,0.0,0.0,0.0,0.0,0.0,0.0,0.0,0.0,0.0,0.0,0.0,0.0,0.0,0.0,0.0,0.0,0.0,0.0,0.0,0.0,0.0,0.0,0.0,0.0,0.0,0.0,0.0,0.0,0.0,0.0,0.0,0.0,0.0,0.0,0.0,0.0,0.0,0.0,0.0,0.0,0.0,0.0,0.0,0.0,0.0,0.0,0.0,0.0,0.0,0.0,0.0,0.0,0.0,0.0,0.0,0.0,0.0,0.0,0.0,0.0,0.0,0.0,0.0,0.0,0.0,0.0,0.0,0.0,0.0,0.0,0.0,0.0,0.0,-1.9574,-2.012,-1.8927,0.0,-1.8312,0.0,0.0,0.0,0.0,0.0,0.0,0.0,0.0,0.0,0.0,0.0,0.0,0.0,0.0,0.0,0.0,0.0,0.0,0.0,0.0,0.0,0.0,0.0,0.0,0.0,0.0,0.0,0.0,0.0,0.0,0.0,0.0,0.0,0.0,0.0,0.0,0.0,0.0,0.0,0.0,0.0,0.0,0.0,0.0,0.0,0.0,0.0,0.0,0.0,0.0,0.0,0.0,0.0,0.0,0.0,0.0,0.0,0.0,0.0,0.0,0.0,0.0,0.0,0.0,0.0,0.0,0.0,0.0,0.0,0.0,0.0,0.0,0.0,0.0,0.0,0.0,0.0,0.0,0.0,0.0,0.0,0.0,0.0,0.0,0.0,0.0,0.0,0.0,0.0,0.0,0.0,0.0,0.0,0.0,0.0,0.0,0.0,0.0,0.0,0.0,0.0,0.0,0.0,0.0,0.0,0.0,0.0,0.0,0.0,0.0,-2.0348,-2.0624,-1.9625,-1.8978,0.0,0.0,0.0,0.0,0.0,0.0,0.0,0.0,0.0,0.0,0.0,0.0,0.0,0.0,0.0,0.0,0.0,0.0,0.0,0.0,0.0,0.0,0.0,0.0,0.0,0.0,0.0,0.0,0.0,0.0,0.0,0.0,0.0,0.0,0.0,0.0,0.0,0.0,0.0,0.0,0.0,0.0,0.0,0.0,0.0,0.0,0.0,0.0,0.0,0.0,0.0,0.0,0.0,0.0,0.0,0.0,0.0,0.0,0.0,0.0,0.0,0.0,0.0,0.0,0.0,0.0,0.0,0.0,0.0,0.0,0.0,0.0,0.0,0.0,0.0,0.0,0.0,0.0,0.0,0.0,0.0,0.0,0.0,0.0,0.0,0.0,0.0,0.0,0.0,0.0,0.0,0.0,0.0,0.0,0.0,0.0,0.0,0.0,0.0,0.0,0.0,0.0,0.0,0.0,0.0,0.0,0.0,0.0,0.0,0.0,-2.1073,-2.0876,-2.076,-2.0187,-1.9521,-1.899,0.0,0.0,0.0,0.0,0.0,0.0,0.0,0.0,0.0,0.0,0.0,0.0,0.0,0.0,0.0,0.0,0.0,0.0,0.0,0.0,0.0,0.0,0.0,0.0,0.0,0.0,0.0,0.0,0.0,0.0,0.0,0.0,0.0,0.0,0.0,0.0,0.0,0.0,0.0,0.0,0.0,0.0,0.0,0.0,0.0,0.0,0.0,0.0,0.0,0.0,0.0,0.0,0.0,0.0,0.0,0.0,0.0,0.0,0.0,0.0,0.0,0.0,0.0,0.0,0.0,0.0,0.0,0.0,0.0,0.0,0.0,0.0,0.0,0.0,0.0,0.0,0.0,0.0,0.0,0.0,0.0,0.0,0.0,0.0,0.0,0.0,0.0,0.0,0.0,0.0,0.0,0.0,0.0,0.0,0.0,0.0,0.0,0.0,0.0,0.0,0.0,0.0,0.0,0.0,0.0,0.0,0.0,0.0,-2.2291,-2.147,-2.0799,-2.0664,-2.0391,-1.9908,0.0,0.0,0.0,0.0,0.0,0.0,0.0,0.0,0.0,0.0,0.0,0.0,0.0,0.0,0.0,0.0,0.0,0.0,0.0,0.0,0.0,0.0,0.0,0.0,0.0,0.0,0.0,0.0,0.0,0.0,0.0,0.0,0.0,0.0,0.0,0.0,0.0,0.0,0.0,0.0,0.0,0.0,0.0,0.0,0.0,0.0,0.0,0.0,0.0,0.0,0.0,0.0,0.0,0.0,0.0,0.0,0.0,0.0,0.0,0.0,0.0,0.0,0.0,0.0,0.0,0.0,0.0,0.0,0.0,0.0,0.0,0.0,0.0,0.0,0.0,0.0,0.0,0.0,0.0,0.0,0.0,0.0,0.0,0.0,0.0,0.0,0.0,0.0,0.0,0.0,0.0,0.0,0.0,0.0,0.0,0.0,0.0,0.0,0.0,0.0,0.0,0.0,0.0,0.0,0.0,0.0,0.0,0.0,0.0,-2.1805,-2.1784,-2.1827,-2.201,-2.1252,-2.0641,0.0,0.0,0.0,0.0,0.0,0.0,0.0,0.0,0.0,0.0,0.0,0.0,0.0,0.0,0.0,0.0,0.0,0.0,0.0,0.0,0.0,0.0,0.0,0.0,0.0,0.0,0.0,0.0,0.0,0.0,0.0,0.0,0.0,0.0,0.0,0.0,0.0,0.0,0.0,0.0,0.0,0.0,0.0,0.0,0.0,0.0,0.0,0.0,0.0,0.0,0.0,0.0,0.0,0.0,0.0,0.0,0.0,0.0,0.0,0.0,0.0,0.0,0.0,0.0,0.0,0.0,0.0,0.0,0.0,0.0,0.0,0.0,0.0,0.0,0.0,0.0,0.0,0.0,0.0,0.0,0.0,0.0,0.0,0.0,0.0,0.0,0.0,0.0,0.0,0.0,0.0,0.0,0.0,0.0,0.0,0.0,0.0,0.0,0.0,0.0,0.0,0.0,0.0,0.0,0.0,0.0,0.0,0.0,0.0,-2.1941,0.0,-2.2534,0.0,-2.1709,-2.1033,0.0,0.0,0.0,0.0,0.0,0.0,0.0,0.0,0.0,0.0,0.0,0.0,0.0,0.0,0.0,0.0,0.0,0.0,0.0,0.0,0.0,0.0,0.0,0.0,0.0,0.0,0.0,0.0,0.0,0.0,0.0,0.0,0.0,0.0,0.0,0.0,0.0,0.0,0.0,0.0,0.0,0.0,0.0,0.0,0.0,0.0,0.0,0.0,0.0,0.0,0.0,0.0,0.0,0.0,0.0,0.0,0.0,0.0,0.0,0.0,0.0,0.0,0.0,0.0,0.0,0.0,0.0,0.0,0.0,0.0,0.0,0.0,0.0,0.0,0.0,0.0,0.0,0.0,0.0,0.0,0.0,0.0,0.0,0.0,0.0,0.0,0.0,0.0,0.0,0.0,0.0,0.0,0.0,0.0,0.0,0.0,0.0,0.0,0.0,0.0,0.0,0.0,0.0,0.0,0.0,0.0,0.0,0.0,-2.1767,-2.2839,-2.2872,-2.2848,-2.2593,-2.1727,-2.084,0.0,0.0,0.0,0.0,0.0,0.0,0.0,0.0,0.0,0.0,0.0,0.0,0.0,0.0,0.0,0.0,0.0,0.0,0.0,0.0,0.0,0.0,0.0,0.0,0.0,0.0,0.0,0.0,0.0,0.0,0.0,0.0,0.0,0.0,0.0,0.0,0.0,0.0,0.0,0.0,0.0,0.0,0.0,0.0,0.0,0.0,0.0,0.0,0.0,0.0,0.0,0.0,0.0,0.0,0.0,0.0,0.0,0.0,0.0,0.0,0.0,0.0,0.0,0.0,0.0,0.0,0.0,0.0,0.0,0.0,0.0,0.0,0.0,0.0,0.0,0.0,0.0,0.0,0.0,0.0,0.0,0.0,0.0,0.0,0.0,0.0,0.0,0.0,0.0,0.0,0.0,0.0,0.0,0.0,0.0,0.0,0.0,0.0,0.0,0.0,0.0,0.0,0.0,0.0,0.0,0.0,0.0,0.0,0.0,-2.3329,-2.3418,-2.3547,-2.358,-2.2458,-2.1843,0.0,0.0,0.0,0.0,0.0,0.0,0.0,0.0,0.0,0.0,0.0,0.0,0.0,0.0,0.0,0.0,0.0,0.0,0.0,0.0,0.0,0.0,0.0,0.0,0.0,0.0,0.0,0.0,0.0,0.0,0.0,0.0,0.0,0.0,0.0,0.0,0.0,0.0,0.0,0.0,0.0,0.0,0.0,0.0,0.0,0.0,0.0,0.0,0.0,0.0,0.0,0.0,0.0,0.0,0.0,0.0,0.0,0.0,0.0,0.0,0.0,0.0,0.0,0.0,0.0,0.0,0.0,0.0,0.0,0.0,0.0,0.0,0.0,0.0,0.0,0.0,0.0,0.0,0.0,0.0,0.0,0.0,0.0,0.0,0.0,0.0,0.0,0.0,0.0,0.0,0.0,0.0,0.0,0.0,0.0,0.0,0.0,0.0,0.0,0.0,0.0,0.0,0.0,0.0,0.0,0.0,0.0,0.0,0.0,-2.5067,-2.4937,-2.4776,-2.4623,-2.3672,-2.2834,-2.2031,0.0,0.0,0.0,0.0,0.0,0.0,0.0,0.0,0.0,0.0,0.0,0.0,0.0,0.0,0.0,0.0,0.0,0.0,0.0,0.0,0.0,0.0,0.0,0.0,0.0,0.0,0.0,0.0,0.0,0.0,0.0,0.0,0.0,0.0,0.0,0.0,0.0,0.0,0.0,0.0,0.0,0.0,0.0,0.0,0.0,0.0,0.0,0.0,0.0,0.0,0.0,0.0,0.0,0.0,0.0,0.0,0.0,0.0,0.0,0.0,0.0,0.0,0.0,0.0,0.0,0.0,0.0,0.0,0.0,0.0,0.0,0.0,0.0,0.0,0.0,0.0,0.0,0.0,0.0,0.0,0.0,0.0,0.0,0.0,0.0,0.0,0.0,0.0,0.0,0.0,0.0,0.0,0.0,0.0,0.0,0.0,0.0,0.0,0.0,0.0,0.0,0.0,0.0,0.0,0.0,0.0,0.0,0.0,-2.7743,-2.718,-2.648,-2.5599,-2.5179,-2.3801,0.0,0.0,0.0,0.0,0.0,0.0,0.0,0.0,0.0,0.0,0.0,0.0,0.0,0.0,0.0,0.0,0.0,0.0,0.0,0.0,0.0,0.0,0.0,0.0,0.0,0.0,0.0,0.0,0.0,0.0,0.0,0.0,0.0,0.0,0.0,0.0,0.0,0.0,0.0,0.0,0.0,0.0,0.0,0.0,0.0,0.0,0.0,0.0,0.0,0.0,0.0,0.0,0.0,0.0,0.0,0.0,0.0,0.0,0.0,0.0,0.0,0.0,0.0,0.0,0.0,0.0,0.0,0.0,0.0,0.0,0.0,0.0,0.0,0.0,0.0,0.0,0.0,0.0,0.0,0.0,0.0,0.0,0.0,0.0,0.0,0.0,0.0,0.0,0.0,0.0,0.0,0.0,0.0,0.0,0.0,0.0,0.0,0.0,0.0,0.0,0.0,0.0,0.0,0.0,0.0,0.0,0.0,0.0,0.0,-2.8226,-2.9719,-2.9648,-2.8055,-2.6462,-2.4946,0.0,0.0,0.0,0.0,0.0,0.0,0.0,0.0,0.0,0.0,0.0,0.0,0.0,0.0,0.0,0.0,0.0,0.0,0.0,0.0,0.0,0.0,0.0,0.0,0.0,0.0,0.0,0.0,0.0,0.0,0.0,0.0,0.0,0.0,0.0,0.0,0.0,0.0,0.0,0.0,0.0,0.0,0.0,0.0,0.0,0.0,0.0,0.0,0.0,0.0,0.0,0.0,0.0,0.0,0.0,0.0,0.0,0.0,0.0,0.0,0.0,0.0,0.0,0.0,0.0,0.0,0.0,0.0,0.0,0.0,0.0,0.0,0.0,0.0,0.0,0.0,0.0,0.0,0.0,0.0,0.0,0.0,0.0,0.0,0.0,0.0,0.0,0.0,0.0,0.0,0.0,0.0,0.0,0.0,0.0,0.0,0.0,0.0,0.0,0.0,0.0,0.0,0.0,0.0,0.0,0.0,0.0,0.0,-2.8321,-2.9557,-3.1171,-3.1552,-3.0623,-2.8732,-2.655,0.0,0.0,0.0,0.0,0.0,0.0,0.0,0.0,0.0,0.0,0.0,0.0,0.0,0.0,0.0,0.0,0.0,0.0,0.0,0.0,0.0,0.0,0.0,0.0,0.0,0.0,0.0,0.0,0.0,0.0,0.0,0.0,0.0,0.0,0.0,0.0,0.0,0.0,0.0,0.0,0.0,0.0,0.0,0.0,0.0,0.0,0.0,0.0,0.0,0.0,0.0,0.0,0.0,0.0,0.0,0.0,0.0,0.0,0.0,0.0,0.0,0.0,0.0,0.0,0.0,0.0,0.0,0.0,0.0,0.0,0.0,0.0,0.0,0.0,0.0,0.0,0.0,0.0,0.0,0.0,0.0,0.0,0.0,0.0,0.0,0.0,0.0,0.0,0.0,0.0,0.0,0.0,0.0,0.0,0.0,0.0,0.0,0.0,0.0,0.0,0.0,0.0,0.0,0.0,0.0,0.0,0.0,0.0,-2.9371,-3.1191,-3.2056,-3.2744,-3.2935,-3.106,-2.823,0.0,0.0,0.0,0.0,0.0,0.0,0.0,0.0,0.0,0.0,0.0,0.0,0.0,0.0,0.0,0.0,0.0,0.0,0.0,0.0,0.0,0.0,0.0,0.0,0.0,0.0,0.0,0.0,0.0,0.0,0.0,0.0,0.0,0.0,0.0,0.0,0.0,0.0,0.0,0.0,0.0,0.0,0.0,0.0,0.0,0.0,0.0,0.0,0.0,0.0,0.0,0.0,0.0,0.0,0.0,0.0,0.0,0.0,0.0,0.0,0.0,0.0,0.0,0.0,0.0,0.0,0.0,0.0,0.0,0.0,0.0,0.0,0.0,0.0,0.0,0.0,0.0,0.0,0.0,0.0,0.0,0.0,0.0,0.0,0.0,0.0,0.0,0.0,0.0,0.0,0.0,0.0,0.0,0.0,0.0,0.0,0.0,0.0,0.0,0.0,0.0,0.0,0.0,0.0,0.0,0.0,0.0,0.0,-3.0378,-3.1696,-3.3046,-3.3596,-3.3206,-3.1039,-2.8766,0.0,0.0,0.0,0.0,0.0,0.0,0.0,0.0,0.0,0.0,0.0,0.0,0.0,0.0,0.0,0.0,0.0,0.0,0.0,0.0,0.0,0.0,0.0,0.0,0.0,0.0,0.0,0.0,0.0,0.0,0.0,0.0,0.0,0.0,0.0,0.0,0.0,0.0,0.0,0.0,0.0,0.0,0.0,0.0,0.0,0.0,0.0,0.0,-1.7363,0.0,0.0,0.0,0.0,0.0,0.0,0.0,0.0,0.0,0.0,0.0,0.0,0.0,0.0,0.0,0.0,0.0,0.0,0.0,0.0,0.0,0.0,0.0,0.0,0.0,0.0,0.0,0.0,0.0,0.0,0.0,0.0,0.0,0.0,0.0,0.0,0.0,0.0,0.0,0.0,0.0,0.0,0.0,0.0,0.0,0.0,0.0,0.0,0.0,0.0,0.0,0.0,0.0,0.0,0.0,0.0,0.0,0.0,0.0,-3.1191,-3.2572,-3.3849,-3.4145,-3.3395,-3.1856,-2.9893,0.0,0.0,0.0,0.0,0.0,0.0,0.0,0.0,0.0,0.0,0.0,0.0,0.0,0.0,0.0,0.0,0.0,0.0,0.0,0.0,0.0,0.0,0.0,0.0,0.0,0.0,0.0,0.0,0.0,0.0,0.0,0.0,0.0,0.0,0.0,0.0,0.0,0.0,0.0,0.0,0.0,0.0,0.0,0.0,0.0,0.0,0.0,0.0,0.0,0.0,0.0,0.0,0.0,0.0,0.0,0.0,0.0,0.0,0.0,0.0,0.0,0.0,0.0,0.0,0.0,0.0,0.0,0.0,0.0,0.0,0.0,0.0,0.0,0.0,0.0,0.0,0.0,0.0,0.0,0.0,0.0,0.0,0.0,0.0,0.0,0.0,0.0,0.0,0.0,0.0,0.0,0.0,0.0,0.0,0.0,0.0,0.0,0.0,0.0,0.0,0.0,0.0,0.0,0.0,0.0,0.0,0.0,-3.0724,-3.1953,-3.3506,-3.4448,-3.4697,-3.3872,-3.2984,-3.1127,-2.8239,0.0,0.0,0.0,0.0,0.0,0.0,0.0,0.0,0.0,0.0,0.0,0.0,0.0,0.0,0.0,0.0,0.0,0.0,0.0,0.0,0.0,0.0,0.0,0.0,0.0,0.0,0.0,0.0,0.0,0.0,0.0,0.0,0.0,0.0,0.0,0.0,0.0,0.0,-1.8837,-1.9507,0.0,0.0,0.0,0.0,0.0,0.0,0.0,0.0,-1.7705,0.0,0.0,0.0,0.0,0.0,0.0,0.0,0.0,0.0,0.0,0.0,0.0,0.0,0.0,0.0,0.0,0.0,0.0,0.0,0.0,0.0,0.0,0.0,0.0,0.0,0.0,0.0,0.0,0.0,0.0,0.0,0.0,0.0,0.0,0.0,0.0,0.0,0.0,0.0,0.0,0.0,0.0,0.0,0.0,0.0,0.0,0.0,0.0,0.0,0.0,0.0,0.0,0.0,0.0,0.0,0.0,-3.2126,-3.2289,-3.3276,-3.4941,-3.5451,-3.5272,-3.4397,-3.341,-3.1817,-2.946,0.0,0.0,0.0,0.0,0.0,0.0,0.0,0.0,0.0,0.0,0.0,0.0,0.0,0.0,0.0,0.0,0.0,0.0,0.0,0.0,0.0,0.0,0.0,0.0,0.0,0.0,0.0,0.0,0.0,0.0,0.0,0.0,0.0,0.0,0.0,0.0,0.0,0.0,0.0,-2.1259,-2.1407,0.0,0.0,0.0,0.0,0.0,0.0,0.0,0.0,-1.7445,0.0,0.0,0.0,0.0,0.0,0.0,0.0,0.0,0.0,0.0,0.0,0.0,0.0,0.0,0.0,0.0,0.0,0.0,0.0,0.0,0.0,0.0,0.0,0.0,0.0,0.0,0.0,0.0,0.0,0.0,0.0,0.0,0.0,0.0,0.0,0.0,0.0,0.0,0.0,0.0,0.0,0.0,0.0,0.0,0.0,0.0,0.0,0.0,0.0,0.0,0.0,0.0,0.0,0.0,0.0,-3.2209,-3.3032,-3.4184,-3.5566,-3.6113,-3.5711,-3.466,-3.3225,-3.1463,0.0,0.0,0.0,0.0,0.0,0.0,0.0,0.0,0.0,0.0,0.0,0.0,0.0,0.0,0.0,0.0,0.0,0.0,0.0,0.0,0.0,0.0,0.0,0.0,0.0,0.0,0.0,0.0,0.0,0.0,0.0,0.0,0.0,0.0,0.0,0.0,0.0,0.0,0.0,0.0,-2.1645,-2.1915,-2.2132,0.0,0.0,0.0,0.0,0.0,0.0,-1.8823,-1.8526,0.0,0.0,0.0,0.0,0.0,0.0,0.0,0.0,0.0,0.0,0.0,0.0,0.0,0.0,0.0,0.0,0.0,0.0,0.0,0.0,0.0,0.0,0.0,0.0,0.0,0.0,0.0,0.0,0.0,0.0,0.0,0.0,0.0,0.0,0.0,0.0,0.0,0.0,0.0,0.0,0.0,0.0,0.0,0.0,0.0,0.0,0.0,0.0,0.0,0.0,0.0,0.0,0.0,0.0,0.0,-3.2126,-3.3669,-3.4906,-3.6035,-3.658,-3.6303,-3.51,-3.3151,-3.1202,0.0,0.0,0.0,0.0,0.0,0.0,0.0,0.0,0.0,0.0,0.0,0.0,0.0,0.0,0.0,0.0,0.0,0.0,0.0,0.0,0.0,0.0,0.0,0.0,0.0,0.0,0.0,0.0,0.0,0.0,0.0,0.0,0.0,0.0,0.0,0.0,0.0,0.0,0.0,0.0,0.0,-2.25,-2.2733,-2.2638,0.0,0.0,0.0,0.0,-1.972,-1.998,0.0,0.0,0.0,0.0,0.0,0.0,0.0,0.0,0.0,0.0,0.0,0.0,0.0,0.0,0.0,0.0,0.0,0.0,0.0,0.0,0.0,0.0,0.0,0.0,0.0,0.0,0.0,0.0,0.0,0.0,0.0,0.0,0.0,0.0,0.0,0.0,0.0,0.0,0.0,0.0,0.0,0.0,0.0,0.0,0.0,0.0,0.0,0.0,0.0,0.0,0.0,0.0,0.0,0.0,0.0,0.0,-3.255,-3.4412,-3.572,-3.6562,-3.7306,-3.7042,-3.554,-3.4091,-3.2279,0.0,0.0,0.0,0.0,0.0,0.0,0.0,0.0,0.0,0.0,0.0,0.0,0.0,0.0,0.0,0.0,0.0,0.0,0.0,0.0,0.0,0.0,0.0,0.0,0.0,0.0,0.0,0.0,0.0,0.0,0.0,0.0,0.0,0.0,0.0,0.0,0.0,0.0,0.0,0.0,0.0,-2.3996,-2.4104,-2.3865,-2.3238,0.0,0.0,-2.1128,-2.0232,-2.0798,0.0,0.0,0.0,0.0,0.0,0.0,0.0,0.0,0.0,0.0,0.0,0.0,0.0,0.0,0.0,0.0,0.0,0.0,0.0,0.0,0.0,0.0,0.0,0.0,0.0,0.0,0.0,0.0,0.0,0.0,0.0,0.0,0.0,0.0,0.0,0.0,0.0,0.0,0.0,0.0,0.0,0.0,0.0,0.0,0.0,0.0,0.0,0.0,0.0,0.0,0.0,0.0,0.0,0.0,0.0,-3.0983,-3.2653,-3.477,-3.6222,-3.6973,-3.7595,-3.744,-3.6311,-3.3792,-3.1828,0.0,0.0,0.0,0.0,0.0,0.0,0.0,0.0,0.0,0.0,0.0,0.0,0.0,0.0,0.0,0.0,0.0,0.0,0.0,0.0,0.0,0.0,0.0,0.0,0.0,0.0,0.0,0.0,0.0,0.0,0.0,0.0,0.0,0.0,0.0,0.0,0.0,0.0,0.0,0.0,0.0,0.0,-2.4456,-2.4686,0.0,0.0,0.0,-2.2719,-2.2247,0.0,0.0,0.0,0.0,0.0,0.0,0.0,0.0,0.0,0.0,0.0,0.0,0.0,0.0,0.0,0.0,0.0,0.0,0.0,0.0,0.0,0.0,0.0,0.0,0.0,0.0,0.0,0.0,0.0,0.0,0.0,0.0,0.0,0.0,0.0,0.0,0.0,0.0,0.0,0.0,0.0,0.0,0.0,0.0,0.0,0.0,0.0,0.0,0.0,0.0,0.0,0.0,0.0,0.0,0.0,0.0,0.0,-3.2662,-3.5187,-3.6669,-3.7416,-3.7874,-3.7727,-3.6916,-3.4065,0.0,0.0,0.0,0.0,0.0,0.0,0.0,0.0,0.0,0.0,0.0,0.0,0.0,0.0,0.0,0.0,0.0,0.0,0.0,0.0,0.0,0.0,0.0,0.0,0.0,0.0,0.0,-1.6988,0.0,0.0,0.0,0.0,0.0,0.0,0.0,0.0,0.0,0.0,0.0,0.0,0.0,0.0,-2.4861,-2.4907,-2.5687,-2.5951,0.0,0.0,-2.4336,-2.3846,-2.4022,-2.365,0.0,0.0,0.0,0.0,0.0,0.0,0.0,0.0,0.0,0.0,0.0,0.0,0.0,0.0,0.0,0.0,0.0,0.0,0.0,0.0,0.0,0.0,0.0,0.0,0.0,0.0,0.0,0.0,0.0,0.0,0.0,0.0,0.0,0.0,0.0,0.0,0.0,0.0,0.0,0.0,0.0,0.0,0.0,0.0,0.0,0.0,0.0,0.0,0.0,0.0,0.0,0.0,0.0,0.0,0.0,-3.2431,-3.5429,-3.7292,-3.7855,-3.8291,-3.8139,-3.7356,-3.5961,-3.4184,0.0,0.0,0.0,0.0,0.0,0.0,0.0,0.0,0.0,0.0,0.0,0.0,0.0,0.0,0.0,0.0,0.0,0.0,0.0,0.0,0.0,0.0,0.0,0.0,0.0,0.0,0.0,0.0,0.0,0.0,0.0,0.0,0.0,0.0,0.0,0.0,0.0,0.0,0.0,0.0,0.0,-2.5951,-2.5951,-2.7034,-2.7382,0.0,0.0,-2.5343,-2.4512,-2.5285,-2.5135,-2.2784,0.0,0.0,0.0,0.0,0.0,0.0,0.0,0.0,0.0,0.0,0.0,0.0,0.0,0.0,0.0,0.0,0.0,0.0,0.0,0.0,0.0,0.0,0.0,0.0,0.0,0.0,0.0,0.0,0.0,0.0,0.0,0.0,0.0,0.0,0.0,0.0,0.0,0.0,0.0,0.0,0.0,0.0,0.0,0.0,0.0,0.0,0.0,0.0,0.0,0.0,0.0,0.0,0.0,-3.0942,-3.2077,-3.4843,-3.6697,-3.7492,-3.7915,-3.8001,-3.7778,-3.6294,-3.4538,0.0,0.0,0.0,0.0,0.0,0.0,0.0,0.0,0.0,0.0,0.0,0.0,0.0,0.0,0.0,0.0,0.0,0.0,0.0,0.0,0.0,0.0,0.0,0.0,0.0,0.0,0.0,0.0,-1.785,-1.7939,-1.8506,0.0,0.0,0.0,0.0,0.0,0.0,0.0,0.0,0.0,0.0,-2.6123,-2.6219,-2.7054,0.0,0.0,-2.6637,-2.5921,-2.5133,-2.5028,-2.4593,-2.3486,-2.19,0.0,0.0,0.0,0.0,0.0,0.0,0.0,0.0,0.0,0.0,0.0,0.0,0.0,0.0,0.0,0.0,0.0,0.0,0.0,0.0,0.0,0.0,0.0,0.0,0.0,0.0,0.0,0.0,0.0,0.0,0.0,0.0,0.0,0.0,0.0,0.0,0.0,0.0,0.0,0.0,0.0,0.0,0.0,0.0,0.0,0.0,0.0,0.0,0.0,0.0,0.0,0.0,-3.0844,-3.1919,-3.4531,-3.6533,-3.7743,-3.7895,-3.7995,-3.8144,-3.6865,-3.5327,0.0,0.0,0.0,0.0,0.0,0.0,0.0,0.0,0.0,0.0,0.0,0.0,0.0,0.0,0.0,0.0,0.0,0.0,0.0,0.0,0.0,0.0,0.0,0.0,0.0,0.0,0.0,0.0,-1.8273,-1.8404,-1.8957,0.0,0.0,0.0,0.0,0.0,0.0,0.0,0.0,0.0,0.0,-2.6474,-2.6641,-2.7193,-2.768,-2.768,-2.6892,-2.633,-2.5928,-2.4999,-2.4285,-2.3848,0.0,0.0,0.0,0.0,0.0,0.0,0.0,0.0,0.0,0.0,0.0,0.0,0.0,0.0,0.0,0.0,0.0,0.0,0.0,0.0,0.0,0.0,0.0,0.0,0.0,0.0,0.0,0.0,0.0,0.0,-1.9682,0.0,0.0,0.0,0.0,0.0,0.0,0.0,0.0,0.0,0.0,0.0,0.0,0.0,0.0,0.0,0.0,0.0,0.0,0.0,0.0,0.0,0.0,-3.0774,-3.2148,-3.4576,-3.6682,-3.8538,-3.8195,-3.8124,-3.8566,-3.8163,-3.6957,-3.4789,0.0,0.0,0.0,0.0,0.0,0.0,0.0,0.0,0.0,0.0,0.0,0.0,0.0,0.0,0.0,0.0,0.0,0.0,0.0,0.0,0.0,0.0,0.0,0.0,0.0,0.0,-1.8245,-1.8294,-1.8614,0.0,0.0,0.0,0.0,0.0,0.0,0.0,0.0,0.0,0.0,-2.5809,-2.6957,-2.7349,-2.7813,-2.806,-2.806,-2.7173,-2.6456,-2.6513,-2.5705,-2.4875,0.0,0.0,0.0,0.0,0.0,0.0,0.0,0.0,0.0,0.0,0.0,0.0,0.0,0.0,0.0,0.0,0.0,0.0,0.0,0.0,0.0,0.0,0.0,0.0,0.0,0.0,0.0,-2.1829,-2.1829,0.0,0.0,0.0,0.0,0.0,0.0,0.0,0.0,0.0,0.0,0.0,-2.8014,-2.8634,0.0,0.0,0.0,0.0,0.0,0.0,0.0,0.0,0.0,0.0,0.0,0.0,-3.049,-3.186,-3.4317,-3.6393,-3.8139,-3.7995,-3.8227,-3.8621,-3.8236,-3.6901,-3.4511,0.0,0.0,0.0,0.0,0.0,0.0,0.0,0.0,0.0,0.0,0.0,0.0,0.0,0.0,0.0,0.0,0.0,0.0,0.0,0.0,0.0,0.0,0.0,0.0,0.0,-2.0301,0.0,0.0,0.0,0.0,0.0,0.0,0.0,0.0,0.0,0.0,0.0,-2.3874,-2.4481,-2.5732,-2.6747,-2.6987,-2.7441,-2.7849,0.0,0.0,0.0,0.0,0.0,0.0,0.0,0.0,0.0,0.0,0.0,0.0,0.0,0.0,-2.0427,-2.0016,-1.9418,-1.9021,-1.9021,0.0,0.0,0.0,0.0,0.0,0.0,0.0,0.0,0.0,0.0,0.0,0.0,0.0,0.0,-2.3825,0.0,-2.4034,0.0,0.0,0.0,0.0,0.0,0.0,0.0,0.0,-2.7826,-2.9189,-3.0426,-3.0831,-3.1283,0.0,-3.0969,-2.9947,0.0,0.0,0.0,0.0,0.0,0.0,0.0,0.0,-3.0392,-3.1616,-3.4331,-3.6383,-3.7968,-3.7969,-3.8218,-3.8621,-3.8108,-3.6824,-3.5,-3.2448,-3.0464,0.0,0.0,0.0,0.0,0.0,0.0,0.0,0.0,0.0,0.0,0.0,0.0,0.0,0.0,0.0,0.0,0.0,0.0,0.0,0.0,0.0,0.0,0.0,-2.0898,0.0,0.0,0.0,0.0,0.0,0.0,0.0,0.0,0.0,-2.3155,-2.3841,-2.4541,-2.5111,-2.6251,-2.7005,-2.709,0.0,0.0,0.0,0.0,0.0,0.0,0.0,-2.5338,-2.5741,-2.5069,-2.4827,-2.5622,-2.475,-2.3803,-2.3856,0.0,0.0,-2.2035,-2.1405,-2.0994,-2.1219,-2.0384,-2.0202,-2.2085,-2.2436,-2.2729,0.0,0.0,0.0,0.0,0.0,0.0,0.0,0.0,-2.5703,-2.5697,0.0,-2.6406,0.0,0.0,0.0,0.0,0.0,-2.6457,0.0,0.0,-3.1757,-3.301,-3.218,-3.245,-3.2894,-3.3496,-3.2855,-3.2428,-3.2148,-2.9766,0.0,0.0,0.0,0.0,0.0,0.0,-3.0684,-3.1712,-3.4562,-3.6713,-3.7986,-3.7988,-3.8236,-3.8603,-3.7869,-3.7062,-3.6201,-3.4312,-3.2399,-3.0774,-2.8824,0.0,0.0,0.0,0.0,0.0,0.0,0.0,0.0,0.0,0.0,0.0,0.0,0.0,0.0,0.0,0.0,0.0,0.0,0.0,0.0,-2.0979,0.0,0.0,0.0,0.0,0.0,0.0,0.0,0.0,0.0,0.0,-2.4439,-2.4585,-2.5111,-2.6202,0.0,0.0,0.0,0.0,-2.7738,-2.7992,-2.7574,-2.7276,-2.7651,-2.721,-2.6985,-2.7279,0.0,0.0,-2.6568,-2.5413,-2.4599,-2.4469,-2.4577,-2.4134,-2.2914,-2.2886,-2.308,-2.3453,-2.3319,-2.3572,-2.3619,-2.3925,-2.4118,-3.0562,0.0,0.0,0.0,0.0,-2.6583,-2.7561,-2.8923,-2.9517,-2.9582,-2.9287,-2.9774,0.0,0.0,0.0,0.0,0.0,0.0,-2.9692,-3.1361,-3.2944,-3.439,-3.5297,-3.5724,-3.5918,-3.5723,-3.5159,-3.4906,-3.4863,-3.3535,-3.1719,-2.9492,0.0,0.0,0.0,0.0,-3.1646,-3.3398,-3.5219,-3.6831,-3.8024,-3.8264,-3.8511,-3.864,-3.8126,-3.7466,-3.6677,-3.4974,-3.3495,-3.2052,-3.0086,0.0,0.0,0.0,0.0,0.0,0.0,0.0,0.0,0.0,0.0,0.0,0.0,0.0,0.0,0.0,0.0,0.0,0.0,0.0,-2.3109,-2.2462,-2.2061,0.0,0.0,0.0,0.0,0.0,0.0,0.0,0.0,0.0,-2.6285,-2.6276,-2.6293,0.0,0.0,-2.7866,-2.8056,-2.8394,-2.8793,-2.9533,-2.9513,0.0,-2.9872,-2.9355,-2.8939,-2.9322,-2.8854,-2.8357,-2.8067,-2.7251,-2.655,-2.6334,-2.5827,-2.5317,-2.5037,-2.4597,-2.4168,-2.4253,-2.4267,-2.465,-2.5677,-2.5993,-2.6115,-3.3834,-3.1384,-3.0352,-2.9511,-2.9143,-2.956,-3.0461,-3.1917,-3.2128,-3.2298,-3.2244,-3.2715,-3.1778,-2.9867,-2.937,0.0,0.0,0.0,-3.1948,-3.395,-3.4816,-3.6073,-3.7402,-3.7695,-3.7676,-3.7402,-3.6973,-3.6699,-3.6523,-3.5644,-3.4316,-3.25,0.0,0.0,-3.0644,-3.1539,-3.272,-3.4089,-3.5805,-3.707,-3.7736,-3.8375,-3.864,-3.864,-3.8401,-3.7961,-3.7319,-3.608,-3.4811,-3.3593,-3.1799,-3.0284,0.0,0.0,0.0,0.0,0.0,0.0,0.0,0.0,0.0,0.0,0.0,-2.2924,-2.2427,0.0,0.0,0.0,-2.3814,-2.398,-2.398,-2.3419,0.0,0.0,0.0,0.0,0.0,0.0,0.0,-2.4739,-2.5362,-2.6287,-2.7594,-2.7765,-2.7799,-2.8054,-2.8338,-2.8711,-2.9048,0.0,-2.9783,-3.0455,-3.0501,-3.0549,-3.0974,-3.0779,-3.0649,-3.0711,-3.0213,-2.9555,-2.8801,-2.8223,-2.7732,-2.7393,-2.6954,-2.6576,-2.6503,-2.6052,-2.5622,-2.5525,-2.5569,-2.6186,-2.7169,-2.7447,-2.7629,-3.6549,-3.565,-3.326,-3.2178,-3.2221,-3.2372,-3.31,-3.4312,-3.3973,-3.4101,-3.4721,-3.5201,-3.428,-3.2111,-3.1011,0.0,-3.2577,-3.3196,-3.445,-3.6289,-3.7051,-3.7851,-3.8672,-3.8691,-3.8672,-3.8672,-3.8281,-3.7891,-3.75,-3.6719,-3.6191,-3.6132,-3.4167,-3.2902,-3.2578,-3.3181,-3.3804,-3.4407,-3.6455,-3.7403,-3.7521,-3.8255,-3.864,-3.864,-3.864,-3.8438,-3.8016,-3.7319,-3.6399,-3.5229,-3.3872,-3.2574,-3.1377,0.0,0.0,0.0,0.0,0.0,0.0,0.0,0.0,0.0,0.0,0.0,0.0,0.0,0.0,0.0,-2.4335,0.0,-2.4335,-2.4202,0.0,0.0,0.0,-2.5396,-2.5622,-2.6075,-2.633,-2.6231,0.0,0.0,-2.8449,-2.9036,-2.9295,-2.9257,-2.9642,-2.9921,-3.0138,-3.0326,-3.0665,-3.1314,-3.1104,-3.0974,-3.1377,-3.1646,-3.174,-3.1355,-3.109,-3.0284,-2.9303,-2.8836,-2.8505,-2.7978,-2.773,-2.7434,-2.7438,-2.7329,-2.7364,-2.7038,-2.7271,-2.7554,-2.7866,-2.8251,-2.8653,-3.8181,-3.7411,-3.6782,-3.5779,-3.4752,-3.5049,-3.5575,-3.6067,-3.6274,-3.6436,-3.6608,-3.71,-3.6716,-3.5879,-3.5588,-3.5724,-3.6092,-3.5879,-3.6774,-3.8398,-3.832,-3.873,-3.957,-3.957,-3.957,-3.957,-3.9473,-3.9375,-3.9277,-3.8767,-3.8503,-3.8464,-3.7383,-3.6119,-3.4662,-3.4656,-3.5107,-3.6211,-3.6978,-3.7631,-3.8328,-3.8548,-3.864,-3.864,-3.864,-3.8438,-3.8034,-3.7522,-3.6769,-3.5533,-3.4612,-3.3408,-3.1853,-3.0738,0.0,0.0,0.0,0.0,0.0,0.0,0.0,0.0,0.0,-2.3818,-2.4133,0.0,-2.5964,0.0,-2.6111,-2.6004,-2.6004,-2.6019,0.0,0.0,-2.6499,-2.6816,-2.7222,-2.7486,-2.7761,-2.7779,-2.8069,-2.8659,-2.9633,-3.0095,-3.05,-3.1125,-3.0726,-3.0645,-3.0988,-3.1186,-3.1549,-3.1993,-3.1873,-3.1833,-3.2024,-3.2065,-3.1919,-3.1603,-3.1174,-3.061,-2.9882,-2.9197,-2.8747,-2.8359,-2.7748,-2.7589,-2.7798,-2.7777,-2.785,-2.7993,-2.7997,-2.7968,-2.8276,-2.835,-2.8591,-3.9245,-3.8823,-3.8823,-3.8338,-3.7422,-3.6941,-3.698,-3.7297,-3.7334,-3.7371,-3.7611,-3.8009,-3.8098,-3.8078,-3.7881,-3.7896,-3.8105,-3.7767,-3.8127,-3.9174,-3.9005,-3.9105,-3.9567,-3.9759,-3.9893,-3.9852,-3.9719,-3.9623,-3.9581,-3.9108,-3.8956,-3.8956,-3.8255,-3.7576,-3.6626,-3.6193,-3.6514,-3.7352,-3.7528,-3.7998,-3.8621,-3.864,-3.864,-3.864,-3.864,-3.853,-3.831,-3.7951,-3.7395,-3.674,-3.5845,-3.4721,-3.3721,-3.2356,-3.1121,0.0,0.0,0.0,0.0,0.0,0.0,0.0,0.0,0.0,0.0,0.0,-2.7438,-2.7826,-2.8029,-2.814,-2.814,-2.8273,-2.8436,-2.892,-2.9016,-2.9207,-2.9704,-2.9561,-2.9478,-2.9798,-2.978,-3.0003,-3.0811,-3.0969,-3.1229,-3.1716,-3.1549,-3.1458,-3.169,-3.1756,-3.1715,-3.2235,-3.2298,-3.2174,-3.2174,-3.2174,-3.2052,-3.1405,-3.1314,-3.0986,-3.0171,-2.9641,-2.9218,-2.8871,-2.8168,-2.7602,-2.8052,-2.8043,-2.8216,-2.8515,-2.8686,-2.8769,-2.8651,-2.8637,-2.885,-3.9923,-3.9923,-3.9868,-3.9868,-3.9813,-3.8346,-3.7924,-3.8218,-3.7888,-3.7896,-3.834,-3.8747,-3.9121,-3.9284,-3.9062,-3.9082,-3.9375,-3.887,-3.8971,-3.9413,-3.9298,-3.9315,-3.9391,-3.9732,-3.9888,-3.9893,-3.9603,-3.9451,-3.9433,-3.8993,-3.8802,-3.8745,-3.8438,-3.8093,-3.8038,-3.7704,-3.7704,-3.8056,-3.808,-3.8273,-3.8621,-3.864,-3.864,-3.864,-3.864,-3.864,-3.864,-3.8291,-3.8053,-3.7979,-3.7007,-3.6201,-3.5705,-3.4312,-3.2973,0.0,-3.0803,0.0,0.0,0.0,0.0,0.0,0.0,0.0,0.0,-2.8315,-2.903,-2.9415,-3.0008,-3.0334,-3.0334,-3.0635,-3.1127,-3.2019,-3.1969,-3.2069,-3.2544,-3.2079,-3.1854,-3.2098,-3.1795,-3.1625,-3.2244,-3.1699,-3.1542,-3.1838,-3.195,-3.1925,-3.2057,-3.1864,-3.1869,-3.2205,-3.2039,-3.1843,-3.2009,-3.2009,-3.1737,-3.1123,-3.1242,-3.1106,-3.0145,-3.0026,-2.9977,-2.9556,-2.8631,-2.8201,-2.846,-2.8489,-2.8561,-2.8748,-2.9341,-2.9588,-2.9178,-2.9047,-2.933,-4.0179,-3.9811,-3.9485,-3.954,-3.9775,-3.9177,-3.9104,-3.9502,-3.941,-3.9714,-4.0037,-4.0922,-4.0817,-4.0357,-4.0569,-4.0527,-4.0254,-3.9449,-3.9548,-4.0259,-3.9565,-3.9485,-3.9788,-3.9864,-4.0035,-4.042,-4.0281,-4.0432,-4.0678,-4.0358,-4.0029,-3.9729,-3.9215,-3.889,-3.842,0.0,0.0,0.0,-3.8493,-3.8566,-3.864,-3.864,-3.864,-3.864,-3.864,0.0,-3.864,-3.8566,-3.8365,-3.8034,-3.7796,0.0,0.0,0.0,0.0,0.0,0.0,0.0,0.0,0.0,0.0,0.0,-3.0461,-3.002,-2.925,-3.0461,-3.1488,-3.1873,-3.1983,-3.2151,-3.2151,-3.2482,-3.2924,-3.3413,-3.4066,-3.4595,-3.4989,-3.5131,-3.5375,-3.5434,-3.4348,-3.3742,-3.3651,-3.2874,-3.2133,-3.2211,-3.1899,-3.1617,-3.1737,-3.1768,-3.1963,-3.2038,-3.1509,-3.1179,-3.0984,-3.1164,-3.1135,-3.091,-3.0895,-3.0763,-3.0483,-3.0366,-3.0218,-2.9822,-2.9456,-2.905,-2.9123,-2.9137,-2.9093,-2.8875,-2.9471,-2.9822,-2.9705,-2.9996,-3.0171,-4.0367,0.0,-3.9784,-3.9898,0.0,-3.988,-4.0232,-4.0712,-4.0161,-4.0158,-4.0562,-4.0903,-4.1086,-4.0865,-4.1005,-4.0933,-4.0509,-3.9831,-3.9807,-4.0186,-3.9524,-3.9477,-3.9869,-3.9869,-4.0141,-4.0508,-4.0347,-4.0459,-4.0828,-4.034,-4.0066,-3.9881,-3.97,-3.9428,-3.9245,-3.9245,-3.9043,-3.864,-3.8841,-3.8933,-3.8933,-3.9135,-3.9245,-3.9226,0.0,0.0,0.0,0.0,0.0,0.0,0.0,0.0,0.0,-3.6531,0.0,-3.477,-3.3945,-3.323,-3.2625,-3.2386,-3.2533,-3.3138,-3.356,-3.3266,-3.2056,-3.2918,-3.3743,-3.4312,-3.4385,-3.4458,-3.4678,-3.4737,-3.4866,-3.5285,-3.5431,-3.5681,-3.5911,-3.6096,-3.6131,-3.5815,-3.5197,-3.4559,-3.4222,-3.3111,-3.2242,-3.2258,-3.1692,-3.1386,-3.1401,-3.1534,-3.1653,-3.1638,-3.1351,-3.1007,-3.0861,-3.0817,-3.0817,-3.0817,-3.0817,-3.0759,-3.0612,-3.0451,-3.029,-3.0115,-2.9676,-2.9297,-2.9312,-2.9413,-2.9485,-2.9384,-2.9836,-3.032,-3.032,-3.0248,-3.0203,-4.0726,-4.019,-4.0404,-4.0225,-4.0323,-4.0323,-4.0862,-4.161,0.0,0.0,0.0,-4.0711,-4.0834,-4.1103,-4.1103,-4.1038,-4.0641,-4.016,-4.0018,-3.9999,-3.9498,-3.952,-3.9832,-3.9832,-4.005,-4.0451,-4.0105,-4.0161,-4.0562,-4.0216,-4.0015,-3.996,-3.996,-3.9923,-3.985,-3.9832,-3.952,-3.8896,-3.9171,-3.9336,-3.9355,-3.9667,-3.9832,-3.9832,-3.9832,-3.9685,-3.9355,-3.9336,-3.919,-3.8878,-3.853,-3.8273,-3.8108,-3.7503,-3.6787,-3.5999,-3.5577,-3.5045,-3.4403,-3.4642,-3.5045,-3.5522,-3.6143,-3.6088,-3.5027,-3.5247,-3.5779,-3.6567,-3.6641,-3.6806,-3.7075,-3.6732,-3.6723,-3.7018,-3.6729,-3.6622,-3.6727,-3.6737,-3.6713,-3.6029,-3.5517,-3.4833,-3.4341,-3.3006,-3.2174,-3.2039,-3.1509,-3.13,-3.1359,-3.1344,-3.1285,-3.1212,-3.1139,-3.1095,-3.0905,-3.0905,-3.089,-3.0832,-3.0876,-3.089,-3.0803,-3.0612,-3.0451,-3.0437,-2.9847,-2.9497,-2.9482,-2.9655,-2.9828,-2.9785,-3.0238,-3.0803,-3.0715,-3.0378,-3.0233,-4.0596,-4.0246,-4.0193,-3.9983,-3.9686,-4.0221,-4.06,-4.1152,-4.1294,-4.1427,-4.1464,-4.1546,-4.1341,-4.117,-4.1518,-4.1474,-4.0914,-4.059,-4.0409,0.0,-3.9921,-3.9795,-3.9832,-3.9832,-4.0033,-4.0529,-4.0382,-4.0565,-4.1026,-4.0877,-4.0712,-4.0418,-4.0382,-4.0217,-3.9868,-3.9832,-3.9795,-3.9685,-3.9722,-3.9758,-3.9758,-3.9813,-3.9832,-3.9832,-3.985,-3.9813,-3.9758,-3.9758,-3.9722,-3.9667,-3.9612,-3.9281,-3.8603,-3.8438,-3.8016,-3.7246,-3.6806,-3.6531,-3.6421,-3.6457,-3.6806,-3.7558,-3.7873,-3.7837,-3.7136,-3.7062,-3.7429,-3.8199,-3.8152,-3.8317,-3.8184,-3.795,-3.7863,-3.8202,-3.8217,-3.823,-3.8512,-3.8715,-3.86,-3.7865,-3.7044,-3.5875,-3.4636,-3.3109,-3.2009,-3.1662,-3.1268,-3.1095,-3.1476,-3.1476,-3.1212,-3.0964,-3.089,-3.0876,-3.089,-3.1081,-3.1124,-3.0861,-3.1066,-3.1139,-3.0949,-3.0832,-3.0759,-3.0759,-3.051,-3.0334,-3.0127,-3.0305,-3.029,-2.9967,-3.0466,-3.0729,-3.0554,-3.0539,-3.0642,-4.0663,-4.01,-4.0086,-4.0071,-3.9896,-4.0611,-4.1132,-4.1287,-4.1604,-4.1721,-4.1702,-4.1413,-4.1415,-4.1434,-4.1379,-4.1229,-4.0692,-4.0509,-4.0509,-4.0509,-4.0345,-4.029,-4.0492,-4.0492,-4.0581,-4.0681,-4.0746,-4.0819,-4.0996,-4.1001,-4.0969,-4.0804,-4.0785,-4.0694,-4.051,-4.051,-4.051,-4.0492,-4.029,-4.018,-4.018,-4.04,-4.051,-4.0492,-4.051,-4.04,-4.0198,-4.018,-4.0088,-3.985,-3.9832,-3.9667,-3.9318,-3.9281,-3.9025,-3.8438,-3.8236,-3.7988,-3.7674,-3.7914,-3.824,-3.8797,-3.9027,-3.9116,-3.894,-3.8491,-3.8509,-3.9066,-3.9138,-3.9102,-3.8754,-3.8412,-3.8212,-3.8188,-3.8215,-3.824,-3.8432,-3.8441,-3.8254,-3.757,-3.6476,-3.5308,-3.4274,-3.2928,-3.2009,-3.1497,-3.1283,-3.1168,-3.13,-3.1461,-3.1534,-3.1388,-3.1344,-3.1271,-3.1154,-3.1359,-3.1476,-3.1359,-3.1315,-3.1329,-3.1285,-3.1227,-3.111,-3.1081,-3.0949,-3.0803,-3.0656,-3.0778,-3.0854,-3.0481,-3.0733,-3.1061,-3.0822,-3.0895,-3.1135,-4.0825,-4.0001,-4.0151,-4.0207,-4.0297,-4.1001,-4.1298,-4.1539,-4.1505,-4.1641,-4.1941,-4.1354,-4.1299,-4.1629,-4.1244,-4.095,-4.0749,-4.0639,-4.0657,-4.0749,-4.0749,-4.095,-4.1317,-4.1335,-4.1385,-4.1179,-4.1178,-4.1141,-4.1188,-4.1123,-4.128,-4.1207,-4.1115,-4.106,-4.106,-4.106,-4.106,-4.1042,-4.0749,-4.0602,-4.062,-4.0914,-4.106,-4.106,-4.106,-4.0914,-4.062,-4.0602,-4.0455,-4.0143,-4.0107,-4.0107,-3.9942,-3.9942,-3.9814,-3.9359,-3.9323,-3.9196,-3.8994,-3.9182,-3.9377,-3.9766,-3.9889,-4.0048,-4.0278,-3.9735,-3.9454,-3.9766,-3.9848,-3.9554,-3.936,-3.881,-3.8484,-3.8142,-3.7927,-3.7708,-3.7742,-3.7622,-3.7213,-3.6458,-3.5754,-3.4774,-3.3597,-3.2716,-3.2009,-3.136,-3.1278,-3.1198,-3.1139,-3.1505,-3.1783,-3.1885,-3.1856,-3.1681,-3.1476,-3.1695,-3.1841,-3.1827,-3.1681,-3.1651,-3.171,-3.1549,-3.1388,-3.1315,-3.1285,-3.1124,-3.089,-3.1135,-3.1286,-3.1091,-3.1286,-3.1301,-3.0969,-3.1301,-3.1662,-4.0703,-4.0121,-4.0344,-4.0635,-4.0681,-4.0663,-4.1002,-4.1383,-4.1142,-4.1723,-4.2564,-4.1574,-4.1317,-4.1592,-4.1262,-4.1244,-4.15,-4.117,-4.1207,-4.1537,-4.1574,-4.1776,-4.2106,-4.2142,-4.2197,-4.2061,-4.1641,-4.1778,-4.2042,-4.1641,-4.1442,-4.1629,-4.1244,-4.1079,-4.1079,-4.106,-4.106,-4.106,-4.1024,-4.1005,-4.1005,-4.1042,-4.106,-4.106,-4.106,-4.1042,-4.0987,-4.1005,-4.0987,-4.095,-4.0932,-4.0764,-4.0259,-4.0259,-4.009,-3.9547,-3.9547,-3.9689,-4.0026,-4.0132,-4.0172,-4.0717,-4.0526,-4.0541,-4.0611,-4.048,-4.0555,-4.0544,-4.0451,-4.0034,-3.9914,-3.9391,-3.8906,-3.8512,-3.8014,-3.7569,-3.7569,-3.7258,-3.6781,-3.5906,-3.5395,-3.4534,-3.315,-3.2539,-3.1873,-3.1042,-3.1212,-3.1461,-3.1593,-3.1783,-3.1959,-3.2105,-3.2017,-3.1827,-3.1768,-3.2032,-3.2105,-3.1915,-3.2017,-3.2046,-3.1929,-3.1827,-3.1681,-3.1874,-3.1344,-3.1242,-3.1145,-3.115,-3.1482,-3.1497,-3.1482,-3.1316,-3.0984,-3.1497,-3.2009,-4.1183,-4.0703,-4.0618,-4.0679,-4.0687,-4.0659,-4.0823,-4.1002,-4.1137,-4.1503,-4.2087,-4.1805,-4.2014,-4.2344,-4.1721,-4.1647,-4.1996,-4.161,-4.1647,-4.2014,-4.2051,-4.2179,-4.2243,-4.2326,-4.2316,-4.2152,-4.1967,-4.2033,-4.2196,-4.2033,-4.2024,-4.2014,-4.1629,-4.1427,-4.1409,-4.1189,-4.106,-4.106,-4.106,-4.106,-4.106,-4.106,-4.106,-4.106,-4.106,-4.106,-4.106,-4.106,-4.0983,-4.1032,-4.1069,-4.0818,-4.0535,-4.0553,-4.0553,-4.0398,-4.0263,-4.0263,-4.0438,-4.0471,-4.0485,-4.0641,-4.0618,-4.0704,-4.0704,-4.0679,-4.061,-4.0693,-4.0312,-4.0103,-3.9789,-3.9165,-3.8666,-3.8234,-3.7893,-3.7447,-3.7291,-3.6773,-3.6296,-3.5783,-3.5248,-3.4604,-3.329,-3.2541,-3.1796,-3.1351,-3.1534,-3.1856,-3.1841,-3.212,-3.2324,-3.2295,-3.231,-3.2193,-3.1959,-3.2251,-3.2354,-3.2207,-3.2193,-3.2222,-3.2703,-3.2525,-3.255,-3.2573,-3.2223,-3.1985,-3.2023,-3.1783,-3.1828,-3.1843,-3.1662,-3.1482,-3.1316,-3.1497,-3.1828,-4.1423,-4.1012,-4.0703,-4.0583,-4.0549,-4.0652,-4.0711,-4.0837,-4.1196,-4.1441,-4.1706,-4.2142,-4.2481,-4.27,-4.2197,-4.2069,-4.2362,-4.2032,-4.2069,-4.2417,-4.2436,-4.2582,-4.2609,-4.2674,-4.2542,-4.2549,-4.2524,-4.2396,-4.2243,-4.2444,-4.2436,-4.2381,-4.2032,-4.1849,-4.1812,-4.1427,-4.1225,-4.1225,-4.1134,-4.106,-4.1079,-4.117,-4.117,-4.1079,-4.106,-4.1097,-4.1038,-4.1056,-4.105,-4.0916,-4.0934,-4.0767,-4.0808,-4.0843,-4.0702,-4.0825,-4.0733,-4.0711,-4.0711,-4.061,-4.0583,-4.0583,-4.0583,-4.0583,-4.0583,-4.0583,-4.0583,-4.0532,-4.0155,-3.971,-3.9488,-3.8868,-3.8285,-3.767,-3.7464,-3.7119,-3.6773,-3.6443,-3.6015,-3.5741,-3.5269,-3.464,-3.3629,-3.28,-3.1955,-3.183,-3.2072,-3.2222,-3.2061,-3.2383,-3.2661,-3.2456,-3.2632,-3.2559,-3.2193,-3.2412,-3.2602,-3.2529,-3.2441,-3.269,-3.344,-3.3216,-3.3195,-3.3188,-3.3052,-3.2684,-3.2553,-3.2419,-3.2554,-3.2493,-3.2312,-3.1934,-3.1677,-3.1828,-3.1994,-4.1268,-4.0652,-4.0583,-4.0583,-4.0566,-4.0549,-4.0912,-4.1221,-4.0872,-4.1265,-4.1852,-4.2101,-4.2351,-4.2818,-4.2444,-4.2472,-4.2747,-4.2436,-4.2454,-4.2821,-4.2839,-4.3059,-4.3444,-4.3444,-4.3444,-4.3284,-4.3033,-4.2818,-4.2854,-4.2864,-4.2839,-4.2821,-4.2436,-4.2252,-4.2197,-4.1849,-4.1666,-4.1629,-4.1317,-4.1097,-4.1152,-4.1482,-4.1482,-4.117,-4.1097,-4.1111,-4.0872,-4.0926,-4.0934,-4.0806,-4.0824,-4.0825,-4.0646,-4.0698,-4.0676,-4.0627,-4.0515,-4.0549,-4.0532,-4.0566,-4.0583,-4.0583,-4.0583,-4.0583,-4.0583,-4.0583,-4.0583,-4.0583,-3.9967,-3.9556,-3.9402,-3.8489,-3.772,-3.7464,-3.6789,-3.6443,-3.6286,-3.5922,-3.5748,-3.5478,-3.5224,-3.4735,-3.4032,-3.3136,-3.2609,-3.2327,-3.2422,-3.228,-3.2324,-3.2573,-3.2719,-3.2734,-3.2734,-3.2749,-3.2719,-3.2881,-3.2911,-3.2823,-3.2925,-3.2896,-3.3264,-3.3601,-3.3595,-3.3618,-3.3655,-3.3456,-3.2901,-3.3044,-3.3398,-3.3442,-3.3166,-3.2906,-3.2342,-3.2535,-3.2685,-4.1268,-4.0583,-4.0583,-4.0583,-4.0583,-4.0583,-4.0765,-4.0929,-4.0988,-4.1186,-4.1634,-4.1888,-4.2264,-4.273,-4.2637,-4.2937,-4.3224,-4.2839,-4.2876,-4.3243,-4.3279,-4.3353,-4.3463,-4.3481,-4.3481,-4.3499,-4.3321,-4.3303,-4.3284,-4.3334,-4.3261,-4.3206,-4.2858,-4.2656,-4.2582,-4.2271,-4.2069,-4.2051,-4.1904,-4.1659,-4.1315,-4.146,-4.146,-4.1333,-4.1315,-4.1215,-4.0802,-4.082,-4.0824,-4.0683,-4.0701,-4.0698,-4.0687,-4.0559,-4.061,-4.0566,-4.0583,-4.0583,-4.0583,-4.0583,-4.0583,-4.0583,-4.0583,-4.0583,-4.0583,-4.0583,-4.0583,-4.0481,-3.9779,-3.9405,-3.9015,-3.8247,-3.7291,-3.6773,-3.6443,-3.6112,-3.5922,-3.5748,-3.5573,-3.5526,-3.5256,-3.4814,-3.4174,-3.3475,-3.2916,-3.2767,-3.2555,-3.2368,-3.2559,-3.2719,-3.2763,-3.2763,-3.2763,-3.294,-3.3293,-3.3293,-3.3264,-3.313,-3.326,-3.3395,-3.3646,-3.4174,-3.4386,-3.4324,-3.4374,-3.4219,-3.3815,-3.3847,-3.4218,-3.4092,-3.3997,-3.352,-3.3057,-3.2949,-3.3006,-4.1166,-4.0635,-4.0583,-4.0583,-4.0583,-4.0583,-4.0583,-4.0583,-4.0963,-4.1145,-4.1145,-4.1489,-4.2029,-4.2389,-4.2389,-4.2748,-4.2927,-4.2833,-4.3029,-4.3284,-4.3124,-4.3124,-4.3303,-4.3303,-4.3303,-4.3499,-4.3481,-4.3481,-4.3481,-4.3481,-4.3481,-4.3463,-4.3188,-4.3059,-4.3004,-4.2656,-4.2454,-4.228,-4.217,-4.1905,-4.1593,-4.1702,-4.1756,-4.1774,-4.1882,-4.1706,-4.123,-4.1054,-4.0878,-4.0855,-4.0728,-4.067,-4.0549,-4.0583,-4.0583,-4.0583,-4.0583,-4.0583,-4.0583,-4.0583,-4.0583,-4.0583,-4.0583,-4.0583,-4.0583,-4.0583,-4.0583,-4.0498,-3.9881,-3.915,-3.8569,-3.7825,-3.7078,-3.6475,-3.6096,-3.5922,-3.5573,-3.5573,-3.5573,-3.5558,-3.5383,-3.5067,-3.4674,-3.4142,-3.3639,-3.33,-3.2791,-3.272,-3.2719,-3.2763,-3.2763,-3.2763,-3.2763,-3.3132,-3.347,-3.3646,-3.3646,-3.3716,-3.3656,-3.3952,-3.4174,-3.4525,-3.4859,-3.5003,-3.5083,-3.4941,-3.4956,-3.4798,-3.4672,-3.4716,-3.4482,-3.4233,-3.3797,-3.338,-3.3406,-4.096,-4.0601,-4.0583,-4.0583,-4.0583,-4.0635,-4.0601,-4.0635,-4.0635,-4.0834,-4.0851,-4.1145,-4.1325,-4.1506,-4.1867,-4.2029,-4.2192,-4.2515,-4.2712,-4.2748,-4.2389,-4.2389,-4.2945,-4.2927,-4.3124,-4.3481,-4.3481,-4.3481,-4.3481,-4.3481,-4.3499,-4.3481,-4.3481,-4.3408,-4.3481,-4.2882,-4.2682,-4.2098,-4.1864,-4.1666,-4.1629,-4.199,-4.2152,-4.2189,-4.2477,-4.2495,-4.2171,-4.1639,-4.1443,-4.1221,-4.0912,-4.0583,-4.0583,-4.0583,-4.0583,-4.0583,-4.0583,-4.0583,-4.0583,-4.0583,-4.0583,-4.0583,-4.0583,-4.0583,-4.0583,-4.0583,-4.0583,-4.0351,-3.9734,-3.9004,-3.8102,-3.7369,-3.6642,-3.635,-3.5922,-3.5748,-3.5573,-3.5573,-3.5573,-3.5573,-3.5526,-3.5383,-3.5034,-3.4719,-3.434,-3.3716,-3.3541,-3.338,-3.3102,-3.294,-3.2763,-3.2763,-3.294,-3.3117,-3.3646,-3.4174,-3.4174,-3.4158,-3.4319,-3.4349,-3.4525,-3.4875,-3.505,-3.5193,-3.5367,-3.5241,-3.5241,-3.5099,-3.5051,-3.4941,-3.4877,-3.4751,-3.4482,-3.4045,-3.3976,-4.0943,-4.0601,-4.0583,-4.0583,-4.0618,-4.0875,-4.0994,-4.0977,-4.0994,-4.0994,-4.0943,-4.0885,-4.0946,-4.1325,-4.1506,-4.1669,-4.2029,-4.1867,-4.1867,-4.2209,-4.2029,-4.2209,-4.2748,-4.2748,-4.3124,-4.3481,-4.3481,-4.3481,-4.3481,-4.3481,-4.3303,-4.3124,-4.3321,-4.3124,-4.2568,-4.2621,-4.2567,-4.2192,-4.2263,-4.2209,-4.1853,-4.2317,-4.2567,-4.2585,-4.2694,-4.2872,-4.2942,-4.221,-4.1905,-4.1849,-4.1669,-4.1489,-4.1145,-4.0765,-4.0583,-4.0583,-4.0583,-4.0583,-4.0583,-4.0583,-4.0583,-4.0583,-4.0583,-4.0583,-4.0583,-4.0583,-4.0402,-4.0237,-3.9556,-3.8729,-3.7826,-3.7063,-3.6547,-3.5828,-3.5748,-3.5573,-3.5573,-3.5573,-3.5573,-3.5573,-3.5573,-3.5573,-3.5367,-3.5083,-3.4672,-3.4463,-3.4006,-3.358,-3.3762,-3.347,-3.3293,-3.3293,-3.3117,-3.3293,-3.3998,-3.4349,-3.4525,-3.47,-3.4875,-3.47,-3.4875,-3.505,-3.5225,-3.5399,-3.5399,-3.5573,-3.5573,-3.5542,-3.5288,-3.5273,-3.5367,-3.5176,-3.4938,-3.47,-3.4477,-4.0943,-4.0601,-4.0583,-4.0669,-4.0823,-4.108,-4.1183,-4.1183,-4.1183,-4.1097,-4.0909,-4.0703,-4.0765,-4.0946,-4.0946,-4.1127,-4.1489,-4.1127,-4.1127,-4.1489,-4.1669,-4.2029,-4.2586,-4.2945,-4.3124,-4.3499,-4.3481,-4.3481,-4.3481,-4.3481,-4.3303,-4.2945,-4.3124,-4.2766,-4.2029,-4.2389,-4.2209,-4.1849,-4.2192,-4.2389,-4.2209,-4.2568,-4.2945,-4.3124,-4.3124,-4.3124,-4.3481,-4.2945,-4.2389,-4.2209,-4.2029,-4.1669,-4.1325,-4.0765,-4.0583,-4.0583,-4.0583,-4.0583,-4.0583,-4.0583,-4.0583,-4.0583,-4.0583,-4.0583,-4.0583,-4.0402,-4.0237,-3.9873,-3.9308,-3.853,-3.7662,-3.7029,-3.6352,-3.5844,-3.5653,-3.5589,-3.5573,-3.5573,-3.5573,-3.5573,-3.5573,-3.5573,-3.5336,-3.5257,-3.4626,-3.4622,-3.434,-3.4058,-3.4128,-3.3998,-3.3822,-3.3646,-3.3646,-3.3822,-3.4349,-3.47,-3.4875,-3.505,-3.5399,-3.5225,-3.5225,-3.5225,-3.5399,-3.5399,-3.5573,-3.5573,-3.5573,-3.5573,-3.5542,-3.5573,-3.5573,-3.543,-3.5208,-3.5033,-3.4811,-4.0977,-4.0635,-4.0618,-4.0806,-4.108,-4.1149,-4.1183,-4.1183,-4.1183,-4.0994,-4.072,-4.0618,-4.0583,-4.0583,-4.0765,-4.0765,-4.0583,-4.0765,-4.0765,-4.0765,-4.1145,-4.1687,-4.2209,-4.2945,-4.3481,-4.3481,-4.3481,-4.3481,-4.3481,-4.3481,-4.3303,-4.2748,-4.2748,-4.2389,-4.2029,-4.1849,-4.1849,-4.1506,-4.1849,-4.2029,-4.2209,-4.2568,-4.3124,-4.3481,-4.3481,-4.3499,-4.3499,-4.3303,-4.3124,-4.2748,-4.2047,-4.1506,-4.1325,-4.0963,-4.0765,-4.0583,-4.0583,-4.0583,-4.0583,-4.0583,-4.0583,-4.0583,-4.0583,-4.0583,-4.0402,-4.0237,-3.9873,-3.969,-3.8958,-3.8262,-3.7692,-3.7157,-3.6431,-3.6098,-3.5732,-3.5589,-3.5573,-3.5573,-3.5573,-3.5573,-3.5573,-3.5399,-3.5225,-3.5367,-3.5018,-3.4684,-3.4669,-3.4669,-3.4509,-3.4349,-3.4349,-3.4174,-3.3998,-3.4174,-3.4525,-3.47,-3.4875,-3.5225,-3.5573,-3.5573,-3.5399,-3.5573,-3.5573,-3.5573,-3.5573,-3.5573,-3.5573,-3.5573,-3.5573,-3.5573,-3.5573,-3.5573,-3.5478,-3.5272,-3.5097,-4.1741,-4.1029,-4.1012,-4.0909,-4.0806,-4.1046,-4.1183,-4.1183,-4.1183,-4.1114,-4.096,-4.0703,-4.0601,-4.0583,-4.0583,-4.0583,-4.0583,-4.0583,-4.0583,-4.0765,-4.1145,-4.1506,-4.2209,-4.2945,-4.3481,-4.3481,-4.3481,-4.3481,-4.3481,-4.3481,-4.3142,-4.2209,-4.2604,-4.2227,-4.1127,-4.136,-4.1506,-4.1325,-4.1687,-4.2227,-4.2586,-4.2945,-4.3321,-4.3481,-4.3481,-4.3481,-4.3481,-4.3481,-4.3481,-4.3321,-4.2766,-4.2209,-4.1849,-4.1325,-4.0946,-4.0583,-4.0583,-4.0583,-4.0583,-4.0583,-4.0583,-4.0583,-4.0583,-4.0402,-4.0055,-4.0055,-3.9508,-3.8958,-3.8408,-3.8079,-3.736,-3.6813,-3.6368,-3.5828,-3.5637,-3.5573,-3.5573,-3.5573,-3.5573,-3.5573,-3.5573,-3.5573,-3.5399,-3.5415,-3.5399,-3.5225,-3.5225,-3.5399,-3.505,-3.4875,-3.47,-3.4525,-3.4525,-3.4525,-3.47,-3.4875,-3.505,-3.5399,-3.5573,-3.5573,-3.5573,-3.5573,-3.5573,-3.5573,-3.5573,-3.5573,-3.5573,-3.5573,-3.5573,-3.5573,-3.5748,-3.5748,-3.5573,-3.5462,-3.546,-4.178,-4.1388,-4.1388,-4.1354,-4.1303,-4.1371,-4.1388,-4.1388,-4.1388,-4.12,-4.096,-4.0892,-4.0738,-4.0601,-4.0583,-4.0583,-4.0583,-4.0782,-4.0765,-4.0765,-4.1308,-4.1849,-4.2389,-4.3124,-4.3481,-4.3481,-4.3499,-4.3481,-4.3481,-4.3481,-4.3035,-4.2459,-4.2639,-4.2167,-4.1264,-4.1247,-4.143,-4.1596,-4.2021,-4.2459,-4.2657,-4.3215,-4.3499,-4.3481,-4.3481,-4.3481,-4.3481,-4.3481,-4.3481,-4.3303,-4.3124,-4.2568,-4.2029,-4.1506,-4.1145,-4.0583,-4.0583,-4.0583,-4.0583,-4.0583,-4.0583,-4.0583,-4.0583,-4.0419,-4.0055,-3.969,-3.9142,-3.8591,-3.8224,-3.7927,-3.7337,-3.6908,-3.6384,-3.5923,-3.5669,-3.5589,-3.5573,-3.5573,-3.5573,-3.5573,-3.5573,-3.5573,-3.5573,-3.5573,-3.5573,-3.5573,-3.5573,-3.5573,-3.5573,-3.5399,-3.5225,-3.505,-3.505,-3.505,-3.505,-3.5225,-3.5225,-3.5573,-3.5573,-3.5573,-3.5573,-3.5573,-3.5573,-3.5573,-3.5573,-3.5573,-3.5573,-3.5573,-3.5573,-3.5573,-3.5748,-3.5748,-3.5748,-3.5748,-3.5761,-4.1799,-4.1765,-4.1765,-4.1936,-4.209,-4.1799,-4.1611,-4.1679,-4.1594,-4.1286,-4.0943,-4.1097,-4.1063,-4.0703,-4.0755,-4.0652,-4.0669,-4.0998,-4.1015,-4.105,-4.1664,-4.2441,-4.2639,-4.3178,-4.3499,-4.3321,-4.3518,-4.3591,-4.3646,-4.3628,-4.3289,-4.2797,-4.2686,-4.2294,-4.1694,-4.1628,-4.1662,-4.1845,-4.2337,-4.2508,-4.2765,-4.3269,-4.3499,-4.3499,-4.3609,-4.3554,-4.3536,-4.3554,-4.3554,-4.3481,-4.3124,-4.2568,-4.2029,-4.1489,-4.1127,-4.0765,-4.0583,-4.0583,-4.0583,-4.0583,-4.0583,-4.0583,-4.0583,-4.022,-3.9873,-3.9308,-3.8775,-3.8224,-3.7855,-3.7807,-3.7432,-3.6972,-3.6479,-3.6082,-3.578,-3.5605,-3.5573,-3.5573,-3.5573,-3.5573,-3.5573,-3.5573,-3.5573,-3.5573,-3.5573,-3.5573,-3.5573,-3.5573,-3.5573,-3.5573,-3.5399,-3.5399,-3.5399,-3.5573,-3.5573,-3.5573,-3.5573,-3.5573,-3.5573,-3.5573,-3.5573,-3.5573,-3.5573,-3.5573,-3.5573,-3.5573,-3.5573,-3.5573,-3.5748,-3.5922,-3.6096,-3.6096,-3.5922,-3.6096,-3.5999,-4.2812,-4.2159,-4.2159,-4.2022,-4.1799,-4.1457,-4.1457,-4.1679,-4.1423,-4.1388,-4.144,-4.1542,-4.1525,-4.1423,-4.1149,-4.1046,-4.0994,-4.0989,-4.092,-4.1264,-4.2478,-4.2566,-4.2792,-4.3126,-4.3357,-4.3233,-4.365,-4.394,-4.3995,-4.4033,-4.3905,-4.3058,-4.2909,-4.2574,-4.1917,-4.1799,-4.1728,-4.1873,-4.2337,-4.2744,-4.2874,-4.3269,-4.3536,-4.3554,-4.3793,-4.3774,-4.3628,-4.3793,-4.3811,-4.3591,-4.3339,-4.3035,-4.2227,-4.1849,-4.1489,-4.0765,-4.0583,-4.0583,-4.0583,-4.0583,-4.0583,-4.0583,-4.0237,-3.9873,-3.9308,-3.8942,-3.8408,-3.804,-3.7671,-3.756,-3.7321,-3.6876,-3.6527,-3.6209,-3.5859,-3.5605,-3.5589,-3.5589,-3.5573,-3.5573,-3.5573,-3.5573,-3.5573,-3.5573,-3.5573,-3.5573,-3.5573,-3.5573,-3.5573,-3.5573,-3.5573,-3.5573,-3.5573,-3.5573,-3.5573,-3.5573,-3.5573,-3.5573,-3.5573,-3.5573,-3.5573,-3.5748,-3.5748,-3.5748,-3.5573,-3.5573,-3.5573,-3.5922,-3.6096,-3.6269,-3.6443,-3.6443,-3.66,-3.6443,-3.6443,-4.2932,-4.2553,-4.2553,-4.2433,-4.221,-4.1868,-4.1799,-4.1919,-4.1782,-4.1697,-4.1748,-4.1885,-4.1885,-4.1697,-4.1508,-4.1423,-4.1388,-4.1603,-4.1787,-4.218,-4.2927,-4.283,-4.2609,-4.3029,-4.3325,-4.3343,-4.3505,-4.3796,-4.4051,-4.4032,-4.3623,-4.3093,-4.3093,-4.2859,-4.2227,-4.221,-4.2193,-4.238,-4.2882,-4.3242,-4.323,-4.3398,-4.3415,-4.3433,-4.3633,-4.385,-4.4105,-4.4233,-4.4233,-4.4105,-4.4031,-4.3469,-4.2622,-4.2389,-4.1849,-4.1127,-4.0963,-4.0765,-4.0765,-4.0583,-4.0583,-4.0601,-4.0419,-3.9856,-3.9308,-3.8759,-3.8408,-3.7855,-3.7655,-3.7575,-3.7385,-3.7067,-3.6765,-3.6559,-3.613,-3.5844,-3.5796,-3.5685,-3.5573,-3.5573,-3.5573,-3.5573,-3.5573,-3.5605,-3.5589,-3.5589,-3.5573,-3.5573,-3.5573,-3.5573,-3.5573,-3.5573,-3.5573,-3.5573,-3.5573,-3.5573,-3.5573,-3.5573,-3.5573,-3.5573,-3.5573,-3.5748,-3.5922,-3.5748,-3.5748,-3.5573,-3.5748,-3.6096,-3.6269,-3.6443,-3.6616,-3.6946,-3.7119,-3.6773,-3.6773,-4.2861,-4.2861,-4.2861,-4.2844,-4.2792,-4.2433,-4.2296,-4.2364,-4.2296,-4.2108,-4.18,-4.2055,-4.2038,-4.1766,-4.1646,-4.1595,-4.19,-4.2359,-4.2546,-4.2749,-4.328,-4.3146,-4.2737,-4.3058,-4.3377,-4.3748,-4.3492,-4.3659,-4.3659,-4.3563,-4.3661,-4.3274,-4.3121,-4.3053,-4.2949,-4.2844,-4.2673,-4.2881,-4.3392,-4.3777,-4.3838,-4.3722,-4.3669,-4.3651,-4.3796,-4.4051,-4.4563,-4.4673,-4.4728,-4.4673,-4.4673,-4.4124,-4.3325,-4.2856,-4.2425,-4.136,-4.1395,-4.1102,-4.0954,-4.0772,-4.0823,-4.0755,-4.0504,-4.0139,-3.9408,-3.9057,-3.8472,-3.8056,-3.7655,-3.7655,-3.7639,-3.7289,-3.7131,-3.6972,-3.6527,-3.6209,-3.6066,-3.5828,-3.5716,-3.5589,-3.5685,-3.5748,-3.5685,-3.5669,-3.5621,-3.5589,-3.5589,-3.5573,-3.5573,-3.5573,-3.5573,-3.5573,-3.5573,-3.5573,-3.5573,-3.5573,-3.5573,-3.5573,-3.5573,-3.5748,-3.5748,-3.6096,-3.6269,-3.5922,-3.5748,-3.5748,-3.5922,-3.6269,-3.6616,-3.6616,-3.6963,-3.7464,-3.7464,-3.7119,-3.7119,-4.2861,-4.2861,-4.2861,-4.2861,-4.2792,-4.245,-4.2484,-4.2673,-4.2433,-4.226,-4.2065,-4.2133,-4.2116,-4.1998,-4.1744,-4.1663,-4.1919,-4.262,-4.2758,-4.281,-4.3379,-4.3519,-4.2916,-4.3088,-4.3537,-4.3709,-4.3498,-4.3679,-4.3955,-4.4016,-4.3898,-4.3849,-4.3677,-4.3383,-4.3209,-4.3035,-4.2898,-4.3123,-4.3533,-4.3919,-4.4041,-4.4177,-4.4398,-4.4251,-4.4267,-4.4524,-4.4636,-4.5003,-4.504,-4.471,-4.4673,-4.46,-4.4234,-4.3633,-4.2818,-4.1898,-4.157,-4.1474,-4.1247,-4.1303,-4.1457,-4.144,-4.0814,-4.0293,-3.9739,-3.9151,-3.8602,-3.7919,-3.7671,-3.7671,-3.7655,-3.7385,-3.7178,-3.7035,-3.6797,-3.6431,-3.6225,-3.6034,-3.5907,-3.578,-3.5859,-3.5875,-3.5764,-3.5716,-3.5732,-3.5701,-3.5685,-3.5621,-3.5573,-3.5573,-3.5573,-3.5573,-3.5573,-3.5573,-3.5573,-3.5573,-3.5573,-3.5748,-3.5748,-3.6096,-3.6269,-3.66,-3.66,-3.6443,-3.6269,-3.6269,-3.6443,-3.6616,-3.6946,-3.7119,-3.7636,-3.8152,-3.7808,-3.7636,-3.7464,-4.2861,-4.2861,-4.2861,-4.2861,-4.2827,-4.2673,-4.269,-4.281,-4.2465,-4.2409,-4.2403,-4.1984,-4.2,-4.2227,-4.1975,-4.1879,-4.2399,-4.3036,-4.295,-4.2846,-4.3539,-4.3626,-4.2861,-4.3053,-4.3244,-4.3192,-4.3227,-4.3502,-4.3726,-4.3504,-4.3609,-4.3418,-4.3244,-4.3244,-4.3035,-4.2844,-4.2932,-4.3347,-4.388,-4.4186,-4.4533,-4.4743,-4.4615,-4.4688,-4.4611,-4.4888,-4.5388,-4.5443,-4.5517,-4.5352,-4.5315,-4.5187,-4.5003,-4.4617,-4.3794,-4.2904,-4.2309,-4.2014,-4.1689,-4.1694,-4.1457,-4.1628,-4.1186,-4.0444,-3.9806,-3.9303,-3.8602,-3.7919,-3.7671,-3.7671,-3.7671,-3.748,-3.7432,-3.7353,-3.7083,-3.6829,-3.6606,-3.632,-3.6145,-3.6002,-3.5875,-3.5812,-3.5716,-3.5716,-3.5828,-3.5828,-3.578,-3.5732,-3.5653,-3.5637,-3.5653,-3.5701,-3.5716,-3.5859,-3.5859,-3.5669,-3.5605,-3.5748,-3.6096,-3.6269,-3.6616,-3.6946,-3.7119,-3.7119,-3.6963,-3.6616,-3.6773,-3.6946,-3.7291,-3.7619,-3.798,-3.8152,-3.8152,-3.798,-3.7808,-4.2861,-4.2861,-4.2861,-4.2895,-4.2964,-4.2964,-4.2964,-4.2788,-4.2471,-4.2606,-4.2758,-4.1974,-4.1779,-4.2268,-4.2261,-4.2234,-4.2652,-4.3209,-4.3001,-4.2827,-4.3227,-4.3244,-4.2861,-4.2861,-4.2861,-4.2844,-4.2827,-4.3053,-4.3192,-4.3035,-4.2861,-4.3053,-4.3053,-4.3053,-4.3227,-4.3244,-4.3435,-4.3799,-4.437,-4.475,-4.5038,-4.4822,-4.4829,-4.4847,-4.4829,-4.4992,-4.5755,-4.581,-4.5847,-4.581,-4.5792,-4.5718,-4.5462,-4.5333,-4.5001,-4.4303,-4.3122,-4.2662,-4.2319,-4.1969,-4.1834,-4.2022,-4.1542,-4.0781,-3.9872,-3.9118,-3.844,-3.7919,-3.7687,-3.7671,-3.7671,-3.7655,-3.7655,-3.7591,-3.7401,-3.7162,-3.6972,-3.6733,-3.6511,-3.6273,-3.5955,-3.5828,-3.5844,-3.5987,-3.613,-3.5971,-3.5923,-3.605,-3.5971,-3.5812,-3.5812,-3.5875,-3.5891,-3.6019,-3.5987,-3.5796,-3.5701,-3.5589,-3.6096,-3.6616,-3.6963,-3.7119,-3.7464,-3.7636,-3.7119,-3.6946,-3.7119,-3.7119,-3.7447,-3.7808,-3.8152,-3.8152,-3.8152,-3.8152,-3.798,-4.2861,-4.2861,-4.2861,-4.3032,-4.3323,-4.334,-4.334,-4.3358,-4.3028,-4.267,-4.2257,-4.1375,-4.1359,-4.17,-4.2034,-4.2076,-4.2268,-4.2635,-4.2652,-4.246,-4.3035,-4.3244,-4.2861,-4.2861,-4.2861,-4.2861,-4.2861,-4.2861,-4.2861,-4.2861,-4.3053,-4.3244,-4.3053,-4.3244,-4.3626,-4.3435,-4.399,-4.475,-4.4939,-4.5318,-4.5677,-4.5245,-4.5397,-4.5397,-4.5397,-4.5227,-4.5883,-4.5883,-4.5883,-4.5883,-4.5883,-4.5865,-4.5773,-4.548,-4.5535,-4.5143,-4.4418,-4.3421,-4.2981,-4.2674,-4.2433,-4.2399,-4.2022,-4.117,-4.0154,-3.8877,-3.8079,-3.8302,-3.7893,-3.7734,-3.7734,-3.7687,-3.7671,-3.7655,-3.7591,-3.7385,-3.7194,-3.7003,-3.6797,-3.6638,-3.6352,-3.6193,-3.613,-3.6304,-3.6431,-3.6225,-3.6114,-3.6257,-3.6288,-3.613,-3.6243,-3.6338,-3.6177,-3.6307,-3.6259,-3.6227,-3.5891,-3.5716,-3.6176,-3.6839,-3.6946,-3.7291,-3.7808,-3.798,-3.7464,-3.7464,-3.7636,-3.7808,-3.7808,-3.798,-3.8152,-3.8323,-3.8323,-3.8152,-3.8152,-4.3495,-4.3495,-4.3495,-4.3597,-4.3734,-4.3734,-4.3597,-4.3283,-4.2994,-4.2703,-4.2423,-4.1293,-4.0951,-4.1114,-4.1144,-4.1304,-4.169,-4.2251,-4.2251,-4.2268,-4.2844,-4.3053,-4.2861,-4.2861,-4.2861,-4.2861,-4.2861,-4.2861,-4.2861,-4.2861,-4.3053,-4.3053,-4.2861,-4.2861,-4.3626,-4.3227,-4.3799,-4.456,-4.5129,-4.5695,-4.5695,-4.5695,-4.5695,-4.5883,-4.5695,-4.5695,-4.5883,-4.5883,-4.5883,-4.5883,-4.5883,-4.5883,-4.5865,-4.5737,-4.5737,-4.581,-4.5155,-4.4293,-4.3744,-4.333,-4.2863,-4.2724,-4.2158,-4.1595,-4.0403,-3.9201,-3.8259,-3.8449,-3.8163,-3.7988,-3.7893,-3.7782,-3.7702,-3.7671,-3.7671,-3.7607,-3.7417,-3.7226,-3.7035,-3.6892,-3.6781,-3.6638,-3.6495,-3.6543,-3.6638,-3.6543,-3.6479,-3.6606,-3.6574,-3.6431,-3.661,-3.6852,-3.6674,-3.6658,-3.661,-3.6562,-3.6209,-3.6034,-3.6434,-3.6862,-3.6996,-3.7464,-3.8048,-3.8375,-3.8014,-3.8014,-3.834,-3.8152,-3.7808,-3.798,-3.8323,-3.8323,-3.8323,-3.8323,-3.834,-4.4179,-4.4248,-4.4077,-4.4043,-4.4128,-4.4128,-4.3923,-4.358,-4.3096,-4.2967,-4.267,-4.1489,-4.0821,-4.053,-4.053,-4.0901,-4.1321,-4.169,-4.1883,-4.2268,-4.246,-4.2861,-4.2861,-4.2861,-4.2861,-4.2861,-4.2861,-4.2861,-4.2861,-4.2861,-4.2861,-4.2861,-4.2861,-4.2861,-4.3053,-4.3244,-4.3626,-4.456,-4.5318,-4.5695,-4.5883,-4.5883,-4.5883,-4.5883,-4.5883,-4.5883,-4.5883,-4.5883,-4.5883,-4.5883,-4.5883,-4.5883,-4.5883,-4.5865,-4.5847,-4.5883,-4.5452,-4.4885,-4.4264,-4.3624,-4.3192,-4.2621,-4.2121,-4.1319,-4.0248,-3.9255,-3.8688,-3.864,-3.8354,-3.8211,-3.8131,-3.7877,-3.7718,-3.7671,-3.7671,-3.7671,-3.7639,-3.7448,-3.7321,-3.7258,-3.7146,-3.7067,-3.694,-3.6829,-3.6813,-3.6781,-3.6845,-3.6956,-3.6892,-3.6765,-3.7057,-3.7318,-3.7153,-3.6924,-3.6945,-3.6865,-3.6511,-3.653,-3.6741,-3.6996,-3.7359,-3.7765,-3.8302,-3.8407,-3.8529,-3.8563,-3.8683,-3.815,-3.7808,-3.8152,-3.8323,-3.8323,-3.8323,-3.8323,-3.8512,-4.471,-4.4984,-4.4299,-4.4214,-4.4488,-4.4488,-4.4282,-4.3974,-4.367,-4.3186,-4.2502,-4.1978,-4.0984,-4.0578,-4.0513,-4.0707,-4.1321,-4.1304,-4.169,-4.2076,-4.246,-4.2861,-4.2861,-4.2861,-4.2861,-4.2861,-4.2861,-4.2861,-4.2861,-4.2861,-4.2861,-4.2861,-4.2861,-4.3035,-4.3244,-4.3435,-4.3799,-4.475,-4.5129,-4.5506,-4.5695,-4.5883,-4.5883,-4.5883,-4.5883,-4.5883,-4.5883,-4.5883,-4.5883,-4.5695,-4.5695,-4.5883,-4.5883,-4.5883,-4.5883,-4.5883,-4.5883,-4.5318,-4.4507,-4.3937,-4.34,-4.2533,-4.1773,-4.09,-4.0446,-3.9336,-3.8719,-3.8783,-3.8592,-3.8338,-3.8163,-3.7925,-3.7782,-3.7671,-3.7687,-3.775,-3.7734,-3.7671,-3.756,-3.7575,-3.7496,-3.7353,-3.7305,-3.7194,-3.7131,-3.7115,-3.7115,-3.721,-3.7274,-3.721,-3.7385,-3.7664,-3.7696,-3.7401,-3.7146,-3.7003,-3.6908,-3.7045,-3.7209,-3.7532,-3.7854,-3.8267,-3.8591,-3.8868,-3.9059,-3.9025,-3.8922,-3.851,-3.8322,-3.8203,-3.8323,-3.8323,-3.8494,-3.8512,-3.8683,-4.4984,-4.5087,-4.4796,-4.4962,-4.5283,-4.5082,-4.4876,-4.473,-4.3818,-4.2573,-4.1341,-4.0935,-4.0674,-4.0221,-4.0141,-4.0336,-4.0724,-4.1111,-4.169,-4.2268,-4.2844,-4.3244,-4.3244,-4.3244,-4.3244,-4.3244,-4.3053,-4.2861,-4.2861,-4.2861,-4.2861,-4.2861,-4.2861,-4.2844,-4.3053,-4.3435,-4.399,-4.456,-4.4939,-4.5318,-4.5695,-4.5883,-4.5883,-4.5883,-4.5883,-4.5695,-4.5506,-4.5506,-4.5506,-4.5506,-4.5506,-4.5695,-4.5883,-4.5883,-4.5883,-4.5883,-4.5883,-4.5318,-4.456,-4.418,-4.3817,-4.2844,-4.1749,-4.1024,-4.0809,-3.99,-3.9548,-3.926,-3.8989,-3.8703,-3.8481,-3.8211,-3.7957,-3.7766,-3.7718,-3.7814,-3.7861,-3.783,-3.783,-3.7845,-3.7702,-3.7544,-3.7544,-3.7528,-3.7496,-3.7464,-3.7464,-3.7448,-3.748,-3.7496,-3.7607,-3.7671,-3.7671,-3.7671,-3.7417,-3.7353,-3.7488,-3.7414,-3.75,-3.8022,-3.8363,-3.8535,-3.8771,-3.926,-3.9488,-3.9333,-3.9128,-3.8854,-3.8648,-3.8494,-3.8392,-3.8323,-3.8494,-3.8717,-3.9042,-4.5121,-4.5121,-4.5121,-4.5306,-4.5507,-4.5185,-4.491,-4.473,-4.3563,-4.2078,-4.0546,-4.0398,-4.0282,-3.9911,-3.9979,-4.0432,-4.1015,-4.137,-4.19,-4.2652,-4.3244,-4.3626,-4.3817,-4.3817,-4.3817,-4.3626,-4.3244,-4.3053,-4.2861,-4.2861,-4.2861,-4.2861,-4.2861,-4.2861,-4.2861,-4.3244,-4.3626,-4.4198,-4.4578,-4.5129,-4.5506,-4.5695,-4.5883,-4.5695,-4.5695,-4.5506,-4.5129,-4.5129,-4.4939,-4.5129,-4.5129,-4.5506,-4.5695,-4.5883,-4.5883,-4.5883,-4.5713,-4.5525,-4.4768,-4.4008,-4.3609,-4.2844,-4.2076,-4.1481,-4.1127,-4.053,-4.0045,-3.9657,-3.9403,-3.9117,-3.8799,-3.8449,-3.8131,-3.7941,-3.7909,-3.7988,-3.8084,-3.8116,-3.8116,-3.8116,-3.7941,-3.7798,-3.7623,-3.7623,-3.7607,-3.7575,-3.7575,-3.756,-3.7591,-3.7607,-3.7639,-3.7671,-3.7671,-3.7671,-3.7655,-3.7743,-3.7831,-3.7735,-3.7873,-3.8514,-3.8808,-3.8998,-3.9193,-3.9771,-3.9899,-3.9625,-3.9419,-3.9248,-3.8922,-3.8597,-3.8614,-3.8873,-3.8907,-3.9286,-3.9489,-4.5121,-4.5121,-4.5121,-4.5121,-4.507,-4.4693,-4.4368,-4.4077,-4.3062,-4.1879,-4.0546,-4.0384,-4.035,-4.0266,-4.0238,-4.0659,-4.1357,-4.179,-4.246,-4.3227,-4.3626,-4.4008,-4.418,-4.437,-4.418,-4.3817,-4.3435,-4.3244,-4.2861,-4.2861,-4.2861,-4.2861,-4.2861,-4.2861,-4.2861,-4.2861,-4.3035,-4.3609,-4.3799,-4.437,-4.4939,-4.5318,-4.5506,-4.5506,-4.5506,-4.5318,-4.475,-4.475,-4.475,-4.475,-4.4939,-4.5318,-4.5695,-4.5883,-4.5883,-4.5883,-4.5883,-4.5318,-4.456,-4.3418,-4.3035,-4.2861,-4.2268,-4.1883,-4.1304,-4.0724,-4.0141,-3.9931,-3.9482,-3.9275,-3.8974,-3.8672,-3.8402,-3.8211,-3.8195,-3.8274,-3.8386,-3.8386,-3.837,-3.8402,-3.8259,-3.8068,-3.7814,-3.7671,-3.7655,-3.7655,-3.7671,-3.7671,-3.7671,-3.7671,-3.7671,-3.7855,-3.7855,-3.7855,-3.804,-3.8224,-3.8343,-3.8278,-3.838,-3.8828,-3.9305,-3.9419,-3.9864,-4.0429,-4.031,-4.0053,-3.9864,-3.9693,-3.9561,-3.9303,-3.9704,-3.9896,-3.9896,-3.9841,-3.9854,-4.5121,-4.5121,-4.5121,-4.5121,-4.5053,-4.4693,-4.4635,-4.4446,-4.2916,-4.144,-4.0562,-4.0141,-3.9995,-4.0059,-4.0059,-4.0611,-4.1453,-4.163,-4.2285,-4.3626,-4.4008,-4.437,-4.475,-4.475,-4.475,-4.437,-4.399,-4.3626,-4.3435,-4.3053,-4.2861,-4.2861,-4.2861,-4.2861,-4.2861,-4.2861,-4.3053,-4.3609,-4.399,-4.456,-4.5129,-4.5318,-4.5506,-4.5318,-4.5506,-4.5129,-4.437,-4.4198,-4.418,-4.4388,-4.4388,-4.4975,-4.5336,-4.5713,-4.592,-4.5902,-4.5902,-4.5525,-4.4388,-4.3435,-4.2861,-4.2669,-4.246,-4.1883,-4.1304,-4.0707,-4.0336,-3.9947,-3.9641,-3.945,-3.918,-3.9069,-3.8846,-3.8592,-3.856,-3.8719,-3.8799,-3.8672,-3.8624,-3.8688,-3.8624,-3.8195,-3.7877,-3.7798,-3.7782,-3.7903,-3.7903,-3.7871,-3.7855,-3.7855,-3.7855,-3.804,-3.8224,-3.8224,-3.8224,-3.8591,-3.8775,-3.871,-3.8876,-3.9225,-3.9738,-3.9869,-4.0283,-4.0515,-4.0515,-4.0464,-4.0283,-3.9991,-4.0186,-4.0277,-4.0561,-4.0579,-4.0333,-4.026,-4.0375,-4.5121,-4.5121,-4.5121,-4.5121,-4.5036,-4.4556,-4.4411,-4.3888,-4.2435,-4.1308,-4.0546,-3.9947,-4.0043,-4.009,-4.0205,-4.0659,-4.1663,-4.174,-4.2285,-4.3626,-4.418,-4.456,-4.4939,-4.5318,-4.5129,-4.4939,-4.456,-4.399,-4.3626,-4.3244,-4.3053,-4.2861,-4.2861,-4.2861,-4.2861,-4.2861,-4.2861,-4.3244,-4.3626,-4.399,-4.437,-4.475,-4.4939,-4.4939,-4.475,-4.456,-4.4008,-4.3817,-4.3817,-4.3852,-4.4095,-4.4685,-4.5219,-4.5634,-4.6067,-4.6085,-4.5725,-4.5101,-4.4043,-4.3435,-4.2861,-4.2861,-4.246,-4.2076,-4.1497,-4.1111,-4.053,-4.0141,-3.9768,-3.9641,-3.945,-3.9371,-3.9148,-3.8878,-3.8831,-3.8974,-3.9069,-3.8942,-3.8926,-3.8974,-3.891,-3.8433,-3.8036,-3.7957,-3.7925,-3.8031,-3.8136,-3.8088,-3.8072,-3.8088,-3.8056,-3.8408,-3.8608,-3.8608,-3.8791,-3.9142,-3.9125,-3.9125,-3.9491,-3.9856,-4.0038,-4.0351,-4.0566,-4.0782,-4.0929,-4.0988,-4.0445,-4.0416,-4.0663,-4.0859,-4.1161,-4.1161,-4.093,-4.082,-4.069,-4.5121,-4.5121,-4.5104,-4.507,-4.4967,-4.4316,-4.3419,-4.2143,-4.1531,-4.1144,-4.0546,-4.0173,-4.0302,-4.0918,-4.0675,-4.1259,-4.2218,-4.2193,-4.2703,-4.3435,-4.418,-4.456,-4.5129,-4.5506,-4.5506,-4.5318,-4.4939,-4.437,-4.3817,-4.3435,-4.3244,-4.2861,-4.2669,-4.2669,-4.2669,-4.2669,-4.2861,-4.2861,-4.3244,-4.3626,-4.399,-4.4008,-4.418,-4.418,-4.4198,-4.399,-4.3453,-4.3487,-4.3505,-4.38,-4.4377,-4.4863,-4.5435,-4.6097,-4.6397,-4.6261,-4.5496,-4.4725,-4.3957,-4.3139,-4.2844,-4.2861,-4.2652,-4.2285,-4.169,-4.1111,-4.0724,-4.0157,-3.9768,-3.9768,-3.9704,-3.9498,-3.9484,-3.9308,-3.9164,-3.9276,-3.942,-3.9244,-3.9244,-3.9244,-3.9196,-3.8878,-3.8701,-3.8542,-3.8441,-3.853,-3.8618,-3.8722,-3.8705,-3.857,-3.8705,-3.8958,-3.9158,-3.9175,-3.9341,-3.969,-3.9508,-3.9491,-4.0038,-4.0402,-4.0419,-4.0601,-4.0963,-4.1308,-4.1669,-4.1529,-4.1104,-4.0999,-4.1194,-4.1533,-4.1515,-4.1745,-4.1688,-4.1065,-4.0726,-4.5121,-4.5087,-4.4813,-4.4693,-4.4625,-4.4197,-4.3368,-4.2528,-4.1707,-4.1436,-4.1862,-4.0821,-4.0951,-4.1587,-4.1275,-4.1613,-4.1967,-4.2336,-4.2878,-4.3435,-4.4233,-4.4578,-4.5147,-4.5525,-4.5695,-4.5506,-4.5318,-4.4939,-4.456,-4.399,-4.3244,-4.2861,-4.2511,-4.2494,-4.2669,-4.2477,-4.2686,-4.2861,-4.3053,-4.3244,-4.3626,-4.3817,-4.4008,-4.3799,-4.4008,-4.3626,-4.3313,-4.3503,-4.3572,-4.3693,-4.4781,-4.5239,-4.5469,-4.6024,-4.647,-4.5897,-4.5322,-4.4692,-4.3992,-4.319,-4.2861,-4.2861,-4.2861,-4.2285,-4.1707,-4.1111,-4.074,-4.0157,-3.9768,-3.9768,-3.9947,-3.9803,-3.9885,-3.9804,-3.9868,-4.0092,-4.0013,-3.9997,-3.982,-3.9659,-3.9611,-3.9596,-3.9243,-3.9014,-3.8942,-3.9217,-3.9303,-3.9389,-3.9307,-3.934,-3.9472,-3.9724,-3.9774,-3.9791,-3.9906,-4.0072,-3.9873,-3.9873,-4.0402,-4.0765,-4.0946,-4.1145,-4.1489,-4.1669,-4.2029,-4.1976,-4.1691,-4.1781,-4.1853,-4.1656,-4.1652,-4.2026,-4.2238,-4.1521,-4.1078,-4.5121,-4.5087,-4.4864,-4.4676,-4.4505,-4.4299,-4.3837,-4.3163,-4.2335,-4.2469,-4.2586,-4.1684,-4.144,-4.1945,-4.168,-4.1707,-4.2285,-4.2285,-4.246,-4.3261,-4.4148,-4.4477,-4.5029,-4.5652,-4.603,-4.5786,-4.5525,-4.5318,-4.4957,-4.4198,-4.3435,-4.307,-4.2562,-4.2579,-4.2562,-4.2613,-4.2596,-4.272,-4.3053,-4.3244,-4.3435,-4.3626,-4.3435,-4.3435,-4.3644,-4.3487,-4.3276,-4.3745,-4.3655,-4.3844,-4.4777,-4.5273,-4.5399,-4.568,-4.5766,-4.5397,-4.5028,-4.4517,-4.378,-4.3397,-4.3032,-4.2895,-4.2861,-4.2285,-4.1707,-4.1304,-4.074,-4.0157,-3.9963,-3.9768,-3.9947,-4.0141,-4.0319,-4.0497,-4.0626,-4.0947,-4.0737,-4.0721,-4.0384,-4.0255,-4.0158,-3.9981,-3.9833,-3.9584,-3.9478,-3.9818,-4.0024,-3.9975,-3.9874,-3.9824,-4.0109,-4.0646,-4.0593,-4.0441,-4.0373,-4.0487,-4.0237,-4.022,-4.0782,-4.0963,-4.1325,-4.1687,-4.2209,-4.2389,-4.2389,-4.23,-4.2156,-4.2174,-4.2227,-4.2026,-4.2057,-4.256,-4.2433,-4.1568,-4.1442,-4.5121,-4.5104,-4.507,-4.4779,-4.4505,-4.4471,-4.4316,-4.406,-4.3451,-4.3253,-4.3152,-4.244,-4.2324,-4.2799,-4.2318,-4.2328,-4.2681,-4.2647,-4.2613,-4.2929,-4.415,-4.4743,-4.4863,-4.5734,-4.5998,-4.5951,-4.5841,-4.5797,-4.5047,-4.4286,-4.3748,-4.347,-4.28,-4.264,-4.2681,-4.2741,-4.2758,-4.3027,-4.3118,-4.3066,-4.2895,-4.2861,-4.2861,-4.2912,-4.2947,-4.3015,-4.334,-4.3529,-4.3632,-4.4205,-4.4678,-4.516,-4.5344,-4.5522,-4.5487,-4.5007,-4.5007,-4.4494,-4.3861,-4.346,-4.3203,-4.284,-4.2686,-4.2285,-4.169,-4.1304,-4.0724,-4.0157,-3.9768,-3.9963,-4.0141,-4.053,-4.0707,-4.1078,-4.1398,-4.1398,-4.1414,-4.1189,-4.0787,-4.0465,-4.0659,-4.0496,-4.0607,-4.0371,-4.0452,-4.0728,-4.0697,-4.0746,-4.0627,-4.0359,-4.0695,-4.1254,-4.0999,-4.076,-4.0743,-4.0823,-4.0635,-4.0765,-4.0963,-4.1325,-4.1489,-4.2209,-4.2945,-4.2945,-4.2927,-4.2691,-4.2565,-4.2583,-4.251,-4.2257,-4.2414,-4.301,-4.2718,-4.1851,-4.176,-4.5121,-4.5087,-4.4779,-4.4453,-4.4179,-4.4419,-4.4488,-4.4436,-4.4527,-4.4442,-4.3954,-4.3451,-4.3186,-4.3699,-4.3394,-4.3419,-4.3402,-4.3163,-4.3095,-4.35,-4.4219,-4.4641,-4.4535,-4.5573,-4.6241,-4.647,-4.6398,-4.6371,-4.5561,-4.4934,-4.408,-4.3087,-4.2817,-4.2724,-4.2673,-4.2799,-4.3096,-4.3563,-4.3563,-4.3323,-4.3015,-4.2947,-4.2947,-4.3066,-4.3152,-4.3306,-4.3614,-4.3871,-4.4077,-4.4385,-4.5361,-4.5725,-4.5822,-4.6052,-4.5836,-4.5247,-4.4945,-4.4411,-4.3879,-4.336,-4.3232,-4.2867,-4.2698,-4.216,-4.169,-4.1497,-4.0934,-4.0157,-3.9963,-3.9947,-4.0336,-4.0724,-4.1288,-4.164,-4.1992,-4.2025,-4.1883,-4.1448,-4.1012,-4.1045,-4.1094,-4.1062,-4.1205,-4.1199,-4.1504,-4.1629,-4.1578,-4.1357,-4.1305,-4.122,-4.105,-4.144,-4.1268,-4.1097,-4.1264,-4.1092,-4.1033,-4.1127,-4.1308,-4.1669,-4.1849,-4.2568,-4.3303,-4.3321,-4.3266,-4.3083,-4.2919,-4.2791,-4.2682,-4.2609,-4.2627,-4.3133,-4.3096,-4.2353,-4.2353,-4.5121,-4.5087,-4.4882,-4.4676,-4.4556,-4.471,-4.4779,-4.483,-4.5019,-4.4984,-4.4762,-4.422,-4.4135,-4.4471,-4.4162,-4.4043,-4.3991,-4.3786,-4.3683,-4.3878,-4.416,-4.4567,-4.5062,-4.5594,-4.6143,-4.6391,-4.6707,-4.6681,-4.5988,-4.5478,-4.4761,-4.3522,-4.3186,-4.2842,-4.2893,-4.3163,-4.3597,-4.3974,-4.4043,-4.3769,-4.3358,-4.3375,-4.3426,-4.3546,-4.3597,-4.3734,-4.3974,-4.4248,-4.4453,-4.4693,-4.5185,-4.5404,-4.5379,-4.5144,-4.5196,-4.5075,-4.4721,-4.4152,-4.3704,-4.3467,-4.3079,-4.2961,-4.2927,-4.2452,-4.1796,-4.1585,-4.1065,-4.027,-3.9784,-3.9963,-4.0336,-4.0901,-4.1497,-4.185,-4.2234,-4.2443,-4.246,-4.2251,-4.1833,-4.1657,-4.169,-4.1883,-4.1766,-4.1756,-4.19,-4.2038,-4.1988,-4.1816,-4.1799,-4.1868,-4.1883,-4.1694,-4.1758,-4.1769,-4.1848,-4.1639,-4.136,-4.1489,-4.1669,-4.2209,-4.2586,-4.3124,-4.3481,-4.3499,-4.3481,-4.3586,-4.342,-4.3254,-4.3273,-4.3133,-4.3059,-4.3041,-4.2931,-4.2913,-4.3144,-4.5121,-4.5121,-4.5104,-4.5104,-4.5104,-4.5104,-4.5104,-4.5104,-4.5121,-4.5121,-4.5053,-4.4727,-4.4625,-4.4488,-4.4316,-4.4197,-4.4128,-4.4094,-4.4077,-4.4325,-4.4713,-4.4789,-4.5021,-4.5572,-4.5966,-4.6502,-4.6821,-4.6652,-4.606,-4.564,-4.4938,-4.4201,-4.3748,-4.3443,-4.3385,-4.3444,-4.3733,-4.4248,-4.4299,-4.4214,-4.4111,-4.4043,-4.3991,-4.4008,-4.4043,-4.4214,-4.4453,-4.459,-4.4762,-4.4933,-4.5087,-4.507,-4.48,-4.448,-4.4497,-4.4446,-4.4008,-4.3724,-4.349,-4.3289,-4.3122,-4.3038,-4.3021,-4.2854,-4.2177,-4.1653,-4.1131,-4.0366,-4.0074,-4.0157,-4.0546,-4.0917,-4.1497,-4.2076,-4.246,-4.2861,-4.2861,-4.2669,-4.246,-4.2076,-4.2268,-4.2477,-4.2341,-4.2311,-4.2243,-4.2364,-4.2262,-4.2073,-4.1988,-4.2108,-4.2296,-4.2411,-4.2389,-4.2382,-4.252,-4.2185,-4.1704,-4.1849,-4.2029,-4.2766,-4.3303,-4.3481,-4.3481,-4.3481,-4.3641,-4.3586,-4.3745,-4.3616,-4.369,-4.3512,-4.3494,-4.3383,-4.3261,-4.3438,-4.3708,-4.5121,-4.5121,-4.5121,-4.5121,-4.5121,-4.5121,-4.5121,-4.5121,-4.5121,-4.5121,-4.5087,-4.507,-4.5001,-4.5001,-4.4967,-4.4847,-4.4676,-4.4556,-4.4436,-4.4471,-4.4755,-4.4687,-4.492,-4.5526,-4.61,-4.6445,-4.6682,-4.6431,-4.6071,-4.5363,-4.45,-4.3365,-4.3607,-4.3351,-4.3512,-4.3784,-4.4289,-4.4625,-4.4762,-4.4762,-4.4625,-4.4488,-4.4248,-4.4197,-4.4145,-4.4488,-4.4727,-4.4659,-4.4813,-4.4783,-4.47,-4.4515,-4.4279,-4.379,-4.3807,-4.3757,-4.354,-4.317,-4.312,-4.2906,-4.2773,-4.2606,-4.2724,-4.2692,-4.2311,-4.208,-4.1291,-4.0426,-4.0282,-4.0448,-4.0772,-4.1127,-4.1497,-4.2268,-4.2861,-4.2861,-4.2861,-4.2669,-4.2652,-4.246,-4.246,-4.246,-4.2251,-4.2324,-4.2707,-4.2655,-4.2655,-4.2484,-4.2279,-4.2381,-4.2657,-4.2758,-4.2837,-4.2874,-4.2774,-4.2566,-4.2118,-4.2263,-4.2389,-4.2945,-4.3303,-4.3481,-4.3481,-4.3481,-4.3623,-4.3549,-4.3708,-4.4081,-4.3988,-4.3969,-4.3923,-4.396,-4.3837,-4.3837,-4.4193]}]]